Wetterdaten: Dienstag, 04.10.2016
Datum Zeit Temp. A. Temp. A. max Feuchte A. Luftdruck Regen Wind Richtung Richtung Sonnenschein ET UV Solar Taupunkt Windben
04.10.2016 00:00 7,2 C 7,2 C 94 % 1026,4 hPa 0,0 mm 2,3 km/h (1 Bft) SW 222 0 min 0,000 mm 0,0 UV-I 0 W/m 6,3 C 3,2 km/h (1 Bft)
04.10.2016 00:01 7,2 C 7,2 C 94 % 1026,4 hPa 0,0 mm 1,7 km/h (1 Bft) SW 222 0 min 0,000 mm 0,0 UV-I 0 W/m 6,3 C 3,2 km/h (1 Bft)
04.10.2016 00:02 7,2 C 7,3 C 94 % 1026,4 hPa 0,0 mm 1,3 km/h (1 Bft) S-SW 211 0 min 0,000 mm 0,0 UV-I 0 W/m 6,3 C 3,2 km/h (1 Bft)
04.10.2016 00:03 7,3 C 7,3 C 94 % 1026,4 hPa 0,0 mm 2,7 km/h (1 Bft) S-SW 210 0 min 0,000 mm 0,0 UV-I 0 W/m 6,4 C 3,2 km/h (1 Bft)
04.10.2016 00:04 7,3 C 7,3 C 94 % 1026,4 hPa 0,0 mm 2,4 km/h (1 Bft) S 175 0 min 0,000 mm 0,0 UV-I 0 W/m 6,4 C 3,2 km/h (1 Bft)
04.10.2016 00:05 7,3 C 7,3 C 94 % 1026,4 hPa 0,0 mm 2,5 km/h (1 Bft) S 175 0 min 0,000 mm 0,0 UV-I 0 W/m 6,4 C 3,2 km/h (1 Bft)
04.10.2016 00:06 7,2 C 7,3 C 94 % 1026,4 hPa 0,0 mm 1,7 km/h (1 Bft) S 175 0 min 0,000 mm 0,0 UV-I 0 W/m 6,3 C 3,2 km/h (1 Bft)
04.10.2016 00:07 7,3 C 7,3 C 94 % 1026,4 hPa 0,0 mm 1,0 km/h (0 Bft) S 175 0 min 0,000 mm 0,0 UV-I 0 W/m 6,4 C 1,6 km/h (1 Bft)
04.10.2016 00:08 7,2 C 7,3 C 94 % 1026,4 hPa 0,0 mm 1,1 km/h (1 Bft) S 175 0 min 0,000 mm 0,0 UV-I 0 W/m 6,3 C 3,2 km/h (1 Bft)
04.10.2016 00:09 7,3 C 7,3 C 94 % 1026,4 hPa 0,0 mm 0,0 km/h (0 Bft) S 175 0 min 0,000 mm 0,0 UV-I 0 W/m 6,4 C 0,0 km/h (0 Bft)
04.10.2016 00:10 7,2 C 7,3 C 94 % 1026,4 hPa 0,0 mm 0,0 km/h (0 Bft) S 175 0 min 0,000 mm 0,0 UV-I 0 W/m 6,3 C 0,0 km/h (0 Bft)
04.10.2016 00:11 7,2 C 7,3 C 94 % 1026,4 hPa 0,0 mm 0,0 km/h (0 Bft) S 175 0 min 0,000 mm 0,0 UV-I 0 W/m 6,3 C 0,0 km/h (0 Bft)
04.10.2016 00:12 7,2 C 7,3 C 94 % 1026,4 hPa 0,0 mm 0,3 km/h (0 Bft) S 175 0 min 0,000 mm 0,0 UV-I 0 W/m 6,3 C 1,6 km/h (1 Bft)
04.10.2016 00:13 7,2 C 7,3 C 94 % 1026,4 hPa 0,0 mm 1,9 km/h (1 Bft) S 175 0 min 0,000 mm 0,0 UV-I 0 W/m 6,3 C 3,2 km/h (1 Bft)
04.10.2016 00:14 7,2 C 7,3 C 94 % 1026,4 hPa 0,0 mm 2,2 km/h (1 Bft) S 174 0 min 0,000 mm 0,0 UV-I 0 W/m 6,3 C 3,2 km/h (1 Bft)
04.10.2016 00:15 7,3 C 7,3 C 94 % 1026,4 hPa 0,0 mm 1,9 km/h (1 Bft) S 174 0 min 0,000 mm 0,0 UV-I 0 W/m 6,4 C 3,2 km/h (1 Bft)
04.10.2016 00:16 7,3 C 7,3 C 94 % 1026,4 hPa 0,0 mm 1,1 km/h (1 Bft) S 174 0 min 0,000 mm 0,0 UV-I 0 W/m 6,4 C 1,6 km/h (1 Bft)
04.10.2016 00:17 7,3 C 7,3 C 94 % 1026,4 hPa 0,0 mm 0,4 km/h (0 Bft) S 175 0 min 0,000 mm 0,0 UV-I 0 W/m 6,4 C 3,2 km/h (1 Bft)
04.10.2016 00:18 7,3 C 7,3 C 94 % 1026,4 hPa 0,0 mm 0,5 km/h (0 Bft) S 175 0 min 0,000 mm 0,0 UV-I 0 W/m 6,4 C 3,2 km/h (1 Bft)
04.10.2016 00:19 7,3 C 7,3 C 93 % 1026,4 hPa 0,0 mm 1,3 km/h (1 Bft) S-SW 205 0 min 0,000 mm 0,0 UV-I 0 W/m 6,2 C 3,2 km/h (1 Bft)
04.10.2016 00:20 7,3 C 7,3 C 94 % 1026,4 hPa 0,0 mm 4,4 km/h (1 Bft) W-SW 245 0 min 0,000 mm 0,0 UV-I 0 W/m 6,4 C 4,8 km/h (1 Bft)
04.10.2016 00:21 7,3 C 7,4 C 93 % 1026,4 hPa 0,0 mm 3,6 km/h (1 Bft) S 179 0 min 0,000 mm 0,0 UV-I 0 W/m 6,2 C 4,8 km/h (1 Bft)
04.10.2016 00:22 7,4 C 7,4 C 93 % 1026,4 hPa 0,0 mm 3,4 km/h (1 Bft) S 185 0 min 0,000 mm 0,0 UV-I 0 W/m 6,3 C 4,8 km/h (1 Bft)
04.10.2016 00:23 7,4 C 7,4 C 93 % 1026,3 hPa 0,0 mm 3,9 km/h (1 Bft) SO 124 0 min 0,000 mm 0,0 UV-I 0 W/m 6,3 C 4,8 km/h (1 Bft)
04.10.2016 00:24 7,4 C 7,4 C 93 % 1026,3 hPa 0,0 mm 3,1 km/h (1 Bft) SO 124 0 min 0,000 mm 0,0 UV-I 0 W/m 6,3 C 4,8 km/h (1 Bft)
04.10.2016 00:25 7,4 C 7,4 C 93 % 1026,3 hPa 0,0 mm 2,2 km/h (1 Bft) SO 124 0 min 0,000 mm 0,0 UV-I 0 W/m 6,3 C 3,2 km/h (1 Bft)
04.10.2016 00:26 7,4 C 7,4 C 93 % 1026,2 hPa 0,0 mm 1,0 km/h (0 Bft) SO 124 0 min 0,000 mm 0,0 UV-I 0 W/m 6,3 C 3,2 km/h (1 Bft)
04.10.2016 00:27 7,4 C 7,4 C 94 % 1026,2 hPa 0,0 mm 0,8 km/h (0 Bft) SO 124 0 min 0,000 mm 0,0 UV-I 0 W/m 6,5 C 3,2 km/h (1 Bft)
04.10.2016 00:28 7,4 C 7,4 C 93 % 1026,3 hPa 0,0 mm 1,0 km/h (0 Bft) SO 124 0 min 0,000 mm 0,0 UV-I 0 W/m 6,3 C 1,6 km/h (1 Bft)
04.10.2016 00:29 7,4 C 7,4 C 93 % 1026,3 hPa 0,0 mm 0,6 km/h (0 Bft) SO 124 0 min 0,000 mm 0,0 UV-I 0 W/m 6,3 C 3,2 km/h (1 Bft)
04.10.2016 00:30 7,4 C 7,4 C 93 % 1026,2 hPa 0,0 mm 2,3 km/h (1 Bft) SO 130 0 min 0,000 mm 0,0 UV-I 0 W/m 6,3 C 3,2 km/h (1 Bft)
04.10.2016 00:31 7,4 C 7,4 C 93 % 1026,2 hPa 0,0 mm 3,0 km/h (1 Bft) S-SO 161 0 min 0,000 mm 0,0 UV-I 0 W/m 6,3 C 3,2 km/h (1 Bft)
04.10.2016 00:32 7,4 C 7,4 C 93 % 1026,2 hPa 0,0 mm 3,0 km/h (1 Bft) S-SO 161 0 min 0,000 mm 0,0 UV-I 0 W/m 6,3 C 6,4 km/h (2 Bft)
04.10.2016 00:33 7,4 C 7,4 C 93 % 1026,2 hPa 0,0 mm 1,4 km/h (1 Bft) S-SO 161 0 min 0,000 mm 0,0 UV-I 0 W/m 6,3 C 3,2 km/h (1 Bft)
04.10.2016 00:34 7,4 C 7,4 C 93 % 1026,2 hPa 0,0 mm 2,0 km/h (1 Bft) S-SO 161 0 min 0,000 mm 0,0 UV-I 0 W/m 6,3 C 3,2 km/h (1 Bft)
04.10.2016 00:35 7,4 C 7,4 C 93 % 1026,2 hPa 0,0 mm 0,4 km/h (0 Bft) S-SO 161 0 min 0,000 mm 0,0 UV-I 0 W/m 6,3 C 1,6 km/h (1 Bft)
04.10.2016 00:36 7,4 C 7,4 C 93 % 1026,2 hPa 0,0 mm 0,1 km/h (0 Bft) S-SO 161 0 min 0,000 mm 0,0 UV-I 0 W/m 6,3 C 1,6 km/h (1 Bft)
04.10.2016 00:37 7,4 C 7,4 C 93 % 1026,2 hPa 0,0 mm 0,8 km/h (0 Bft) S-SO 161 0 min 0,000 mm 0,0 UV-I 0 W/m 6,3 C 1,6 km/h (1 Bft)
04.10.2016 00:38 7,4 C 7,4 C 93 % 1026,2 hPa 0,0 mm 1,3 km/h (1 Bft) S-SO 161 0 min 0,000 mm 0,0 UV-I 0 W/m 6,3 C 1,6 km/h (1 Bft)
04.10.2016 00:39 7,4 C 7,4 C 93 % 1026,2 hPa 0,0 mm 0,2 km/h (0 Bft) S-SO 161 0 min 0,000 mm 0,0 UV-I 0 W/m 6,3 C 1,6 km/h (1 Bft)
04.10.2016 00:40 7,3 C 7,4 C 93 % 1026,2 hPa 0,0 mm 0,0 km/h (0 Bft) S-SO 161 0 min 0,000 mm 0,0 UV-I 0 W/m 6,2 C 0,0 km/h (0 Bft)
04.10.2016 00:41 7,3 C 7,4 C 93 % 1026,2 hPa 0,0 mm 0,0 km/h (0 Bft) S-SO 161 0 min 0,000 mm 0,0 UV-I 0 W/m 6,2 C 0,0 km/h (0 Bft)
04.10.2016 00:42 7,3 C 7,3 C 93 % 1026,2 hPa 0,0 mm 0,3 km/h (0 Bft) S-SO 161 0 min 0,000 mm 0,0 UV-I 0 W/m 6,2 C 1,6 km/h (1 Bft)
04.10.2016 00:43 7,3 C 7,3 C 93 % 1026,2 hPa 0,0 mm 1,4 km/h (1 Bft) S-SO 161 0 min 0,000 mm 0,0 UV-I 0 W/m 6,2 C 1,6 km/h (1 Bft)
04.10.2016 00:44 7,3 C 7,3 C 94 % 1026,2 hPa 0,0 mm 0,3 km/h (0 Bft) S-SO 161 0 min 0,000 mm 0,0 UV-I 0 W/m 6,4 C 1,6 km/h (1 Bft)
04.10.2016 00:45 7,3 C 7,3 C 94 % 1026,2 hPa 0,0 mm 0,0 km/h (0 Bft) S-SO 161 0 min 0,000 mm 0,0 UV-I 0 W/m 6,4 C 0,0 km/h (0 Bft)
04.10.2016 00:46 7,3 C 7,3 C 94 % 1026,2 hPa 0,0 mm 0,0 km/h (0 Bft) S-SO 161 0 min 0,000 mm 0,0 UV-I 0 W/m 6,4 C 0,0 km/h (0 Bft)
04.10.2016 00:47 7,3 C 7,3 C 94 % 1026,2 hPa 0,0 mm 1,3 km/h (1 Bft) S-SO 161 0 min 0,000 mm 0,0 UV-I 0 W/m 6,4 C 1,6 km/h (1 Bft)
04.10.2016 00:48 7,3 C 7,3 C 94 % 1026,2 hPa 0,0 mm 0,9 km/h (0 Bft) S-SO 161 0 min 0,000 mm 0,0 UV-I 0 W/m 6,4 C 1,6 km/h (1 Bft)
04.10.2016 00:49 7,3 C 7,3 C 94 % 1026,2 hPa 0,0 mm 1,9 km/h (1 Bft) S-SO 161 0 min 0,000 mm 0,0 UV-I 0 W/m 6,4 C 3,2 km/h (1 Bft)
04.10.2016 00:50 7,3 C 7,3 C 94 % 1026,2 hPa 0,0 mm 1,3 km/h (1 Bft) S-SO 161 0 min 0,000 mm 0,0 UV-I 0 W/m 6,4 C 1,6 km/h (1 Bft)
04.10.2016 00:51 7,3 C 7,3 C 94 % 1026,2 hPa 0,0 mm 0,8 km/h (0 Bft) S-SO 161 0 min 0,000 mm 0,0 UV-I 0 W/m 6,4 C 1,6 km/h (1 Bft)
04.10.2016 00:52 7,2 C 7,3 C 94 % 1026,2 hPa 0,0 mm 0,6 km/h (0 Bft) S-SO 161 0 min 0,000 mm 0,0 UV-I 0 W/m 6,3 C 1,6 km/h (1 Bft)
04.10.2016 00:53 7,2 C 7,3 C 94 % 1026,2 hPa 0,0 mm 0,1 km/h (0 Bft) S-SO 161 0 min 0,000 mm 0,0 UV-I 0 W/m 6,3 C 1,6 km/h (1 Bft)
04.10.2016 00:54 7,3 C 7,3 C 94 % 1026,2 hPa 0,0 mm 0,4 km/h (0 Bft) S-SO 161 0 min 0,000 mm 0,0 UV-I 0 W/m 6,4 C 1,6 km/h (1 Bft)
04.10.2016 00:55 7,2 C 7,3 C 94 % 1026,2 hPa 0,0 mm 0,5 km/h (0 Bft) S-SO 161 0 min 0,000 mm 0,0 UV-I 0 W/m 6,3 C 1,6 km/h (1 Bft)
04.10.2016 00:56 7,2 C 7,2 C 94 % 1026,2 hPa 0,0 mm 0,4 km/h (0 Bft) S-SO 161 0 min 0,000 mm 0,0 UV-I 0 W/m 6,3 C 1,6 km/h (1 Bft)
04.10.2016 00:57 7,2 C 7,3 C 94 % 1026,2 hPa 0,0 mm 0,0 km/h (0 Bft) S-SO 161 0 min 0,000 mm 0,0 UV-I 0 W/m 6,3 C 0,0 km/h (0 Bft)
04.10.2016 00:58 7,2 C 7,2 C 94 % 1026,2 hPa 0,0 mm 0,0 km/h (0 Bft) S-SO 161 0 min 0,000 mm 0,0 UV-I 0 W/m 6,3 C 0,0 km/h (0 Bft)
04.10.2016 00:59 7,2 C 7,2 C 94 % 1026,2 hPa 0,0 mm 0,0 km/h (0 Bft) S-SO 161 0 min 0,000 mm 0,0 UV-I 0 W/m 6,3 C 0,0 km/h (0 Bft)
04.10.2016 01:00 7,2 C 7,2 C 94 % 1026,2 hPa 0,0 mm 0,0 km/h (0 Bft) S-SO 161 0 min 0,000 mm 0,0 UV-I 0 W/m 6,3 C 0,0 km/h (0 Bft)
04.10.2016 01:01 7,2 C 7,2 C 94 % 1026,2 hPa 0,0 mm 0,0 km/h (0 Bft) S-SO 161 0 min 0,000 mm 0,0 UV-I 0 W/m 6,3 C 0,0 km/h (0 Bft)
04.10.2016 01:02 7,2 C 7,2 C 94 % 1026,2 hPa 0,0 mm 0,0 km/h (0 Bft) S-SO 161 0 min 0,000 mm 0,0 UV-I 0 W/m 6,3 C 0,0 km/h (0 Bft)
04.10.2016 01:03 7,3 C 7,3 C 94 % 1026,2 hPa 0,0 mm 0,2 km/h (0 Bft) S-SO 161 0 min 0,000 mm 0,0 UV-I 0 W/m 6,4 C 1,6 km/h (1 Bft)
04.10.2016 01:04 7,3 C 7,3 C 94 % 1026,2 hPa 0,0 mm 0,2 km/h (0 Bft) S-SO 161 0 min 0,000 mm 0,0 UV-I 0 W/m 6,4 C 1,6 km/h (1 Bft)
04.10.2016 01:05 7,3 C 7,3 C 94 % 1026,1 hPa 0,0 mm 0,0 km/h (0 Bft) S-SO 161 0 min 0,000 mm 0,0 UV-I 0 W/m 6,4 C 0,0 km/h (0 Bft)
04.10.2016 01:06 7,2 C 7,3 C 94 % 1026,2 hPa 0,0 mm 0,0 km/h (0 Bft) S-SO 161 0 min 0,000 mm 0,0 UV-I 0 W/m 6,3 C 0,0 km/h (0 Bft)
04.10.2016 01:07 7,3 C 7,3 C 94 % 1026,2 hPa 0,0 mm 0,2 km/h (0 Bft) S-SO 161 0 min 0,000 mm 0,0 UV-I 0 W/m 6,4 C 1,6 km/h (1 Bft)
04.10.2016 01:08 7,3 C 7,3 C 94 % 1026,1 hPa 0,0 mm 0,3 km/h (0 Bft) S-SO 161 0 min 0,000 mm 0,0 UV-I 0 W/m 6,4 C 1,6 km/h (1 Bft)
04.10.2016 01:09 7,3 C 7,3 C 94 % 1026,2 hPa 0,0 mm 0,0 km/h (0 Bft) S-SO 161 0 min 0,000 mm 0,0 UV-I 0 W/m 6,4 C 0,0 km/h (0 Bft)
04.10.2016 01:10 7,3 C 7,3 C 94 % 1026,2 hPa 0,0 mm 0,0 km/h (0 Bft) S-SO 161 0 min 0,000 mm 0,0 UV-I 0 W/m 6,4 C 0,0 km/h (0 Bft)
04.10.2016 01:11 7,2 C 7,3 C 94 % 1026,1 hPa 0,0 mm 0,4 km/h (0 Bft) S-SO 161 0 min 0,000 mm 0,0 UV-I 0 W/m 6,3 C 1,6 km/h (1 Bft)
04.10.2016 01:12 7,2 C 7,2 C 94 % 1026,2 hPa 0,0 mm 1,0 km/h (0 Bft) S-SO 161 0 min 0,000 mm 0,0 UV-I 0 W/m 6,3 C 1,6 km/h (1 Bft)
04.10.2016 01:13 7,2 C 7,2 C 95 % 1026,2 hPa 0,0 mm 1,3 km/h (1 Bft) S-SO 161 0 min 0,000 mm 0,0 UV-I 0 W/m 6,5 C 1,6 km/h (1 Bft)
04.10.2016 01:14 7,2 C 7,2 C 95 % 1026,2 hPa 0,0 mm 1,0 km/h (0 Bft) S-SO 161 0 min 0,000 mm 0,0 UV-I 0 W/m 6,5 C 1,6 km/h (1 Bft)
04.10.2016 01:15 7,2 C 7,2 C 94 % 1026,2 hPa 0,0 mm 0,2 km/h (0 Bft) S-SO 161 0 min 0,000 mm 0,0 UV-I 0 W/m 6,3 C 1,6 km/h (1 Bft)
04.10.2016 01:16 7,2 C 7,2 C 94 % 1026,2 hPa 0,0 mm 0,0 km/h (0 Bft) S-SO 161 0 min 0,000 mm 0,0 UV-I 0 W/m 6,3 C 0,0 km/h (0 Bft)
04.10.2016 01:17 7,2 C 7,2 C 94 % 1026,2 hPa 0,0 mm 0,0 km/h (0 Bft) S-SO 161 0 min 0,000 mm 0,0 UV-I 0 W/m 6,3 C 0,0 km/h (0 Bft)
04.10.2016 01:18 7,2 C 7,2 C 95 % 1026,2 hPa 0,0 mm 0,0 km/h (0 Bft) S-SO 161 0 min 0,000 mm 0,0 UV-I 0 W/m 6,5 C 0,0 km/h (0 Bft)
04.10.2016 01:19 7,2 C 7,3 C 95 % 1026,2 hPa 0,0 mm 0,0 km/h (0 Bft) S-SO 161 0 min 0,000 mm 0,0 UV-I 0 W/m 6,5 C 0,0 km/h (0 Bft)
04.10.2016 01:20 7,2 C 7,3 C 95 % 1026,2 hPa 0,0 mm 0,0 km/h (0 Bft) S-SO 161 0 min 0,000 mm 0,0 UV-I 0 W/m 6,5 C 0,0 km/h (0 Bft)
04.10.2016 01:21 7,3 C 7,3 C 95 % 1026,2 hPa 0,0 mm 0,0 km/h (0 Bft) S-SO 161 0 min 0,000 mm 0,0 UV-I 0 W/m 6,6 C 0,0 km/h (0 Bft)
04.10.2016 01:22 7,2 C 7,3 C 95 % 1026,2 hPa 0,0 mm 1,1 km/h (1 Bft) S-SO 161 0 min 0,000 mm 0,0 UV-I 0 W/m 6,5 C 1,6 km/h (1 Bft)
04.10.2016 01:23 7,2 C 7,2 C 95 % 1026,2 hPa 0,0 mm 0,9 km/h (0 Bft) S-SO 161 0 min 0,000 mm 0,0 UV-I 0 W/m 6,5 C 1,6 km/h (1 Bft)
04.10.2016 01:24 7,2 C 7,3 C 95 % 1026,2 hPa 0,0 mm 1,3 km/h (1 Bft) S-SO 161 0 min 0,000 mm 0,0 UV-I 0 W/m 6,5 C 1,6 km/h (1 Bft)
04.10.2016 01:25 7,2 C 7,2 C 95 % 1026,2 hPa 0,0 mm 1,1 km/h (1 Bft) S-SO 161 0 min 0,000 mm 0,0 UV-I 0 W/m 6,5 C 1,6 km/h (1 Bft)
04.10.2016 01:26 7,2 C 7,2 C 95 % 1026,2 hPa 0,0 mm 0,0 km/h (0 Bft) S-SO 161 0 min 0,000 mm 0,0 UV-I 0 W/m 6,5 C 0,0 km/h (0 Bft)
04.10.2016 01:27 7,2 C 7,2 C 95 % 1026,2 hPa 0,0 mm 0,0 km/h (0 Bft) S-SO 161 0 min 0,000 mm 0,0 UV-I 0 W/m 6,5 C 0,0 km/h (0 Bft)
04.10.2016 01:28 7,2 C 7,2 C 95 % 1026,2 hPa 0,0 mm 0,0 km/h (0 Bft) S-SO 161 0 min 0,000 mm 0,0 UV-I 0 W/m 6,5 C 0,0 km/h (0 Bft)
04.10.2016 01:29 7,2 C 7,3 C 95 % 1026,2 hPa 0,0 mm 0,0 km/h (0 Bft) S-SO 161 0 min 0,000 mm 0,0 UV-I 0 W/m 6,5 C 0,0 km/h (0 Bft)
04.10.2016 01:30 7,2 C 7,3 C 95 % 1026,2 hPa 0,0 mm 0,2 km/h (0 Bft) S-SO 161 0 min 0,000 mm 0,0 UV-I 0 W/m 6,5 C 1,6 km/h (1 Bft)
04.10.2016 01:31 7,3 C 7,3 C 95 % 1026,2 hPa 0,0 mm 0,0 km/h (0 Bft) S-SO 161 0 min 0,000 mm 0,0 UV-I 0 W/m 6,6 C 0,0 km/h (0 Bft)
04.10.2016 01:32 7,2 C 7,3 C 95 % 1026,2 hPa 0,0 mm 0,0 km/h (0 Bft) S-SO 161 0 min 0,000 mm 0,0 UV-I 0 W/m 6,5 C 0,0 km/h (0 Bft)
04.10.2016 01:33 7,3 C 7,3 C 95 % 1026,2 hPa 0,0 mm 0,0 km/h (0 Bft) S-SO 161 0 min 0,000 mm 0,0 UV-I 0 W/m 6,6 C 0,0 km/h (0 Bft)
04.10.2016 01:34 7,2 C 7,3 C 95 % 1026,2 hPa 0,0 mm 0,0 km/h (0 Bft) S-SO 161 0 min 0,000 mm 0,0 UV-I 0 W/m 6,5 C 0,0 km/h (0 Bft)
04.10.2016 01:35 7,3 C 7,3 C 95 % 1026,2 hPa 0,0 mm 0,0 km/h (0 Bft) S-SO 161 0 min 0,000 mm 0,0 UV-I 0 W/m 6,6 C 0,0 km/h (0 Bft)
04.10.2016 01:36 7,3 C 7,3 C 95 % 1026,2 hPa 0,0 mm 0,0 km/h (0 Bft) S-SO 161 0 min 0,000 mm 0,0 UV-I 0 W/m 6,6 C 0,0 km/h (0 Bft)
04.10.2016 01:37 7,3 C 7,3 C 95 % 1026,2 hPa 0,0 mm 0,0 km/h (0 Bft) S-SO 161 0 min 0,000 mm 0,0 UV-I 0 W/m 6,6 C 0,0 km/h (0 Bft)
04.10.2016 01:38 7,3 C 7,3 C 95 % 1026,2 hPa 0,0 mm 0,0 km/h (0 Bft) S-SO 161 0 min 0,000 mm 0,0 UV-I 0 W/m 6,6 C 0,0 km/h (0 Bft)
04.10.2016 01:39 7,3 C 7,3 C 95 % 1026,2 hPa 0,0 mm 0,0 km/h (0 Bft) S-SO 161 0 min 0,000 mm 0,0 UV-I 0 W/m 6,6 C 0,0 km/h (0 Bft)
04.10.2016 01:40 7,3 C 7,3 C 95 % 1026,2 hPa 0,0 mm 0,0 km/h (0 Bft) S-SO 161 0 min 0,000 mm 0,0 UV-I 0 W/m 6,6 C 0,0 km/h (0 Bft)
04.10.2016 01:41 7,3 C 7,3 C 95 % 1026,2 hPa 0,0 mm 0,0 km/h (0 Bft) S-SO 161 0 min 0,000 mm 0,0 UV-I 0 W/m 6,6 C 0,0 km/h (0 Bft)
04.10.2016 01:42 7,3 C 7,3 C 95 % 1026,1 hPa 0,0 mm 0,0 km/h (0 Bft) S-SO 161 0 min 0,000 mm 0,0 UV-I 0 W/m 6,6 C 0,0 km/h (0 Bft)
04.10.2016 01:43 7,2 C 7,3 C 95 % 1026,1 hPa 0,0 mm 0,0 km/h (0 Bft) S-SO 161 0 min 0,000 mm 0,0 UV-I 0 W/m 6,5 C 0,0 km/h (0 Bft)
04.10.2016 01:44 7,3 C 7,3 C 95 % 1026,1 hPa 0,0 mm 0,0 km/h (0 Bft) S-SO 161 0 min 0,000 mm 0,0 UV-I 0 W/m 6,6 C 0,0 km/h (0 Bft)
04.10.2016 01:45 7,3 C 7,3 C 95 % 1026,2 hPa 0,0 mm 0,0 km/h (0 Bft) S-SO 161 0 min 0,000 mm 0,0 UV-I 0 W/m 6,6 C 0,0 km/h (0 Bft)
04.10.2016 01:46 7,3 C 7,3 C 95 % 1026,2 hPa 0,0 mm 0,0 km/h (0 Bft) S-SO 161 0 min 0,000 mm 0,0 UV-I 0 W/m 6,6 C 0,0 km/h (0 Bft)
04.10.2016 01:47 7,3 C 7,3 C 95 % 1026,2 hPa 0,0 mm 0,0 km/h (0 Bft) S-SO 161 0 min 0,000 mm 0,0 UV-I 0 W/m 6,6 C 0,0 km/h (0 Bft)
04.10.2016 01:48 7,3 C 7,3 C 95 % 1026,2 hPa 0,0 mm 0,0 km/h (0 Bft) S-SO 161 0 min 0,000 mm 0,0 UV-I 0 W/m 6,6 C 0,0 km/h (0 Bft)
04.10.2016 01:49 7,3 C 7,3 C 95 % 1026,2 hPa 0,0 mm 0,0 km/h (0 Bft) S-SO 161 0 min 0,000 mm 0,0 UV-I 0 W/m 6,6 C 0,0 km/h (0 Bft)
04.10.2016 01:50 7,3 C 7,3 C 95 % 1026,2 hPa 0,0 mm 0,0 km/h (0 Bft) S-SO 161 0 min 0,000 mm 0,0 UV-I 0 W/m 6,6 C 0,0 km/h (0 Bft)
04.10.2016 01:51 7,3 C 7,3 C 95 % 1026,2 hPa 0,0 mm 0,0 km/h (0 Bft) S-SO 161 0 min 0,000 mm 0,0 UV-I 0 W/m 6,6 C 0,0 km/h (0 Bft)
04.10.2016 01:52 7,3 C 7,3 C 95 % 1026,2 hPa 0,0 mm 0,0 km/h (0 Bft) S-SO 161 0 min 0,000 mm 0,0 UV-I 0 W/m 6,6 C 0,0 km/h (0 Bft)
04.10.2016 01:53 7,3 C 7,3 C 94 % 1026,2 hPa 0,0 mm 0,0 km/h (0 Bft) S-SO 161 0 min 0,000 mm 0,0 UV-I 0 W/m 6,4 C 0,0 km/h (0 Bft)
04.10.2016 01:54 7,3 C 7,3 C 95 % 1026,3 hPa 0,0 mm 0,0 km/h (0 Bft) S-SO 161 0 min 0,000 mm 0,0 UV-I 0 W/m 6,6 C 0,0 km/h (0 Bft)
04.10.2016 01:55 7,3 C 7,3 C 95 % 1026,3 hPa 0,0 mm 0,0 km/h (0 Bft) S-SO 161 0 min 0,000 mm 0,0 UV-I 0 W/m 6,6 C 0,0 km/h (0 Bft)
04.10.2016 01:56 7,3 C 7,3 C 95 % 1026,3 hPa 0,0 mm 0,0 km/h (0 Bft) S-SO 161 0 min 0,000 mm 0,0 UV-I 0 W/m 6,6 C 0,0 km/h (0 Bft)
04.10.2016 01:57 7,3 C 7,3 C 94 % 1026,3 hPa 0,0 mm 0,0 km/h (0 Bft) S-SO 161 0 min 0,000 mm 0,0 UV-I 0 W/m 6,4 C 0,0 km/h (0 Bft)
04.10.2016 01:58 7,3 C 7,3 C 94 % 1026,3 hPa 0,0 mm 0,0 km/h (0 Bft) S-SO 161 0 min 0,000 mm 0,0 UV-I 0 W/m 6,4 C 0,0 km/h (0 Bft)
04.10.2016 01:59 7,2 C 7,3 C 94 % 1026,3 hPa 0,0 mm 0,0 km/h (0 Bft) S-SO 161 0 min 0,000 mm 0,0 UV-I 0 W/m 6,3 C 0,0 km/h (0 Bft)
04.10.2016 02:00 7,3 C 7,3 C 95 % 1026,3 hPa 0,0 mm 0,0 km/h (0 Bft) S-SO 161 0 min 0,000 mm 0,0 UV-I 0 W/m 6,6 C 0,0 km/h (0 Bft)
04.10.2016 02:01 7,2 C 7,3 C 94 % 1026,3 hPa 0,0 mm 0,0 km/h (0 Bft) S-SO 161 0 min 0,000 mm 0,0 UV-I 0 W/m 6,3 C 0,0 km/h (0 Bft)
04.10.2016 02:02 7,3 C 7,3 C 95 % 1026,3 hPa 0,0 mm 0,0 km/h (0 Bft) S-SO 161 0 min 0,000 mm 0,0 UV-I 0 W/m 6,6 C 0,0 km/h (0 Bft)
04.10.2016 02:03 7,3 C 7,3 C 95 % 1026,3 hPa 0,0 mm 0,0 km/h (0 Bft) S-SO 161 0 min 0,000 mm 0,0 UV-I 0 W/m 6,6 C 0,0 km/h (0 Bft)
04.10.2016 02:04 7,3 C 7,3 C 95 % 1026,3 hPa 0,0 mm 0,0 km/h (0 Bft) S-SO 161 0 min 0,000 mm 0,0 UV-I 0 W/m 6,6 C 0,0 km/h (0 Bft)
04.10.2016 02:05 7,3 C 7,3 C 95 % 1026,3 hPa 0,0 mm 0,0 km/h (0 Bft) S-SO 161 0 min 0,000 mm 0,0 UV-I 0 W/m 6,6 C 0,0 km/h (0 Bft)
04.10.2016 02:06 7,2 C 7,3 C 95 % 1026,3 hPa 0,0 mm 0,0 km/h (0 Bft) S-SO 161 0 min 0,000 mm 0,0 UV-I 0 W/m 6,5 C 0,0 km/h (0 Bft)
04.10.2016 02:07 7,3 C 7,3 C 95 % 1026,3 hPa 0,0 mm 0,0 km/h (0 Bft) S-SO 161 0 min 0,000 mm 0,0 UV-I 0 W/m 6,6 C 0,0 km/h (0 Bft)
04.10.2016 02:08 7,2 C 7,3 C 95 % 1026,3 hPa 0,0 mm 0,0 km/h (0 Bft) S-SO 161 0 min 0,000 mm 0,0 UV-I 0 W/m 6,5 C 0,0 km/h (0 Bft)
04.10.2016 02:09 7,2 C 7,2 C 95 % 1026,3 hPa 0,0 mm 0,0 km/h (0 Bft) S-SO 161 0 min 0,000 mm 0,0 UV-I 0 W/m 6,5 C 0,0 km/h (0 Bft)
04.10.2016 02:10 7,2 C 7,2 C 95 % 1026,3 hPa 0,0 mm 0,0 km/h (0 Bft) S-SO 161 0 min 0,000 mm 0,0 UV-I 0 W/m 6,5 C 0,0 km/h (0 Bft)
04.10.2016 02:11 7,2 C 7,2 C 95 % 1026,3 hPa 0,0 mm 0,0 km/h (0 Bft) S-SO 161 0 min 0,000 mm 0,0 UV-I 0 W/m 6,5 C 0,0 km/h (0 Bft)
04.10.2016 02:12 7,2 C 7,2 C 95 % 1026,3 hPa 0,0 mm 0,0 km/h (0 Bft) S-SO 161 0 min 0,000 mm 0,0 UV-I 0 W/m 6,5 C 0,0 km/h (0 Bft)
04.10.2016 02:13 7,2 C 7,2 C 95 % 1026,3 hPa 0,0 mm 0,0 km/h (0 Bft) S-SO 161 0 min 0,000 mm 0,0 UV-I 0 W/m 6,5 C 0,0 km/h (0 Bft)
04.10.2016 02:14 7,2 C 7,2 C 95 % 1026,3 hPa 0,0 mm 0,0 km/h (0 Bft) S-SO 161 0 min 0,000 mm 0,0 UV-I 0 W/m 6,5 C 0,0 km/h (0 Bft)
04.10.2016 02:15 7,2 C 7,2 C 95 % 1026,3 hPa 0,0 mm 0,0 km/h (0 Bft) S-SO 161 0 min 0,000 mm 0,0 UV-I 0 W/m 6,5 C 0,0 km/h (0 Bft)
04.10.2016 02:16 7,2 C 7,2 C 95 % 1026,3 hPa 0,0 mm 0,0 km/h (0 Bft) S-SO 161 0 min 0,000 mm 0,0 UV-I 0 W/m 6,5 C 0,0 km/h (0 Bft)
04.10.2016 02:17 7,2 C 7,2 C 95 % 1026,3 hPa 0,0 mm 0,0 km/h (0 Bft) S-SO 161 0 min 0,000 mm 0,0 UV-I 0 W/m 6,5 C 0,0 km/h (0 Bft)
04.10.2016 02:18 7,2 C 7,2 C 95 % 1026,3 hPa 0,0 mm 0,0 km/h (0 Bft) S-SO 161 0 min 0,000 mm 0,0 UV-I 0 W/m 6,5 C 0,0 km/h (0 Bft)
04.10.2016 02:19 7,2 C 7,2 C 95 % 1026,3 hPa 0,0 mm 0,0 km/h (0 Bft) S-SO 161 0 min 0,000 mm 0,0 UV-I 0 W/m 6,5 C 0,0 km/h (0 Bft)
04.10.2016 02:20 7,2 C 7,2 C 95 % 1026,3 hPa 0,0 mm 0,0 km/h (0 Bft) S-SO 161 0 min 0,000 mm 0,0 UV-I 0 W/m 6,5 C 0,0 km/h (0 Bft)
04.10.2016 02:21 7,2 C 7,2 C 95 % 1026,3 hPa 0,0 mm 0,0 km/h (0 Bft) S-SO 161 0 min 0,000 mm 0,0 UV-I 0 W/m 6,5 C 0,0 km/h (0 Bft)
04.10.2016 02:22 7,2 C 7,2 C 95 % 1026,3 hPa 0,0 mm 0,0 km/h (0 Bft) S-SO 161 0 min 0,000 mm 0,0 UV-I 0 W/m 6,5 C 0,0 km/h (0 Bft)
04.10.2016 02:23 7,2 C 7,2 C 95 % 1026,3 hPa 0,0 mm 0,0 km/h (0 Bft) S-SO 161 0 min 0,000 mm 0,0 UV-I 0 W/m 6,5 C 0,0 km/h (0 Bft)
04.10.2016 02:24 7,2 C 7,3 C 95 % 1026,3 hPa 0,2 mm 0,0 km/h (0 Bft) S-SO 161 0 min 0,000 mm 0,0 UV-I 0 W/m 6,5 C 0,0 km/h (0 Bft)
04.10.2016 02:25 7,3 C 7,3 C 95 % 1026,3 hPa 0,0 mm 0,0 km/h (0 Bft) S-SO 161 0 min 0,000 mm 0,0 UV-I 0 W/m 6,6 C 0,0 km/h (0 Bft)
04.10.2016 02:26 7,3 C 7,3 C 95 % 1026,3 hPa 0,0 mm 0,0 km/h (0 Bft) S-SO 161 0 min 0,000 mm 0,0 UV-I 0 W/m 6,6 C 0,0 km/h (0 Bft)
04.10.2016 02:27 7,3 C 7,3 C 95 % 1026,3 hPa 0,0 mm 0,0 km/h (0 Bft) S-SO 161 0 min 0,000 mm 0,0 UV-I 0 W/m 6,6 C 0,0 km/h (0 Bft)
04.10.2016 02:28 7,3 C 7,3 C 95 % 1026,3 hPa 0,0 mm 0,0 km/h (0 Bft) S-SO 161 0 min 0,000 mm 0,0 UV-I 0 W/m 6,6 C 0,0 km/h (0 Bft)
04.10.2016 02:29 7,3 C 7,3 C 95 % 1026,3 hPa 0,0 mm 0,0 km/h (0 Bft) S-SO 161 0 min 0,000 mm 0,0 UV-I 0 W/m 6,6 C 0,0 km/h (0 Bft)
04.10.2016 02:30 7,2 C 7,3 C 95 % 1026,3 hPa 0,0 mm 0,0 km/h (0 Bft) S-SO 161 0 min 0,000 mm 0,0 UV-I 0 W/m 6,5 C 0,0 km/h (0 Bft)
04.10.2016 02:31 7,2 C 7,3 C 95 % 1026,3 hPa 0,0 mm 0,0 km/h (0 Bft) S-SO 161 0 min 0,000 mm 0,0 UV-I 0 W/m 6,5 C 0,0 km/h (0 Bft)
04.10.2016 02:32 7,3 C 7,3 C 95 % 1026,3 hPa 0,0 mm 0,0 km/h (0 Bft) S-SO 161 0 min 0,000 mm 0,0 UV-I 0 W/m 6,6 C 0,0 km/h (0 Bft)
04.10.2016 02:33 7,2 C 7,3 C 95 % 1026,3 hPa 0,0 mm 0,0 km/h (0 Bft) S-SO 161 0 min 0,000 mm 0,0 UV-I 0 W/m 6,5 C 0,0 km/h (0 Bft)
04.10.2016 02:34 7,2 C 7,2 C 95 % 1026,3 hPa 0,0 mm 0,0 km/h (0 Bft) S-SO 161 0 min 0,000 mm 0,0 UV-I 0 W/m 6,5 C 0,0 km/h (0 Bft)
04.10.2016 02:35 7,2 C 7,3 C 95 % 1026,3 hPa 0,0 mm 0,0 km/h (0 Bft) S-SO 161 0 min 0,000 mm 0,0 UV-I 0 W/m 6,5 C 0,0 km/h (0 Bft)
04.10.2016 02:36 7,2 C 7,2 C 95 % 1026,3 hPa 0,0 mm 0,0 km/h (0 Bft) S-SO 161 0 min 0,000 mm 0,0 UV-I 0 W/m 6,5 C 0,0 km/h (0 Bft)
04.10.2016 02:37 7,2 C 7,2 C 95 % 1026,3 hPa 0,0 mm 0,0 km/h (0 Bft) S-SO 161 0 min 0,000 mm 0,0 UV-I 0 W/m 6,5 C 0,0 km/h (0 Bft)
04.10.2016 02:38 7,2 C 7,2 C 95 % 1026,3 hPa 0,0 mm 0,0 km/h (0 Bft) S-SO 161 0 min 0,000 mm 0,0 UV-I 0 W/m 6,5 C 0,0 km/h (0 Bft)
04.10.2016 02:39 7,2 C 7,2 C 95 % 1026,3 hPa 0,0 mm 0,0 km/h (0 Bft) S-SO 161 0 min 0,000 mm 0,0 UV-I 0 W/m 6,5 C 0,0 km/h (0 Bft)
04.10.2016 02:40 7,2 C 7,2 C 95 % 1026,3 hPa 0,0 mm 0,0 km/h (0 Bft) S-SO 161 0 min 0,000 mm 0,0 UV-I 0 W/m 6,5 C 0,0 km/h (0 Bft)
04.10.2016 02:41 7,2 C 7,2 C 95 % 1026,3 hPa 0,0 mm 0,0 km/h (0 Bft) S-SO 161 0 min 0,000 mm 0,0 UV-I 0 W/m 6,5 C 0,0 km/h (0 Bft)
04.10.2016 02:42 7,2 C 7,2 C 95 % 1026,4 hPa 0,0 mm 0,0 km/h (0 Bft) S-SO 161 0 min 0,000 mm 0,0 UV-I 0 W/m 6,5 C 0,0 km/h (0 Bft)
04.10.2016 02:43 7,2 C 7,2 C 95 % 1026,3 hPa 0,0 mm 0,0 km/h (0 Bft) S-SO 161 0 min 0,000 mm 0,0 UV-I 0 W/m 6,5 C 0,0 km/h (0 Bft)
04.10.2016 02:44 7,2 C 7,2 C 95 % 1026,3 hPa 0,0 mm 0,0 km/h (0 Bft) S-SO 161 0 min 0,000 mm 0,0 UV-I 0 W/m 6,5 C 0,0 km/h (0 Bft)
04.10.2016 02:45 7,2 C 7,2 C 95 % 1026,3 hPa 0,0 mm 0,0 km/h (0 Bft) S-SO 161 0 min 0,000 mm 0,0 UV-I 0 W/m 6,5 C 0,0 km/h (0 Bft)
04.10.2016 02:46 7,2 C 7,2 C 95 % 1026,3 hPa 0,0 mm 0,0 km/h (0 Bft) S-SO 161 0 min 0,000 mm 0,0 UV-I 0 W/m 6,5 C 0,0 km/h (0 Bft)
04.10.2016 02:47 7,2 C 7,2 C 95 % 1026,3 hPa 0,0 mm 0,0 km/h (0 Bft) S-SO 161 0 min 0,000 mm 0,0 UV-I 0 W/m 6,5 C 0,0 km/h (0 Bft)
04.10.2016 02:48 7,2 C 7,2 C 95 % 1026,3 hPa 0,0 mm 0,0 km/h (0 Bft) S-SO 161 0 min 0,000 mm 0,0 UV-I 0 W/m 6,5 C 0,0 km/h (0 Bft)
04.10.2016 02:49 7,2 C 7,2 C 95 % 1026,3 hPa 0,2 mm 0,0 km/h (0 Bft) S-SO 161 0 min 0,000 mm 0,0 UV-I 0 W/m 6,5 C 0,0 km/h (0 Bft)
04.10.2016 02:50 7,2 C 7,2 C 95 % 1026,3 hPa 0,0 mm 0,0 km/h (0 Bft) S-SO 161 0 min 0,000 mm 0,0 UV-I 0 W/m 6,5 C 0,0 km/h (0 Bft)
04.10.2016 02:51 7,2 C 7,2 C 95 % 1026,4 hPa 0,0 mm 0,0 km/h (0 Bft) S-SO 161 0 min 0,000 mm 0,0 UV-I 0 W/m 6,5 C 0,0 km/h (0 Bft)
04.10.2016 02:52 7,2 C 7,2 C 95 % 1026,4 hPa 0,0 mm 0,0 km/h (0 Bft) S-SO 161 0 min 0,000 mm 0,0 UV-I 0 W/m 6,5 C 0,0 km/h (0 Bft)
04.10.2016 02:53 7,2 C 7,2 C 95 % 1026,3 hPa 0,0 mm 0,0 km/h (0 Bft) S-SO 161 0 min 0,000 mm 0,0 UV-I 0 W/m 6,5 C 0,0 km/h (0 Bft)
04.10.2016 02:54 7,2 C 7,2 C 95 % 1026,3 hPa 0,0 mm 0,0 km/h (0 Bft) S-SO 161 0 min 0,000 mm 0,0 UV-I 0 W/m 6,5 C 0,0 km/h (0 Bft)
04.10.2016 02:55 7,2 C 7,2 C 95 % 1026,4 hPa 0,0 mm 0,0 km/h (0 Bft) S-SO 161 0 min 0,000 mm 0,0 UV-I 0 W/m 6,5 C 0,0 km/h (0 Bft)
04.10.2016 02:56 7,2 C 7,2 C 95 % 1026,3 hPa 0,0 mm 0,0 km/h (0 Bft) S-SO 161 0 min 0,000 mm 0,0 UV-I 0 W/m 6,5 C 0,0 km/h (0 Bft)
04.10.2016 02:57 7,2 C 7,2 C 95 % 1026,3 hPa 0,0 mm 0,0 km/h (0 Bft) S-SO 161 0 min 0,000 mm 0,0 UV-I 0 W/m 6,5 C 0,0 km/h (0 Bft)
04.10.2016 02:58 7,2 C 7,2 C 95 % 1026,3 hPa 0,0 mm 0,0 km/h (0 Bft) S-SO 161 0 min 0,000 mm 0,0 UV-I 0 W/m 6,5 C 0,0 km/h (0 Bft)
04.10.2016 02:59 7,2 C 7,2 C 95 % 1026,4 hPa 0,0 mm 0,0 km/h (0 Bft) S-SO 161 0 min 0,000 mm 0,0 UV-I 0 W/m 6,5 C 0,0 km/h (0 Bft)
04.10.2016 03:00 7,2 C 7,2 C 95 % 1026,3 hPa 0,0 mm 0,0 km/h (0 Bft) S-SO 161 0 min 0,000 mm 0,0 UV-I 0 W/m 6,5 C 0,0 km/h (0 Bft)
04.10.2016 03:01 7,2 C 7,2 C 95 % 1026,4 hPa 0,0 mm 0,0 km/h (0 Bft) S-SO 161 0 min 0,000 mm 0,0 UV-I 0 W/m 6,5 C 0,0 km/h (0 Bft)
04.10.2016 03:02 7,2 C 7,2 C 95 % 1026,3 hPa 0,0 mm 0,0 km/h (0 Bft) S-SO 161 0 min 0,000 mm 0,0 UV-I 0 W/m 6,5 C 0,0 km/h (0 Bft)
04.10.2016 03:03 7,2 C 7,2 C 95 % 1026,3 hPa 0,0 mm 0,0 km/h (0 Bft) S-SO 161 0 min 0,000 mm 0,0 UV-I 0 W/m 6,5 C 0,0 km/h (0 Bft)
04.10.2016 03:04 7,2 C 7,2 C 95 % 1026,4 hPa 0,0 mm 0,0 km/h (0 Bft) S-SO 161 0 min 0,000 mm 0,0 UV-I 0 W/m 6,5 C 0,0 km/h (0 Bft)
04.10.2016 03:05 7,2 C 7,2 C 95 % 1026,3 hPa 0,2 mm 0,0 km/h (0 Bft) S-SO 161 0 min 0,000 mm 0,0 UV-I 0 W/m 6,5 C 0,0 km/h (0 Bft)
04.10.2016 03:06 7,2 C 7,3 C 95 % 1026,3 hPa 0,0 mm 0,0 km/h (0 Bft) S-SO 161 0 min 0,000 mm 0,0 UV-I 0 W/m 6,5 C 0,0 km/h (0 Bft)
04.10.2016 03:07 7,3 C 7,3 C 95 % 1026,3 hPa 0,2 mm 0,0 km/h (0 Bft) S-SO 161 0 min 0,000 mm 0,0 UV-I 0 W/m 6,6 C 0,0 km/h (0 Bft)
04.10.2016 03:08 7,3 C 7,3 C 95 % 1026,3 hPa 0,2 mm 0,0 km/h (0 Bft) S-SO 161 0 min 0,000 mm 0,0 UV-I 0 W/m 6,6 C 0,0 km/h (0 Bft)
04.10.2016 03:09 7,3 C 7,3 C 95 % 1026,3 hPa 0,2 mm 0,0 km/h (0 Bft) S-SO 161 0 min 0,000 mm 0,0 UV-I 0 W/m 6,6 C 0,0 km/h (0 Bft)
04.10.2016 03:10 7,3 C 7,3 C 95 % 1026,3 hPa 0,2 mm 0,0 km/h (0 Bft) S-SO 161 0 min 0,000 mm 0,0 UV-I 0 W/m 6,6 C 0,0 km/h (0 Bft)
04.10.2016 03:11 7,2 C 7,3 C 95 % 1026,3 hPa 0,2 mm 0,0 km/h (0 Bft) S-SO 161 0 min 0,000 mm 0,0 UV-I 0 W/m 6,5 C 0,0 km/h (0 Bft)
04.10.2016 03:12 7,2 C 7,2 C 95 % 1026,2 hPa 0,2 mm 0,0 km/h (0 Bft) S-SO 161 0 min 0,000 mm 0,0 UV-I 0 W/m 6,5 C 0,0 km/h (0 Bft)
04.10.2016 03:13 7,2 C 7,2 C 95 % 1026,3 hPa 0,0 mm 0,0 km/h (0 Bft) S-SO 161 0 min 0,000 mm 0,0 UV-I 0 W/m 6,5 C 0,0 km/h (0 Bft)
04.10.2016 03:14 7,2 C 7,2 C 95 % 1026,2 hPa 0,0 mm 0,0 km/h (0 Bft) S-SO 161 0 min 0,000 mm 0,0 UV-I 0 W/m 6,5 C 0,0 km/h (0 Bft)
04.10.2016 03:15 7,2 C 7,2 C 95 % 1026,2 hPa 0,0 mm 0,0 km/h (0 Bft) S-SO 161 0 min 0,000 mm 0,0 UV-I 0 W/m 6,5 C 0,0 km/h (0 Bft)
04.10.2016 03:16 7,2 C 7,2 C 95 % 1026,2 hPa 0,0 mm 0,0 km/h (0 Bft) S-SO 161 0 min 0,000 mm 0,0 UV-I 0 W/m 6,5 C 0,0 km/h (0 Bft)
04.10.2016 03:17 7,2 C 7,2 C 95 % 1026,3 hPa 0,0 mm 0,5 km/h (0 Bft) S-SO 161 0 min 0,000 mm 0,0 UV-I 0 W/m 6,5 C 1,6 km/h (1 Bft)
04.10.2016 03:18 7,2 C 7,2 C 95 % 1026,3 hPa 0,0 mm 1,4 km/h (1 Bft) S-SO 161 0 min 0,000 mm 0,0 UV-I 0 W/m 6,5 C 3,2 km/h (1 Bft)
04.10.2016 03:19 7,2 C 7,2 C 95 % 1026,2 hPa 0,2 mm 1,2 km/h (1 Bft) S-SO 161 0 min 0,000 mm 0,0 UV-I 0 W/m 6,5 C 1,6 km/h (1 Bft)
04.10.2016 03:20 7,2 C 7,2 C 95 % 1026,1 hPa 0,0 mm 1,3 km/h (1 Bft) S-SO 161 0 min 0,000 mm 0,0 UV-I 0 W/m 6,5 C 1,6 km/h (1 Bft)
04.10.2016 03:21 7,2 C 7,2 C 95 % 1026,2 hPa 0,0 mm 0,8 km/h (0 Bft) S-SO 161 0 min 0,000 mm 0,0 UV-I 0 W/m 6,5 C 1,6 km/h (1 Bft)
04.10.2016 03:22 7,2 C 7,2 C 95 % 1026,2 hPa 0,0 mm 1,3 km/h (1 Bft) S-SO 161 0 min 0,000 mm 0,0 UV-I 0 W/m 6,5 C 1,6 km/h (1 Bft)
04.10.2016 03:23 7,2 C 7,2 C 95 % 1026,1 hPa 0,0 mm 1,9 km/h (1 Bft) S-SO 161 0 min 0,000 mm 0,0 UV-I 0 W/m 6,5 C 3,2 km/h (1 Bft)
04.10.2016 03:24 7,2 C 7,2 C 95 % 1026,1 hPa 0,0 mm 1,7 km/h (1 Bft) S-SO 161 0 min 0,000 mm 0,0 UV-I 0 W/m 6,5 C 3,2 km/h (1 Bft)
04.10.2016 03:25 7,2 C 7,2 C 95 % 1026,1 hPa 0,0 mm 2,3 km/h (1 Bft) S-SO 161 0 min 0,000 mm 0,0 UV-I 0 W/m 6,5 C 3,2 km/h (1 Bft)
04.10.2016 03:26 7,2 C 7,2 C 95 % 1026,1 hPa 0,0 mm 2,0 km/h (1 Bft) S-SO 161 0 min 0,000 mm 0,0 UV-I 0 W/m 6,5 C 3,2 km/h (1 Bft)
04.10.2016 03:27 7,2 C 7,2 C 95 % 1026,1 hPa 0,0 mm 1,5 km/h (1 Bft) S-SO 161 0 min 0,000 mm 0,0 UV-I 0 W/m 6,5 C 1,6 km/h (1 Bft)
04.10.2016 03:28 7,2 C 7,2 C 95 % 1026,1 hPa 0,0 mm 2,3 km/h (1 Bft) S-SO 161 0 min 0,000 mm 0,0 UV-I 0 W/m 6,5 C 3,2 km/h (1 Bft)
04.10.2016 03:29 7,2 C 7,2 C 95 % 1026,1 hPa 0,0 mm 1,5 km/h (1 Bft) S-SO 161 0 min 0,000 mm 0,0 UV-I 0 W/m 6,5 C 1,6 km/h (1 Bft)
04.10.2016 03:30 7,2 C 7,2 C 95 % 1026,1 hPa 0,0 mm 0,5 km/h (0 Bft) S-SO 161 0 min 0,000 mm 0,0 UV-I 0 W/m 6,5 C 1,6 km/h (1 Bft)
04.10.2016 03:31 7,2 C 7,2 C 95 % 1026,1 hPa 0,0 mm 0,5 km/h (0 Bft) S-SO 161 0 min 0,000 mm 0,0 UV-I 0 W/m 6,5 C 1,6 km/h (1 Bft)
04.10.2016 03:32 7,2 C 7,2 C 95 % 1026,1 hPa 0,0 mm 0,3 km/h (0 Bft) S-SO 161 0 min 0,000 mm 0,0 UV-I 0 W/m 6,5 C 1,6 km/h (1 Bft)
04.10.2016 03:33 7,2 C 7,2 C 95 % 1026,1 hPa 0,0 mm 0,4 km/h (0 Bft) S-SO 161 0 min 0,000 mm 0,0 UV-I 0 W/m 6,5 C 1,6 km/h (1 Bft)
04.10.2016 03:34 7,2 C 7,2 C 95 % 1026,1 hPa 0,0 mm 0,9 km/h (0 Bft) S-SO 161 0 min 0,000 mm 0,0 UV-I 0 W/m 6,5 C 1,6 km/h (1 Bft)
04.10.2016 03:35 7,2 C 7,2 C 95 % 1026,1 hPa 0,0 mm 1,1 km/h (1 Bft) S-SO 161 0 min 0,000 mm 0,0 UV-I 0 W/m 6,5 C 1,6 km/h (1 Bft)
04.10.2016 03:36 7,2 C 7,2 C 95 % 1026,1 hPa 0,0 mm 0,8 km/h (0 Bft) S-SO 161 0 min 0,000 mm 0,0 UV-I 0 W/m 6,5 C 1,6 km/h (1 Bft)
04.10.2016 03:37 7,2 C 7,2 C 95 % 1026,1 hPa 0,0 mm 0,3 km/h (0 Bft) S-SO 161 0 min 0,000 mm 0,0 UV-I 0 W/m 6,5 C 1,6 km/h (1 Bft)
04.10.2016 03:38 7,2 C 7,2 C 95 % 1026,1 hPa 0,0 mm 0,1 km/h (0 Bft) S-SO 161 0 min 0,000 mm 0,0 UV-I 0 W/m 6,5 C 1,6 km/h (1 Bft)
04.10.2016 03:39 7,2 C 7,2 C 95 % 1026,1 hPa 0,0 mm 0,0 km/h (0 Bft) S-SO 161 0 min 0,000 mm 0,0 UV-I 0 W/m 6,5 C 0,0 km/h (0 Bft)
04.10.2016 03:40 7,2 C 7,2 C 95 % 1026,1 hPa 0,0 mm 0,0 km/h (0 Bft) S-SO 161 0 min 0,000 mm 0,0 UV-I 0 W/m 6,5 C 0,0 km/h (0 Bft)
04.10.2016 03:41 7,2 C 7,2 C 95 % 1026,1 hPa 0,0 mm 0,0 km/h (0 Bft) S-SO 161 0 min 0,000 mm 0,0 UV-I 0 W/m 6,5 C 0,0 km/h (0 Bft)
04.10.2016 03:42 7,2 C 7,2 C 95 % 1026,2 hPa 0,0 mm 0,0 km/h (0 Bft) S-SO 161 0 min 0,000 mm 0,0 UV-I 0 W/m 6,5 C 0,0 km/h (0 Bft)
04.10.2016 03:43 7,2 C 7,2 C 95 % 1026,2 hPa 0,0 mm 0,0 km/h (0 Bft) S-SO 161 0 min 0,000 mm 0,0 UV-I 0 W/m 6,5 C 0,0 km/h (0 Bft)
04.10.2016 03:44 7,2 C 7,2 C 95 % 1026,1 hPa 0,0 mm 0,5 km/h (0 Bft) S-SO 161 0 min 0,000 mm 0,0 UV-I 0 W/m 6,5 C 1,6 km/h (1 Bft)
04.10.2016 03:45 7,2 C 7,2 C 95 % 1026,1 hPa 0,0 mm 0,0 km/h (0 Bft) S-SO 161 0 min 0,000 mm 0,0 UV-I 0 W/m 6,5 C 0,0 km/h (0 Bft)
04.10.2016 03:46 7,2 C 7,2 C 95 % 1026,1 hPa 0,0 mm 0,1 km/h (0 Bft) S-SO 161 0 min 0,000 mm 0,0 UV-I 0 W/m 6,5 C 1,6 km/h (1 Bft)
04.10.2016 03:47 7,2 C 7,2 C 95 % 1026,1 hPa 0,0 mm 0,5 km/h (0 Bft) S-SO 161 0 min 0,000 mm 0,0 UV-I 0 W/m 6,5 C 1,6 km/h (1 Bft)
04.10.2016 03:48 7,2 C 7,2 C 95 % 1026,1 hPa 0,0 mm 0,1 km/h (0 Bft) S-SO 161 0 min 0,000 mm 0,0 UV-I 0 W/m 6,5 C 1,6 km/h (1 Bft)
04.10.2016 03:49 7,2 C 7,2 C 95 % 1026,1 hPa 0,0 mm 0,1 km/h (0 Bft) S-SO 161 0 min 0,000 mm 0,0 UV-I 0 W/m 6,5 C 1,6 km/h (1 Bft)
04.10.2016 03:50 7,2 C 7,2 C 95 % 1026,1 hPa 0,0 mm 0,6 km/h (0 Bft) S-SO 161 0 min 0,000 mm 0,0 UV-I 0 W/m 6,5 C 1,6 km/h (1 Bft)
04.10.2016 03:51 7,2 C 7,2 C 95 % 1026,1 hPa 0,0 mm 0,8 km/h (0 Bft) S-SO 161 0 min 0,000 mm 0,0 UV-I 0 W/m 6,5 C 1,6 km/h (1 Bft)
04.10.2016 03:52 7,2 C 7,2 C 95 % 1026,1 hPa 0,0 mm 1,8 km/h (1 Bft) S-SO 161 0 min 0,000 mm 0,0 UV-I 0 W/m 6,5 C 3,2 km/h (1 Bft)
04.10.2016 03:53 7,2 C 7,2 C 95 % 1026,1 hPa 0,0 mm 2,2 km/h (1 Bft) S-SO 161 0 min 0,000 mm 0,0 UV-I 0 W/m 6,5 C 3,2 km/h (1 Bft)
04.10.2016 03:54 7,2 C 7,2 C 95 % 1026,1 hPa 0,0 mm 1,1 km/h (1 Bft) S-SO 161 0 min 0,000 mm 0,0 UV-I 0 W/m 6,5 C 1,6 km/h (1 Bft)
04.10.2016 03:55 7,2 C 7,2 C 95 % 1026,1 hPa 0,0 mm 0,8 km/h (0 Bft) S-SO 161 0 min 0,000 mm 0,0 UV-I 0 W/m 6,5 C 1,6 km/h (1 Bft)
04.10.2016 03:56 7,2 C 7,2 C 95 % 1026,1 hPa 0,0 mm 0,3 km/h (0 Bft) S-SO 161 0 min 0,000 mm 0,0 UV-I 0 W/m 6,5 C 1,6 km/h (1 Bft)
04.10.2016 03:57 7,1 C 7,2 C 95 % 1026,1 hPa 0,0 mm 0,0 km/h (0 Bft) S-SO 161 0 min 0,000 mm 0,0 UV-I 0 W/m 6,4 C 0,0 km/h (0 Bft)
04.10.2016 03:58 7,1 C 7,2 C 95 % 1026,1 hPa 0,0 mm 0,0 km/h (0 Bft) S-SO 161 0 min 0,000 mm 0,0 UV-I 0 W/m 6,4 C 0,0 km/h (0 Bft)
04.10.2016 03:59 7,1 C 7,1 C 95 % 1026,1 hPa 0,0 mm 0,0 km/h (0 Bft) S-SO 161 0 min 0,000 mm 0,0 UV-I 0 W/m 6,4 C 0,0 km/h (0 Bft)
04.10.2016 04:00 7,1 C 7,1 C 95 % 1026,1 hPa 0,0 mm 0,0 km/h (0 Bft) S-SO 161 0 min 0,000 mm 0,0 UV-I 0 W/m 6,4 C 0,0 km/h (0 Bft)
04.10.2016 04:01 7,1 C 7,1 C 95 % 1026,1 hPa 0,0 mm 0,0 km/h (0 Bft) S-SO 161 0 min 0,000 mm 0,0 UV-I 0 W/m 6,4 C 0,0 km/h (0 Bft)
04.10.2016 04:02 7,1 C 7,1 C 95 % 1026,1 hPa 0,0 mm 0,0 km/h (0 Bft) S-SO 161 0 min 0,000 mm 0,0 UV-I 0 W/m 6,4 C 0,0 km/h (0 Bft)
04.10.2016 04:03 7,1 C 7,1 C 95 % 1026,1 hPa 0,0 mm 0,0 km/h (0 Bft) S-SO 161 0 min 0,000 mm 0,0 UV-I 0 W/m 6,4 C 0,0 km/h (0 Bft)
04.10.2016 04:04 7,1 C 7,1 C 95 % 1026,2 hPa 0,0 mm 0,0 km/h (0 Bft) S-SO 161 0 min 0,000 mm 0,0 UV-I 0 W/m 6,4 C 0,0 km/h (0 Bft)
04.10.2016 04:05 7,1 C 7,1 C 95 % 1026,2 hPa 0,0 mm 0,0 km/h (0 Bft) S-SO 161 0 min 0,000 mm 0,0 UV-I 0 W/m 6,4 C 0,0 km/h (0 Bft)
04.10.2016 04:06 7,1 C 7,1 C 95 % 1026,2 hPa 0,0 mm 0,1 km/h (0 Bft) S-SO 161 0 min 0,000 mm 0,0 UV-I 0 W/m 6,4 C 1,6 km/h (1 Bft)
04.10.2016 04:07 7,1 C 7,1 C 95 % 1026,2 hPa 0,0 mm 0,3 km/h (0 Bft) S-SO 161 0 min 0,000 mm 0,0 UV-I 0 W/m 6,4 C 1,6 km/h (1 Bft)
04.10.2016 04:08 7,1 C 7,1 C 95 % 1026,2 hPa 0,0 mm 0,4 km/h (0 Bft) S-SO 161 0 min 0,000 mm 0,0 UV-I 0 W/m 6,4 C 1,6 km/h (1 Bft)
04.10.2016 04:09 7,2 C 7,2 C 95 % 1026,2 hPa 0,0 mm 0,3 km/h (0 Bft) S-SO 161 0 min 0,000 mm 0,0 UV-I 0 W/m 6,5 C 1,6 km/h (1 Bft)
04.10.2016 04:10 7,2 C 7,2 C 95 % 1026,2 hPa 0,0 mm 0,5 km/h (0 Bft) S-SO 161 0 min 0,000 mm 0,0 UV-I 0 W/m 6,5 C 1,6 km/h (1 Bft)
04.10.2016 04:11 7,2 C 7,2 C 95 % 1026,2 hPa 0,0 mm 0,8 km/h (0 Bft) S-SO 161 0 min 0,000 mm 0,0 UV-I 0 W/m 6,5 C 1,6 km/h (1 Bft)
04.10.2016 04:12 7,2 C 7,2 C 95 % 1026,2 hPa 0,0 mm 0,8 km/h (0 Bft) S-SO 161 0 min 0,000 mm 0,0 UV-I 0 W/m 6,5 C 1,6 km/h (1 Bft)
04.10.2016 04:13 7,2 C 7,2 C 95 % 1026,2 hPa 0,0 mm 0,5 km/h (0 Bft) S-SO 161 0 min 0,000 mm 0,0 UV-I 0 W/m 6,5 C 1,6 km/h (1 Bft)
04.10.2016 04:14 7,2 C 7,2 C 95 % 1026,2 hPa 0,0 mm 0,3 km/h (0 Bft) S-SO 161 0 min 0,000 mm 0,0 UV-I 0 W/m 6,5 C 1,6 km/h (1 Bft)
04.10.2016 04:15 7,2 C 7,2 C 95 % 1026,2 hPa 0,0 mm 0,8 km/h (0 Bft) O-NO 77 0 min 0,000 mm 0,0 UV-I 0 W/m 6,5 C 3,2 km/h (1 Bft)
04.10.2016 04:16 7,2 C 7,2 C 95 % 1026,2 hPa 0,0 mm 1,1 km/h (1 Bft) O-NO 77 0 min 0,000 mm 0,0 UV-I 0 W/m 6,5 C 3,2 km/h (1 Bft)
04.10.2016 04:17 7,2 C 7,2 C 95 % 1026,2 hPa 0,0 mm 0,2 km/h (0 Bft) O-NO 77 0 min 0,000 mm 0,0 UV-I 0 W/m 6,5 C 1,6 km/h (1 Bft)
04.10.2016 04:18 7,2 C 7,2 C 95 % 1026,2 hPa 0,0 mm 0,5 km/h (0 Bft) O-NO 77 0 min 0,000 mm 0,0 UV-I 0 W/m 6,5 C 1,6 km/h (1 Bft)
04.10.2016 04:19 7,2 C 7,2 C 95 % 1026,2 hPa 0,0 mm 0,4 km/h (0 Bft) O-NO 77 0 min 0,000 mm 0,0 UV-I 0 W/m 6,5 C 1,6 km/h (1 Bft)
04.10.2016 04:20 7,2 C 7,2 C 95 % 1026,3 hPa 0,0 mm 0,9 km/h (0 Bft) O-NO 77 0 min 0,000 mm 0,0 UV-I 0 W/m 6,5 C 1,6 km/h (1 Bft)
04.10.2016 04:21 7,3 C 7,3 C 95 % 1026,2 hPa 0,0 mm 0,6 km/h (0 Bft) O-NO 77 0 min 0,000 mm 0,0 UV-I 0 W/m 6,6 C 1,6 km/h (1 Bft)
04.10.2016 04:22 7,3 C 7,3 C 95 % 1026,2 hPa 0,0 mm 1,8 km/h (1 Bft) NO 40 0 min 0,000 mm 0,0 UV-I 0 W/m 6,6 C 3,2 km/h (1 Bft)
04.10.2016 04:23 7,3 C 7,3 C 95 % 1026,3 hPa 0,0 mm 2,3 km/h (1 Bft) NO 38 0 min 0,000 mm 0,0 UV-I 0 W/m 6,6 C 4,8 km/h (1 Bft)
04.10.2016 04:24 7,3 C 7,3 C 95 % 1026,2 hPa 0,0 mm 2,7 km/h (1 Bft) NO 38 0 min 0,000 mm 0,0 UV-I 0 W/m 6,6 C 3,2 km/h (1 Bft)
04.10.2016 04:25 7,3 C 7,3 C 95 % 1026,2 hPa 0,0 mm 1,9 km/h (1 Bft) NO 38 0 min 0,000 mm 0,0 UV-I 0 W/m 6,6 C 3,2 km/h (1 Bft)
04.10.2016 04:26 7,3 C 7,3 C 95 % 1026,2 hPa 0,0 mm 3,1 km/h (1 Bft) N-NO 16 0 min 0,000 mm 0,0 UV-I 0 W/m 6,6 C 4,8 km/h (1 Bft)
04.10.2016 04:27 7,3 C 7,3 C 95 % 1026,3 hPa 0,0 mm 1,9 km/h (1 Bft) N-NO 16 0 min 0,000 mm 0,0 UV-I 0 W/m 6,6 C 3,2 km/h (1 Bft)
04.10.2016 04:28 7,3 C 7,3 C 95 % 1026,3 hPa 0,0 mm 3,9 km/h (1 Bft) N 355 0 min 0,000 mm 0,0 UV-I 0 W/m 6,6 C 4,8 km/h (1 Bft)
04.10.2016 04:29 7,2 C 7,3 C 95 % 1026,3 hPa 0,0 mm 5,0 km/h (1 Bft) N 11 0 min 0,000 mm 0,0 UV-I 0 W/m 6,5 C 6,4 km/h (2 Bft)
04.10.2016 04:30 7,2 C 7,2 C 95 % 1026,3 hPa 0,0 mm 2,9 km/h (1 Bft) N-NW 344 0 min 0,000 mm 0,0 UV-I 0 W/m 6,5 C 4,8 km/h (1 Bft)
04.10.2016 04:31 7,2 C 7,2 C 95 % 1026,3 hPa 0,0 mm 2,7 km/h (1 Bft) N 350 0 min 0,000 mm 0,0 UV-I 0 W/m 6,5 C 3,2 km/h (1 Bft)
04.10.2016 04:32 7,2 C 7,2 C 95 % 1026,2 hPa 0,0 mm 0,1 km/h (0 Bft) N 350 0 min 0,000 mm 0,0 UV-I 0 W/m 6,5 C 1,6 km/h (1 Bft)
04.10.2016 04:33 7,2 C 7,2 C 95 % 1026,2 hPa 0,0 mm 3,2 km/h (1 Bft) N 355 0 min 0,000 mm 0,0 UV-I 0 W/m 6,5 C 4,8 km/h (1 Bft)
04.10.2016 04:34 7,2 C 7,2 C 94 % 1026,2 hPa 0,0 mm 2,8 km/h (1 Bft) N 355 0 min 0,000 mm 0,0 UV-I 0 W/m 6,3 C 3,2 km/h (1 Bft)
04.10.2016 04:35 7,2 C 7,2 C 95 % 1026,2 hPa 0,0 mm 3,0 km/h (1 Bft) N-NW 332 0 min 0,000 mm 0,0 UV-I 0 W/m 6,5 C 4,8 km/h (1 Bft)
04.10.2016 04:36 7,2 C 7,2 C 95 % 1026,2 hPa 0,0 mm 3,0 km/h (1 Bft) N-NW 329 0 min 0,000 mm 0,0 UV-I 0 W/m 6,5 C 4,8 km/h (1 Bft)
04.10.2016 04:37 7,2 C 7,2 C 94 % 1026,2 hPa 0,0 mm 2,0 km/h (1 Bft) N-NW 329 0 min 0,000 mm 0,0 UV-I 0 W/m 6,3 C 3,2 km/h (1 Bft)
04.10.2016 04:38 7,2 C 7,2 C 94 % 1026,3 hPa 0,0 mm 0,5 km/h (0 Bft) N-NW 329 0 min 0,000 mm 0,0 UV-I 0 W/m 6,3 C 1,6 km/h (1 Bft)
04.10.2016 04:39 7,2 C 7,2 C 94 % 1026,3 hPa 0,0 mm 0,6 km/h (0 Bft) N-NW 329 0 min 0,000 mm 0,0 UV-I 0 W/m 6,3 C 1,6 km/h (1 Bft)
04.10.2016 04:40 7,2 C 7,2 C 94 % 1026,3 hPa 0,0 mm 0,8 km/h (0 Bft) N-NW 329 0 min 0,000 mm 0,0 UV-I 0 W/m 6,3 C 1,6 km/h (1 Bft)
04.10.2016 04:41 7,2 C 7,2 C 94 % 1026,2 hPa 0,0 mm 0,8 km/h (0 Bft) N-NW 329 0 min 0,000 mm 0,0 UV-I 0 W/m 6,3 C 1,6 km/h (1 Bft)
04.10.2016 04:42 7,2 C 7,2 C 94 % 1026,2 hPa 0,0 mm 0,9 km/h (0 Bft) N-NW 329 0 min 0,000 mm 0,0 UV-I 0 W/m 6,3 C 1,6 km/h (1 Bft)
04.10.2016 04:43 7,2 C 7,2 C 94 % 1026,2 hPa 0,0 mm 2,5 km/h (1 Bft) N-NW 336 0 min 0,000 mm 0,0 UV-I 0 W/m 6,3 C 3,2 km/h (1 Bft)
04.10.2016 04:44 7,2 C 7,2 C 94 % 1026,3 hPa 0,0 mm 3,2 km/h (1 Bft) N-NW 340 0 min 0,000 mm 0,0 UV-I 0 W/m 6,3 C 4,8 km/h (1 Bft)
04.10.2016 04:45 7,2 C 7,2 C 94 % 1026,3 hPa 0,0 mm 1,7 km/h (1 Bft) N-NW 340 0 min 0,000 mm 0,0 UV-I 0 W/m 6,3 C 3,2 km/h (1 Bft)
04.10.2016 04:46 7,2 C 7,2 C 94 % 1026,3 hPa 0,0 mm 1,1 km/h (1 Bft) N-NW 340 0 min 0,000 mm 0,0 UV-I 0 W/m 6,3 C 3,2 km/h (1 Bft)
04.10.2016 04:47 7,2 C 7,2 C 94 % 1026,3 hPa 0,0 mm 1,7 km/h (1 Bft) N-NW 340 0 min 0,000 mm 0,0 UV-I 0 W/m 6,3 C 3,2 km/h (1 Bft)
04.10.2016 04:48 7,2 C 7,2 C 94 % 1026,3 hPa 0,0 mm 0,6 km/h (0 Bft) N-NW 340 0 min 0,000 mm 0,0 UV-I 0 W/m 6,3 C 1,6 km/h (1 Bft)
04.10.2016 04:49 7,2 C 7,2 C 94 % 1026,3 hPa 0,0 mm 1,4 km/h (1 Bft) N-NW 340 0 min 0,000 mm 0,0 UV-I 0 W/m 6,3 C 3,2 km/h (1 Bft)
04.10.2016 04:50 7,2 C 7,2 C 94 % 1026,3 hPa 0,0 mm 2,0 km/h (1 Bft) N-NW 340 0 min 0,000 mm 0,0 UV-I 0 W/m 6,3 C 3,2 km/h (1 Bft)
04.10.2016 04:51 7,2 C 7,2 C 94 % 1026,3 hPa 0,0 mm 1,2 km/h (1 Bft) N-NW 340 0 min 0,000 mm 0,0 UV-I 0 W/m 6,3 C 1,6 km/h (1 Bft)
04.10.2016 04:52 7,2 C 7,2 C 94 % 1026,3 hPa 0,0 mm 1,6 km/h (1 Bft) N-NW 340 0 min 0,000 mm 0,0 UV-I 0 W/m 6,3 C 3,2 km/h (1 Bft)
04.10.2016 04:53 7,2 C 7,2 C 94 % 1026,3 hPa 0,0 mm 2,5 km/h (1 Bft) N-NW 340 0 min 0,000 mm 0,0 UV-I 0 W/m 6,3 C 3,2 km/h (1 Bft)
04.10.2016 04:54 7,2 C 7,2 C 94 % 1026,3 hPa 0,0 mm 2,4 km/h (1 Bft) N-NW 340 0 min 0,000 mm 0,0 UV-I 0 W/m 6,3 C 3,2 km/h (1 Bft)
04.10.2016 04:55 7,2 C 7,2 C 94 % 1026,4 hPa 0,0 mm 2,3 km/h (1 Bft) N-NW 340 0 min 0,000 mm 0,0 UV-I 0 W/m 6,3 C 3,2 km/h (1 Bft)
04.10.2016 04:56 7,2 C 7,2 C 94 % 1026,3 hPa 0,0 mm 1,0 km/h (0 Bft) N-NW 340 0 min 0,000 mm 0,0 UV-I 0 W/m 6,3 C 3,2 km/h (1 Bft)
04.10.2016 04:57 7,1 C 7,2 C 94 % 1026,3 hPa 0,0 mm 0,8 km/h (0 Bft) N-NW 340 0 min 0,000 mm 0,0 UV-I 0 W/m 6,2 C 1,6 km/h (1 Bft)
04.10.2016 04:58 7,2 C 7,2 C 94 % 1026,4 hPa 0,0 mm 0,1 km/h (0 Bft) N-NW 340 0 min 0,000 mm 0,0 UV-I 0 W/m 6,3 C 1,6 km/h (1 Bft)
04.10.2016 04:59 7,2 C 7,2 C 94 % 1026,4 hPa 0,0 mm 0,0 km/h (0 Bft) N-NW 340 0 min 0,000 mm 0,0 UV-I 0 W/m 6,3 C 0,0 km/h (0 Bft)
04.10.2016 05:00 7,2 C 7,2 C 94 % 1026,4 hPa 0,0 mm 0,3 km/h (0 Bft) N-NW 340 0 min 0,000 mm 0,0 UV-I 0 W/m 6,3 C 1,6 km/h (1 Bft)
04.10.2016 05:01 7,2 C 7,2 C 94 % 1026,4 hPa 0,0 mm 0,7 km/h (0 Bft) N-NW 340 0 min 0,000 mm 0,0 UV-I 0 W/m 6,3 C 1,6 km/h (1 Bft)
04.10.2016 05:02 7,2 C 7,2 C 94 % 1026,5 hPa 0,0 mm 0,6 km/h (0 Bft) N-NW 340 0 min 0,000 mm 0,0 UV-I 0 W/m 6,3 C 1,6 km/h (1 Bft)
04.10.2016 05:03 7,2 C 7,2 C 94 % 1026,5 hPa 0,0 mm 0,0 km/h (0 Bft) N-NW 340 0 min 0,000 mm 0,0 UV-I 0 W/m 6,3 C 0,0 km/h (0 Bft)
04.10.2016 05:04 7,2 C 7,2 C 94 % 1026,5 hPa 0,0 mm 0,0 km/h (0 Bft) N-NW 340 0 min 0,000 mm 0,0 UV-I 0 W/m 6,3 C 0,0 km/h (0 Bft)
04.10.2016 05:05 7,2 C 7,2 C 94 % 1026,5 hPa 0,0 mm 0,0 km/h (0 Bft) N-NW 340 0 min 0,000 mm 0,0 UV-I 0 W/m 6,3 C 0,0 km/h (0 Bft)
04.10.2016 05:06 7,2 C 7,2 C 94 % 1026,5 hPa 0,0 mm 0,3 km/h (0 Bft) N-NW 340 0 min 0,000 mm 0,0 UV-I 0 W/m 6,3 C 3,2 km/h (1 Bft)
04.10.2016 05:07 7,2 C 7,2 C 94 % 1026,5 hPa 0,0 mm 1,7 km/h (1 Bft) N-NW 340 0 min 0,000 mm 0,0 UV-I 0 W/m 6,3 C 3,2 km/h (1 Bft)
04.10.2016 05:08 7,2 C 7,2 C 94 % 1026,5 hPa 0,0 mm 0,1 km/h (0 Bft) N-NW 340 0 min 0,000 mm 0,0 UV-I 0 W/m 6,3 C 1,6 km/h (1 Bft)
04.10.2016 05:09 7,2 C 7,2 C 94 % 1026,5 hPa 0,0 mm 0,0 km/h (0 Bft) N-NW 340 0 min 0,000 mm 0,0 UV-I 0 W/m 6,3 C 0,0 km/h (0 Bft)
04.10.2016 05:10 7,2 C 7,2 C 94 % 1026,5 hPa 0,0 mm 0,0 km/h (0 Bft) N-NW 340 0 min 0,000 mm 0,0 UV-I 0 W/m 6,3 C 0,0 km/h (0 Bft)
04.10.2016 05:11 7,2 C 7,2 C 94 % 1026,5 hPa 0,0 mm 0,0 km/h (0 Bft) N-NW 340 0 min 0,000 mm 0,0 UV-I 0 W/m 6,3 C 0,0 km/h (0 Bft)
04.10.2016 05:12 7,2 C 7,2 C 94 % 1026,5 hPa 0,0 mm 0,0 km/h (0 Bft) N-NW 340 0 min 0,000 mm 0,0 UV-I 0 W/m 6,3 C 0,0 km/h (0 Bft)
04.10.2016 05:13 7,1 C 7,2 C 94 % 1026,5 hPa 0,0 mm 0,0 km/h (0 Bft) N-NW 340 0 min 0,000 mm 0,0 UV-I 0 W/m 6,2 C 0,0 km/h (0 Bft)
04.10.2016 05:14 7,1 C 7,2 C 94 % 1026,4 hPa 0,0 mm 0,0 km/h (0 Bft) N-NW 340 0 min 0,000 mm 0,0 UV-I 0 W/m 6,2 C 0,0 km/h (0 Bft)
04.10.2016 05:15 7,1 C 7,1 C 94 % 1026,4 hPa 0,0 mm 0,0 km/h (0 Bft) N-NW 340 0 min 0,000 mm 0,0 UV-I 0 W/m 6,2 C 0,0 km/h (0 Bft)
04.10.2016 05:16 7,1 C 7,1 C 94 % 1026,4 hPa 0,0 mm 0,0 km/h (0 Bft) N-NW 340 0 min 0,000 mm 0,0 UV-I 0 W/m 6,2 C 0,0 km/h (0 Bft)
04.10.2016 05:17 7,1 C 7,1 C 94 % 1026,4 hPa 0,0 mm 0,0 km/h (0 Bft) N-NW 340 0 min 0,000 mm 0,0 UV-I 0 W/m 6,2 C 0,0 km/h (0 Bft)
04.10.2016 05:18 7,1 C 7,1 C 94 % 1026,4 hPa 0,0 mm 0,0 km/h (0 Bft) N-NW 340 0 min 0,000 mm 0,0 UV-I 0 W/m 6,2 C 0,0 km/h (0 Bft)
04.10.2016 05:19 7,1 C 7,1 C 94 % 1026,5 hPa 0,0 mm 0,0 km/h (0 Bft) N-NW 340 0 min 0,000 mm 0,0 UV-I 0 W/m 6,2 C 0,0 km/h (0 Bft)
04.10.2016 05:20 7,1 C 7,1 C 94 % 1026,5 hPa 0,0 mm 0,0 km/h (0 Bft) N-NW 340 0 min 0,000 mm 0,0 UV-I 0 W/m 6,2 C 0,0 km/h (0 Bft)
04.10.2016 05:21 7,1 C 7,1 C 94 % 1026,4 hPa 0,0 mm 0,0 km/h (0 Bft) N-NW 340 0 min 0,000 mm 0,0 UV-I 0 W/m 6,2 C 0,0 km/h (0 Bft)
04.10.2016 05:22 7,1 C 7,1 C 94 % 1026,5 hPa 0,0 mm 0,0 km/h (0 Bft) N-NW 340 0 min 0,000 mm 0,0 UV-I 0 W/m 6,2 C 0,0 km/h (0 Bft)
04.10.2016 05:23 7,1 C 7,1 C 94 % 1026,4 hPa 0,0 mm 0,0 km/h (0 Bft) N-NW 340 0 min 0,000 mm 0,0 UV-I 0 W/m 6,2 C 0,0 km/h (0 Bft)
04.10.2016 05:24 7,0 C 7,1 C 94 % 1026,5 hPa 0,2 mm 0,0 km/h (0 Bft) N-NW 340 0 min 0,000 mm 0,0 UV-I 0 W/m 6,1 C 0,0 km/h (0 Bft)
04.10.2016 05:25 7,0 C 7,1 C 94 % 1026,5 hPa 0,0 mm 0,0 km/h (0 Bft) N-NW 340 0 min 0,000 mm 0,0 UV-I 0 W/m 6,1 C 0,0 km/h (0 Bft)
04.10.2016 05:26 7,0 C 7,0 C 94 % 1026,5 hPa 0,0 mm 0,0 km/h (0 Bft) N-NW 340 0 min 0,000 mm 0,0 UV-I 0 W/m 6,1 C 0,0 km/h (0 Bft)
04.10.2016 05:27 7,0 C 7,0 C 95 % 1026,5 hPa 0,0 mm 0,0 km/h (0 Bft) N-NW 340 0 min 0,000 mm 0,0 UV-I 0 W/m 6,3 C 0,0 km/h (0 Bft)
04.10.2016 05:28 6,9 C 7,0 C 95 % 1026,5 hPa 0,0 mm 0,0 km/h (0 Bft) N-NW 340 0 min 0,000 mm 0,0 UV-I 0 W/m 6,2 C 0,0 km/h (0 Bft)
04.10.2016 05:29 6,9 C 7,0 C 95 % 1026,5 hPa 0,0 mm 0,0 km/h (0 Bft) N-NW 340 0 min 0,000 mm 0,0 UV-I 0 W/m 6,2 C 0,0 km/h (0 Bft)
04.10.2016 05:30 6,9 C 7,0 C 94 % 1026,5 hPa 0,0 mm 0,0 km/h (0 Bft) N-NW 340 0 min 0,000 mm 0,0 UV-I 0 W/m 6,0 C 0,0 km/h (0 Bft)
04.10.2016 05:31 6,9 C 7,0 C 94 % 1026,5 hPa 0,0 mm 0,0 km/h (0 Bft) N-NW 340 0 min 0,000 mm 0,0 UV-I 0 W/m 6,0 C 0,0 km/h (0 Bft)
04.10.2016 05:32 6,9 C 7,0 C 94 % 1026,5 hPa 0,0 mm 0,0 km/h (0 Bft) N-NW 340 0 min 0,000 mm 0,0 UV-I 0 W/m 6,0 C 0,0 km/h (0 Bft)
04.10.2016 05:33 7,0 C 7,0 C 94 % 1026,5 hPa 0,0 mm 0,0 km/h (0 Bft) N-NW 340 0 min 0,000 mm 0,0 UV-I 0 W/m 6,1 C 0,0 km/h (0 Bft)
04.10.2016 05:34 7,0 C 7,1 C 94 % 1026,5 hPa 0,0 mm 0,0 km/h (0 Bft) N 5 0 min 0,000 mm 0,0 UV-I 0 W/m 6,1 C 0,0 km/h (0 Bft)
04.10.2016 05:35 7,0 C 7,0 C 94 % 1026,5 hPa 0,0 mm 0,0 km/h (0 Bft) N 5 0 min 0,000 mm 0,0 UV-I 0 W/m 6,1 C 0,0 km/h (0 Bft)
04.10.2016 05:36 7,0 C 7,0 C 94 % 1026,5 hPa 0,0 mm 0,0 km/h (0 Bft) N 5 0 min 0,000 mm 0,0 UV-I 0 W/m 6,1 C 0,0 km/h (0 Bft)
04.10.2016 05:37 6,9 C 7,0 C 94 % 1026,5 hPa 0,0 mm 0,0 km/h (0 Bft) N 5 0 min 0,000 mm 0,0 UV-I 0 W/m 6,0 C 0,0 km/h (0 Bft)
04.10.2016 05:38 6,9 C 7,0 C 94 % 1026,5 hPa 0,0 mm 0,0 km/h (0 Bft) N 5 0 min 0,000 mm 0,0 UV-I 0 W/m 6,0 C 0,0 km/h (0 Bft)
04.10.2016 05:39 7,0 C 7,0 C 94 % 1026,5 hPa 0,0 mm 0,0 km/h (0 Bft) N 5 0 min 0,000 mm 0,0 UV-I 0 W/m 6,1 C 0,0 km/h (0 Bft)
04.10.2016 05:40 6,9 C 7,0 C 94 % 1026,5 hPa 0,0 mm 0,0 km/h (0 Bft) N 5 0 min 0,000 mm 0,0 UV-I 0 W/m 6,0 C 0,0 km/h (0 Bft)
04.10.2016 05:41 7,0 C 7,0 C 94 % 1026,5 hPa 0,0 mm 3,1 km/h (1 Bft) NO 43 0 min 0,000 mm 0,0 UV-I 0 W/m 6,1 C 4,8 km/h (1 Bft)
04.10.2016 05:42 6,9 C 7,0 C 94 % 1026,5 hPa 0,0 mm 1,7 km/h (1 Bft) NO 43 0 min 0,000 mm 0,0 UV-I 0 W/m 6,0 C 3,2 km/h (1 Bft)
04.10.2016 05:43 6,9 C 6,9 C 94 % 1026,5 hPa 0,0 mm 2,3 km/h (1 Bft) NO 43 0 min 0,000 mm 0,0 UV-I 0 W/m 6,0 C 3,2 km/h (1 Bft)
04.10.2016 05:44 6,9 C 6,9 C 94 % 1026,6 hPa 0,0 mm 2,4 km/h (1 Bft) NO 43 0 min 0,000 mm 0,0 UV-I 0 W/m 6,0 C 4,8 km/h (1 Bft)
04.10.2016 05:45 6,9 C 7,0 C 94 % 1026,5 hPa 0,0 mm 3,4 km/h (1 Bft) NO 43 0 min 0,000 mm 0,0 UV-I 0 W/m 6,0 C 4,8 km/h (1 Bft)
04.10.2016 05:46 7,0 C 7,0 C 94 % 1026,5 hPa 0,0 mm 1,8 km/h (1 Bft) NO 43 0 min 0,000 mm 0,0 UV-I 0 W/m 6,1 C 3,2 km/h (1 Bft)
04.10.2016 05:47 7,0 C 7,0 C 94 % 1026,6 hPa 0,0 mm 0,7 km/h (0 Bft) NO 43 0 min 0,000 mm 0,0 UV-I 0 W/m 6,1 C 1,6 km/h (1 Bft)
04.10.2016 05:48 6,9 C 7,0 C 94 % 1026,6 hPa 0,0 mm 1,7 km/h (1 Bft) NO 43 0 min 0,000 mm 0,0 UV-I 0 W/m 6,0 C 3,2 km/h (1 Bft)
04.10.2016 05:49 6,9 C 7,0 C 94 % 1026,7 hPa 0,0 mm 0,6 km/h (0 Bft) NO 43 0 min 0,000 mm 0,0 UV-I 0 W/m 6,0 C 1,6 km/h (1 Bft)
04.10.2016 05:50 7,0 C 7,0 C 94 % 1026,6 hPa 0,0 mm 0,1 km/h (0 Bft) NO 43 0 min 0,000 mm 0,0 UV-I 0 W/m 6,1 C 1,6 km/h (1 Bft)
04.10.2016 05:51 6,9 C 7,0 C 94 % 1026,7 hPa 0,0 mm 0,9 km/h (0 Bft) NO 43 0 min 0,000 mm 0,0 UV-I 0 W/m 6,0 C 1,6 km/h (1 Bft)
04.10.2016 05:52 6,9 C 6,9 C 94 % 1026,7 hPa 0,0 mm 1,9 km/h (1 Bft) NO 43 0 min 0,000 mm 0,0 UV-I 0 W/m 6,0 C 3,2 km/h (1 Bft)
04.10.2016 05:53 6,9 C 6,9 C 94 % 1026,7 hPa 0,0 mm 1,6 km/h (1 Bft) NO 43 0 min 0,000 mm 0,0 UV-I 0 W/m 6,0 C 3,2 km/h (1 Bft)
04.10.2016 05:54 6,9 C 6,9 C 94 % 1026,7 hPa 0,0 mm 0,3 km/h (0 Bft) NO 43 0 min 0,000 mm 0,0 UV-I 0 W/m 6,0 C 1,6 km/h (1 Bft)
04.10.2016 05:55 6,9 C 6,9 C 94 % 1026,7 hPa 0,0 mm 0,0 km/h (0 Bft) NO 43 0 min 0,000 mm 0,0 UV-I 0 W/m 6,0 C 0,0 km/h (0 Bft)
04.10.2016 05:56 6,9 C 7,0 C 94 % 1026,7 hPa 0,0 mm 1,1 km/h (1 Bft) NO 43 0 min 0,000 mm 0,0 UV-I 0 W/m 6,0 C 1,6 km/h (1 Bft)
04.10.2016 05:57 6,9 C 6,9 C 94 % 1026,7 hPa 0,0 mm 0,3 km/h (0 Bft) NO 43 0 min 0,000 mm 0,0 UV-I 0 W/m 6,0 C 1,6 km/h (1 Bft)
04.10.2016 05:58 6,9 C 6,9 C 94 % 1026,7 hPa 0,0 mm 0,0 km/h (0 Bft) NO 43 0 min 0,000 mm 0,0 UV-I 0 W/m 6,0 C 0,0 km/h (0 Bft)
04.10.2016 05:59 6,9 C 6,9 C 94 % 1026,7 hPa 0,0 mm 0,2 km/h (0 Bft) NO 43 0 min 0,000 mm 0,0 UV-I 0 W/m 6,0 C 1,6 km/h (1 Bft)
04.10.2016 06:00 6,9 C 6,9 C 94 % 1026,7 hPa 0,0 mm 0,1 km/h (0 Bft) NO 43 0 min 0,000 mm 0,0 UV-I 0 W/m 6,0 C 1,6 km/h (1 Bft)
04.10.2016 06:01 6,9 C 6,9 C 94 % 1026,7 hPa 0,0 mm 0,4 km/h (0 Bft) NO 43 0 min 0,000 mm 0,0 UV-I 0 W/m 6,0 C 1,6 km/h (1 Bft)
04.10.2016 06:02 6,9 C 6,9 C 94 % 1026,7 hPa 0,0 mm 0,1 km/h (0 Bft) NO 43 0 min 0,000 mm 0,0 UV-I 0 W/m 6,0 C 1,6 km/h (1 Bft)
04.10.2016 06:03 6,9 C 6,9 C 94 % 1026,7 hPa 0,0 mm 1,0 km/h (0 Bft) NO 43 0 min 0,000 mm 0,0 UV-I 0 W/m 6,0 C 3,2 km/h (1 Bft)
04.10.2016 06:04 6,9 C 6,9 C 94 % 1026,8 hPa 0,0 mm 1,8 km/h (1 Bft) NO 43 0 min 0,000 mm 0,0 UV-I 0 W/m 6,0 C 3,2 km/h (1 Bft)
04.10.2016 06:05 6,9 C 6,9 C 94 % 1026,8 hPa 0,0 mm 2,7 km/h (1 Bft) NO 43 0 min 0,000 mm 0,0 UV-I 0 W/m 6,0 C 3,2 km/h (1 Bft)
04.10.2016 06:06 6,9 C 7,0 C 94 % 1026,8 hPa 0,0 mm 2,0 km/h (1 Bft) NO 43 0 min 0,000 mm 0,0 UV-I 0 W/m 6,0 C 3,2 km/h (1 Bft)
04.10.2016 06:07 7,0 C 7,0 C 94 % 1026,8 hPa 0,0 mm 1,9 km/h (1 Bft) NO 43 0 min 0,000 mm 0,0 UV-I 0 W/m 6,1 C 3,2 km/h (1 Bft)
04.10.2016 06:08 6,9 C 7,0 C 94 % 1026,8 hPa 0,0 mm 0,1 km/h (0 Bft) NO 43 0 min 0,000 mm 0,0 UV-I 0 W/m 6,0 C 1,6 km/h (1 Bft)
04.10.2016 06:09 6,9 C 7,0 C 94 % 1026,7 hPa 0,0 mm 0,1 km/h (0 Bft) NO 43 0 min 0,000 mm 0,0 UV-I 0 W/m 6,0 C 1,6 km/h (1 Bft)
04.10.2016 06:10 6,9 C 6,9 C 94 % 1026,8 hPa 0,0 mm 0,9 km/h (0 Bft) NO 43 0 min 0,000 mm 0,0 UV-I 0 W/m 6,0 C 1,6 km/h (1 Bft)
04.10.2016 06:11 6,9 C 6,9 C 94 % 1026,8 hPa 0,0 mm 0,3 km/h (0 Bft) NO 43 0 min 0,000 mm 0,0 UV-I 0 W/m 6,0 C 1,6 km/h (1 Bft)
04.10.2016 06:12 7,0 C 7,0 C 94 % 1026,8 hPa 0,0 mm 0,5 km/h (0 Bft) NO 43 0 min 0,000 mm 0,0 UV-I 0 W/m 6,1 C 1,6 km/h (1 Bft)
04.10.2016 06:13 6,9 C 7,0 C 94 % 1026,8 hPa 0,0 mm 1,1 km/h (1 Bft) NO 43 0 min 0,000 mm 0,0 UV-I 0 W/m 6,0 C 3,2 km/h (1 Bft)
04.10.2016 06:14 6,9 C 7,0 C 94 % 1026,8 hPa 0,0 mm 2,0 km/h (1 Bft) NO 43 0 min 0,000 mm 0,0 UV-I 0 W/m 6,0 C 3,2 km/h (1 Bft)
04.10.2016 06:15 6,9 C 7,0 C 94 % 1026,9 hPa 0,0 mm 1,3 km/h (1 Bft) N-NO 17 0 min 0,000 mm 0,0 UV-I 0 W/m 6,0 C 3,2 km/h (1 Bft)
04.10.2016 06:16 6,9 C 6,9 C 94 % 1026,9 hPa 0,0 mm 1,4 km/h (1 Bft) N-NO 17 0 min 0,000 mm 0,0 UV-I 0 W/m 6,0 C 3,2 km/h (1 Bft)
04.10.2016 06:17 6,9 C 6,9 C 94 % 1026,9 hPa 0,0 mm 0,3 km/h (0 Bft) N-NO 17 0 min 0,000 mm 0,0 UV-I 0 W/m 6,0 C 1,6 km/h (1 Bft)
04.10.2016 06:18 6,9 C 6,9 C 94 % 1026,9 hPa 0,0 mm 0,1 km/h (0 Bft) N-NO 17 0 min 0,000 mm 0,0 UV-I 0 W/m 6,0 C 1,6 km/h (1 Bft)
04.10.2016 06:19 6,9 C 6,9 C 94 % 1026,9 hPa 0,0 mm 0,6 km/h (0 Bft) N-NO 17 0 min 0,000 mm 0,0 UV-I 0 W/m 6,0 C 1,6 km/h (1 Bft)
04.10.2016 06:20 6,9 C 6,9 C 93 % 1026,9 hPa 0,0 mm 2,3 km/h (1 Bft) N 5 0 min 0,000 mm 0,0 UV-I 0 W/m 5,8 C 4,8 km/h (1 Bft)
04.10.2016 06:21 6,9 C 6,9 C 93 % 1026,9 hPa 0,0 mm 2,7 km/h (1 Bft) N 5 0 min 0,000 mm 0,0 UV-I 0 W/m 5,8 C 4,8 km/h (1 Bft)
04.10.2016 06:22 6,9 C 6,9 C 93 % 1026,9 hPa 0,0 mm 2,1 km/h (1 Bft) N 5 0 min 0,000 mm 0,0 UV-I 0 W/m 5,8 C 3,2 km/h (1 Bft)
04.10.2016 06:23 6,8 C 6,9 C 93 % 1026,9 hPa 0,0 mm 1,9 km/h (1 Bft) N 5 0 min 0,000 mm 0,0 UV-I 0 W/m 5,7 C 3,2 km/h (1 Bft)
04.10.2016 06:24 6,8 C 6,9 C 93 % 1026,9 hPa 0,0 mm 0,7 km/h (0 Bft) N 5 0 min 0,000 mm 0,0 UV-I 0 W/m 5,7 C 1,6 km/h (1 Bft)
04.10.2016 06:25 6,8 C 6,8 C 93 % 1027,0 hPa 0,0 mm 1,5 km/h (1 Bft) N 5 0 min 0,000 mm 0,0 UV-I 0 W/m 5,7 C 3,2 km/h (1 Bft)
04.10.2016 06:26 6,8 C 6,8 C 93 % 1027,0 hPa 0,0 mm 2,5 km/h (1 Bft) N 5 0 min 0,000 mm 0,0 UV-I 0 W/m 5,7 C 3,2 km/h (1 Bft)
04.10.2016 06:27 6,8 C 6,8 C 93 % 1026,9 hPa 0,0 mm 3,0 km/h (1 Bft) N 5 0 min 0,000 mm 0,0 UV-I 0 W/m 5,7 C 4,8 km/h (1 Bft)
04.10.2016 06:28 6,8 C 6,8 C 93 % 1027,0 hPa 0,0 mm 3,0 km/h (1 Bft) N 355 0 min 0,000 mm 0,0 UV-I 0 W/m 5,7 C 4,8 km/h (1 Bft)
04.10.2016 06:29 6,8 C 6,8 C 93 % 1026,9 hPa 0,0 mm 2,7 km/h (1 Bft) N 355 0 min 0,000 mm 0,0 UV-I 0 W/m 5,7 C 4,8 km/h (1 Bft)
04.10.2016 06:30 6,8 C 6,8 C 93 % 1026,9 hPa 0,0 mm 0,1 km/h (0 Bft) N 355 0 min 0,000 mm 0,0 UV-I 0 W/m 5,7 C 1,6 km/h (1 Bft)
04.10.2016 06:31 6,7 C 6,8 C 93 % 1026,8 hPa 0,0 mm 2,1 km/h (1 Bft) N-NO 29 0 min 0,000 mm 0,0 UV-I 0 W/m 5,6 C 3,2 km/h (1 Bft)
04.10.2016 06:32 6,7 C 6,7 C 93 % 1026,9 hPa 0,0 mm 1,7 km/h (1 Bft) N-NO 29 0 min 0,000 mm 0,0 UV-I 0 W/m 5,6 C 3,2 km/h (1 Bft)
04.10.2016 06:33 6,6 C 6,7 C 93 % 1026,8 hPa 0,0 mm 0,0 km/h (0 Bft) N-NO 29 0 min 0,000 mm 0,0 UV-I 0 W/m 5,6 C 0,0 km/h (0 Bft)
04.10.2016 06:34 6,6 C 6,6 C 93 % 1026,8 hPa 0,0 mm 0,2 km/h (0 Bft) N-NO 29 0 min 0,000 mm 0,0 UV-I 0 W/m 5,6 C 1,6 km/h (1 Bft)
04.10.2016 06:35 6,6 C 6,6 C 93 % 1026,9 hPa 0,0 mm 1,3 km/h (1 Bft) N-NO 29 0 min 0,000 mm 0,0 UV-I 0 W/m 5,6 C 1,6 km/h (1 Bft)
04.10.2016 06:36 6,6 C 6,6 C 93 % 1026,8 hPa 0,0 mm 0,6 km/h (0 Bft) N-NO 29 0 min 0,000 mm 0,0 UV-I 0 W/m 5,6 C 1,6 km/h (1 Bft)
04.10.2016 06:37 6,4 C 6,6 C 93 % 1026,8 hPa 0,0 mm 0,0 km/h (0 Bft) N-NO 29 0 min 0,000 mm 0,0 UV-I 0 W/m 5,4 C 0,0 km/h (0 Bft)
04.10.2016 06:38 6,4 C 6,5 C 93 % 1026,8 hPa 0,0 mm 0,0 km/h (0 Bft) N-NO 29 0 min 0,000 mm 0,0 UV-I 0 W/m 5,4 C 0,0 km/h (0 Bft)
04.10.2016 06:39 6,4 C 6,4 C 93 % 1026,8 hPa 0,0 mm 0,0 km/h (0 Bft) N-NO 29 0 min 0,000 mm 0,0 UV-I 0 W/m 5,4 C 0,0 km/h (0 Bft)
04.10.2016 06:40 6,4 C 6,4 C 93 % 1026,9 hPa 0,0 mm 0,0 km/h (0 Bft) N-NO 29 0 min 0,000 mm 0,0 UV-I 0 W/m 5,4 C 0,0 km/h (0 Bft)
04.10.2016 06:41 6,4 C 6,4 C 93 % 1026,9 hPa 0,0 mm 0,0 km/h (0 Bft) N-NO 29 0 min 0,000 mm 0,0 UV-I 0 W/m 5,4 C 0,0 km/h (0 Bft)
04.10.2016 06:42 6,3 C 6,4 C 94 % 1026,8 hPa 0,0 mm 0,5 km/h (0 Bft) N-NO 29 0 min 0,000 mm 0,0 UV-I 0 W/m 5,4 C 1,6 km/h (1 Bft)
04.10.2016 06:43 6,3 C 6,3 C 94 % 1026,9 hPa 0,0 mm 0,1 km/h (0 Bft) N-NO 29 0 min 0,000 mm 0,0 UV-I 0 W/m 5,4 C 1,6 km/h (1 Bft)
04.10.2016 06:44 6,3 C 6,3 C 94 % 1026,9 hPa 0,0 mm 0,0 km/h (0 Bft) N-NO 29 0 min 0,000 mm 0,0 UV-I 0 W/m 5,4 C 0,0 km/h (0 Bft)
04.10.2016 06:45 6,3 C 6,3 C 94 % 1026,9 hPa 0,0 mm 0,0 km/h (0 Bft) N-NO 29 0 min 0,000 mm 0,0 UV-I 0 W/m 5,4 C 0,0 km/h (0 Bft)
04.10.2016 06:46 6,2 C 6,3 C 94 % 1026,9 hPa 0,0 mm 0,0 km/h (0 Bft) N-NO 29 0 min 0,000 mm 0,0 UV-I 0 W/m 5,3 C 0,0 km/h (0 Bft)
04.10.2016 06:47 6,2 C 6,2 C 94 % 1026,9 hPa 0,0 mm 0,0 km/h (0 Bft) N-NO 29 0 min 0,000 mm 0,0 UV-I 0 W/m 5,3 C 0,0 km/h (0 Bft)
04.10.2016 06:48 6,2 C 6,2 C 94 % 1026,9 hPa 0,0 mm 0,0 km/h (0 Bft) N-NO 29 0 min 0,000 mm 0,0 UV-I 0 W/m 5,3 C 0,0 km/h (0 Bft)
04.10.2016 06:49 6,2 C 6,2 C 94 % 1026,9 hPa 0,0 mm 0,0 km/h (0 Bft) N-NO 29 0 min 0,000 mm 0,0 UV-I 0 W/m 5,3 C 0,0 km/h (0 Bft)
04.10.2016 06:50 6,2 C 6,2 C 94 % 1026,9 hPa 0,0 mm 0,0 km/h (0 Bft) N-NO 29 0 min 0,000 mm 0,0 UV-I 0 W/m 5,3 C 0,0 km/h (0 Bft)
04.10.2016 06:51 6,2 C 6,2 C 94 % 1026,9 hPa 0,0 mm 0,0 km/h (0 Bft) N-NO 29 0 min 0,000 mm 0,0 UV-I 0 W/m 5,3 C 0,0 km/h (0 Bft)
04.10.2016 06:52 6,2 C 6,2 C 94 % 1026,9 hPa 0,0 mm 0,0 km/h (0 Bft) N-NO 29 0 min 0,000 mm 0,0 UV-I 0 W/m 5,3 C 0,0 km/h (0 Bft)
04.10.2016 06:53 6,2 C 6,2 C 94 % 1026,9 hPa 0,0 mm 0,3 km/h (0 Bft) N-NO 29 0 min 0,000 mm 0,0 UV-I 0 W/m 5,3 C 1,6 km/h (1 Bft)
04.10.2016 06:54 6,3 C 6,3 C 95 % 1027,0 hPa 0,0 mm 0,1 km/h (0 Bft) N-NO 29 0 min 0,000 mm 0,0 UV-I 0 W/m 5,6 C 1,6 km/h (1 Bft)
04.10.2016 06:55 6,3 C 6,3 C 95 % 1027,0 hPa 0,0 mm 0,0 km/h (0 Bft) N-NO 29 0 min 0,000 mm 0,0 UV-I 0 W/m 5,6 C 0,0 km/h (0 Bft)
04.10.2016 06:56 6,3 C 6,3 C 95 % 1027,0 hPa 0,0 mm 0,0 km/h (0 Bft) N-NO 29 0 min 0,000 mm 0,0 UV-I 0 W/m 5,6 C 0,0 km/h (0 Bft)
04.10.2016 06:57 6,3 C 6,3 C 95 % 1027,0 hPa 0,0 mm 0,0 km/h (0 Bft) N-NO 29 0 min 0,000 mm 0,0 UV-I 0 W/m 5,6 C 0,0 km/h (0 Bft)
04.10.2016 06:58 6,3 C 6,3 C 95 % 1027,1 hPa 0,0 mm 0,0 km/h (0 Bft) N-NO 29 0 min 0,000 mm 0,0 UV-I 0 W/m 5,6 C 0,0 km/h (0 Bft)
04.10.2016 06:59 6,3 C 6,3 C 95 % 1027,1 hPa 0,0 mm 0,0 km/h (0 Bft) N-NO 29 0 min 0,000 mm 0,0 UV-I 0 W/m 5,6 C 0,0 km/h (0 Bft)
04.10.2016 07:00 6,3 C 6,3 C 95 % 1027,1 hPa 0,0 mm 0,0 km/h (0 Bft) N-NO 29 0 min 0,000 mm 0,0 UV-I 0 W/m 5,6 C 0,0 km/h (0 Bft)
04.10.2016 07:01 6,3 C 6,3 C 95 % 1027,1 hPa 0,0 mm 0,0 km/h (0 Bft) N-NO 29 0 min 0,000 mm 0,0 UV-I 0 W/m 5,6 C 0,0 km/h (0 Bft)
04.10.2016 07:02 6,3 C 6,3 C 95 % 1027,1 hPa 0,0 mm 0,0 km/h (0 Bft) N-NO 29 0 min 0,000 mm 0,0 UV-I 0 W/m 5,6 C 0,0 km/h (0 Bft)
04.10.2016 07:03 6,3 C 6,3 C 95 % 1027,1 hPa 0,0 mm 0,0 km/h (0 Bft) N-NO 29 0 min 0,000 mm 0,0 UV-I 0 W/m 5,6 C 0,0 km/h (0 Bft)
04.10.2016 07:04 6,3 C 6,3 C 95 % 1027,2 hPa 0,0 mm 0,0 km/h (0 Bft) N-NO 29 0 min 0,000 mm 0,0 UV-I 0 W/m 5,6 C 0,0 km/h (0 Bft)
04.10.2016 07:05 6,3 C 6,3 C 95 % 1027,2 hPa 0,0 mm 0,0 km/h (0 Bft) N-NO 29 0 min 0,000 mm 0,0 UV-I 0 W/m 5,6 C 0,0 km/h (0 Bft)
04.10.2016 07:06 6,3 C 6,3 C 95 % 1027,2 hPa 0,0 mm 0,4 km/h (0 Bft) N-NO 29 0 min 0,000 mm 0,0 UV-I 0 W/m 5,6 C 1,6 km/h (1 Bft)
04.10.2016 07:07 6,3 C 6,3 C 95 % 1027,2 hPa 0,0 mm 1,4 km/h (1 Bft) N-NO 29 0 min 0,000 mm 0,0 UV-I 0 W/m 5,6 C 1,6 km/h (1 Bft)
04.10.2016 07:08 6,3 C 6,3 C 95 % 1027,2 hPa 0,0 mm 1,5 km/h (1 Bft) N-NO 29 0 min 0,000 mm 0,0 UV-I 0 W/m 5,6 C 1,6 km/h (1 Bft)
04.10.2016 07:09 6,3 C 6,3 C 95 % 1027,2 hPa 0,0 mm 0,2 km/h (0 Bft) N-NO 29 0 min 0,000 mm 0,0 UV-I 0 W/m 5,6 C 1,6 km/h (1 Bft)
04.10.2016 07:10 6,3 C 6,3 C 95 % 1027,2 hPa 0,0 mm 0,0 km/h (0 Bft) N-NO 29 0 min 0,000 mm 0,0 UV-I 0 W/m 5,6 C 0,0 km/h (0 Bft)
04.10.2016 07:11 6,3 C 6,3 C 95 % 1027,2 hPa 0,0 mm 0,0 km/h (0 Bft) N-NO 29 0 min 0,000 mm 0,0 UV-I 0 W/m 5,6 C 0,0 km/h (0 Bft)
04.10.2016 07:12 6,3 C 6,3 C 95 % 1027,2 hPa 0,0 mm 0,0 km/h (0 Bft) N-NO 29 0 min 0,000 mm 0,0 UV-I 0 W/m 5,6 C 0,0 km/h (0 Bft)
04.10.2016 07:13 6,3 C 6,3 C 95 % 1027,2 hPa 0,0 mm 1,1 km/h (1 Bft) N-NO 29 0 min 0,000 mm 0,0 UV-I 0 W/m 5,6 C 1,6 km/h (1 Bft)
04.10.2016 07:14 6,3 C 6,3 C 95 % 1027,2 hPa 0,0 mm 1,3 km/h (1 Bft) N-NO 29 0 min 0,000 mm 0,0 UV-I 0 W/m 5,6 C 1,6 km/h (1 Bft)
04.10.2016 07:15 6,3 C 6,3 C 95 % 1027,2 hPa 0,0 mm 1,9 km/h (1 Bft) N-NO 29 0 min 0,000 mm 0,0 UV-I 0 W/m 5,6 C 3,2 km/h (1 Bft)
04.10.2016 07:16 6,3 C 6,3 C 95 % 1027,2 hPa 0,0 mm 1,5 km/h (1 Bft) N-NO 29 0 min 0,000 mm 0,0 UV-I 0 W/m 5,6 C 3,2 km/h (1 Bft)
04.10.2016 07:17 6,3 C 6,3 C 95 % 1027,1 hPa 0,0 mm 1,5 km/h (1 Bft) N-NO 29 0 min 0,000 mm 0,0 UV-I 0 W/m 5,6 C 1,6 km/h (1 Bft)
04.10.2016 07:18 6,3 C 6,3 C 95 % 1027,1 hPa 0,0 mm 0,7 km/h (0 Bft) N-NO 29 0 min 0,000 mm 0,0 UV-I 0 W/m 5,6 C 1,6 km/h (1 Bft)
04.10.2016 07:19 6,3 C 6,3 C 95 % 1027,2 hPa 0,0 mm 1,3 km/h (1 Bft) N-NO 29 0 min 0,000 mm 0,0 UV-I 0 W/m 5,6 C 1,6 km/h (1 Bft)
04.10.2016 07:20 6,3 C 6,3 C 95 % 1027,1 hPa 0,0 mm 2,0 km/h (1 Bft) N-NO 29 0 min 0,000 mm 0,0 UV-I 0 W/m 5,6 C 3,2 km/h (1 Bft)
04.10.2016 07:21 6,3 C 6,3 C 95 % 1027,2 hPa 0,0 mm 1,1 km/h (1 Bft) N-NO 29 0 min 0,000 mm 0,0 UV-I 0 W/m 5,6 C 1,6 km/h (1 Bft)
04.10.2016 07:22 6,3 C 6,3 C 95 % 1027,2 hPa 0,0 mm 0,3 km/h (0 Bft) N-NO 29 0 min 0,000 mm 0,0 UV-I 0 W/m 5,6 C 1,6 km/h (1 Bft)
04.10.2016 07:23 6,3 C 6,3 C 95 % 1027,2 hPa 0,0 mm 0,0 km/h (0 Bft) N-NO 29 0 min 0,000 mm 0,0 UV-I 0 W/m 5,6 C 0,0 km/h (0 Bft)
04.10.2016 07:24 6,2 C 6,3 C 95 % 1027,1 hPa 0,0 mm 1,4 km/h (1 Bft) N-NO 29 0 min 0,000 mm 0,0 UV-I 0 W/m 5,5 C 3,2 km/h (1 Bft)
04.10.2016 07:25 6,3 C 6,3 C 95 % 1027,1 hPa 0,0 mm 2,2 km/h (1 Bft) O 89 0 min 0,000 mm 0,0 UV-I 0 W/m 5,6 C 3,2 km/h (1 Bft)
04.10.2016 07:26 6,2 C 6,3 C 95 % 1027,1 hPa 0,0 mm 2,3 km/h (1 Bft) O 89 0 min 0,000 mm 0,0 UV-I 5 W/m 5,5 C 3,2 km/h (1 Bft)
04.10.2016 07:27 6,2 C 6,2 C 95 % 1027,1 hPa 0,0 mm 2,7 km/h (1 Bft) O 89 0 min 0,000 mm 0,0 UV-I 5 W/m 5,5 C 3,2 km/h (1 Bft)
04.10.2016 07:28 6,2 C 6,2 C 95 % 1027,1 hPa 0,0 mm 2,0 km/h (1 Bft) O 89 0 min 0,000 mm 0,0 UV-I 5 W/m 5,5 C 3,2 km/h (1 Bft)
04.10.2016 07:29 6,2 C 6,2 C 95 % 1027,1 hPa 0,0 mm 2,5 km/h (1 Bft) O 89 0 min 0,000 mm 0,0 UV-I 5 W/m 5,5 C 3,2 km/h (1 Bft)
04.10.2016 07:30 6,2 C 6,2 C 94 % 1027,0 hPa 0,0 mm 1,9 km/h (1 Bft) O 89 0 min 0,000 mm 0,0 UV-I 7 W/m 5,3 C 3,2 km/h (1 Bft)
04.10.2016 07:31 6,1 C 6,2 C 94 % 1027,0 hPa 0,0 mm 2,5 km/h (1 Bft) SO 142 0 min 0,000 mm 0,0 UV-I 7 W/m 5,2 C 4,8 km/h (1 Bft)
04.10.2016 07:32 6,1 C 6,1 C 94 % 1027,0 hPa 0,0 mm 2,4 km/h (1 Bft) SO 142 0 min 0,000 mm 0,0 UV-I 7 W/m 5,2 C 3,2 km/h (1 Bft)
04.10.2016 07:33 6,1 C 6,1 C 94 % 1027,0 hPa 0,0 mm 2,9 km/h (1 Bft) SO 142 0 min 0,000 mm 0,0 UV-I 7 W/m 5,2 C 3,2 km/h (1 Bft)
04.10.2016 07:34 6,1 C 6,1 C 94 % 1027,1 hPa 0,0 mm 1,7 km/h (1 Bft) SO 142 0 min 0,000 mm 0,0 UV-I 7 W/m 5,2 C 3,2 km/h (1 Bft)
04.10.2016 07:35 6,0 C 6,1 C 94 % 1027,0 hPa 0,0 mm 2,0 km/h (1 Bft) SO 142 0 min 0,000 mm 0,0 UV-I 7 W/m 5,1 C 3,2 km/h (1 Bft)
04.10.2016 07:36 5,9 C 6,1 C 94 % 1027,1 hPa 0,0 mm 1,3 km/h (1 Bft) SO 142 0 min 0,000 mm 0,0 UV-I 7 W/m 5,0 C 1,6 km/h (1 Bft)
04.10.2016 07:37 5,9 C 5,9 C 94 % 1027,1 hPa 0,0 mm 1,3 km/h (1 Bft) SO 142 0 min 0,000 mm 0,0 UV-I 7 W/m 5,0 C 1,6 km/h (1 Bft)
04.10.2016 07:38 5,8 C 5,9 C 94 % 1027,1 hPa 0,0 mm 1,0 km/h (0 Bft) SO 142 0 min 0,000 mm 0,0 UV-I 9 W/m 4,9 C 1,6 km/h (1 Bft)
04.10.2016 07:39 5,8 C 5,8 C 95 % 1027,1 hPa 0,0 mm 0,1 km/h (0 Bft) SO 142 0 min 0,000 mm 0,0 UV-I 9 W/m 5,1 C 1,6 km/h (1 Bft)
04.10.2016 07:40 5,8 C 5,8 C 95 % 1027,2 hPa 0,0 mm 1,5 km/h (1 Bft) SO 142 0 min 0,000 mm 0,0 UV-I 11 W/m 5,1 C 3,2 km/h (1 Bft)
04.10.2016 07:41 5,8 C 5,8 C 94 % 1027,2 hPa 0,0 mm 1,0 km/h (0 Bft) SO 142 0 min 0,000 mm 0,0 UV-I 11 W/m 4,9 C 1,6 km/h (1 Bft)
04.10.2016 07:42 5,7 C 5,8 C 94 % 1027,2 hPa 0,0 mm 0,3 km/h (0 Bft) SO 142 0 min 0,000 mm 0,0 UV-I 11 W/m 4,8 C 1,6 km/h (1 Bft)
04.10.2016 07:43 5,7 C 5,7 C 95 % 1027,2 hPa 0,0 mm 0,2 km/h (0 Bft) SO 142 0 min 0,000 mm 0,0 UV-I 11 W/m 5,0 C 1,6 km/h (1 Bft)
04.10.2016 07:44 5,6 C 5,7 C 95 % 1027,2 hPa 0,0 mm 0,4 km/h (0 Bft) SO 142 0 min 0,000 mm 0,0 UV-I 11 W/m 4,9 C 1,6 km/h (1 Bft)
04.10.2016 07:45 5,6 C 5,6 C 95 % 1027,2 hPa 0,0 mm 0,1 km/h (0 Bft) SO 142 0 min 0,000 mm 0,0 UV-I 11 W/m 4,9 C 1,6 km/h (1 Bft)
04.10.2016 07:46 5,6 C 5,6 C 95 % 1027,2 hPa 0,0 mm 1,1 km/h (1 Bft) SO 142 0 min 0,000 mm 0,0 UV-I 11 W/m 4,9 C 1,6 km/h (1 Bft)
04.10.2016 07:47 5,6 C 5,6 C 95 % 1027,2 hPa 0,0 mm 1,1 km/h (1 Bft) SO 142 0 min 0,000 mm 0,0 UV-I 11 W/m 4,9 C 1,6 km/h (1 Bft)
04.10.2016 07:48 5,6 C 5,6 C 95 % 1027,2 hPa 0,0 mm 1,0 km/h (0 Bft) SO 142 0 min 0,000 mm 0,0 UV-I 12 W/m 4,9 C 1,6 km/h (1 Bft)
04.10.2016 07:49 5,6 C 5,6 C 95 % 1027,2 hPa 0,0 mm 0,7 km/h (0 Bft) SO 142 0 min 0,000 mm 0,0 UV-I 12 W/m 4,9 C 1,6 km/h (1 Bft)
04.10.2016 07:50 5,6 C 5,6 C 95 % 1027,3 hPa 0,0 mm 0,7 km/h (0 Bft) SO 142 0 min 0,000 mm 0,0 UV-I 12 W/m 4,9 C 1,6 km/h (1 Bft)
04.10.2016 07:51 5,5 C 5,6 C 95 % 1027,3 hPa 0,0 mm 0,0 km/h (0 Bft) SO 142 0 min 0,000 mm 0,0 UV-I 12 W/m 4,8 C 0,0 km/h (0 Bft)
04.10.2016 07:52 5,4 C 5,5 C 95 % 1027,4 hPa 0,0 mm 0,3 km/h (0 Bft) SO 142 0 min 0,000 mm 0,0 UV-I 12 W/m 4,7 C 1,6 km/h (1 Bft)
04.10.2016 07:53 5,4 C 5,5 C 95 % 1027,4 hPa 0,0 mm 0,0 km/h (0 Bft) SO 142 0 min 0,000 mm 0,0 UV-I 14 W/m 4,7 C 0,0 km/h (0 Bft)
04.10.2016 07:54 5,4 C 5,4 C 95 % 1027,4 hPa 0,0 mm 0,0 km/h (0 Bft) SO 142 0 min 0,000 mm 0,0 UV-I 14 W/m 4,7 C 0,0 km/h (0 Bft)
04.10.2016 07:55 5,4 C 5,4 C 95 % 1027,4 hPa 0,0 mm 0,5 km/h (0 Bft) SO 142 0 min 0,000 mm 0,0 UV-I 14 W/m 4,7 C 1,6 km/h (1 Bft)
04.10.2016 07:56 5,3 C 5,4 C 95 % 1027,4 hPa 0,0 mm 1,4 km/h (1 Bft) SO 142 0 min 0,000 mm 0,0 UV-I 18 W/m 4,6 C 1,6 km/h (1 Bft)
04.10.2016 07:57 5,3 C 5,3 C 95 % 1027,5 hPa 0,0 mm 0,8 km/h (0 Bft) SO 142 0 min 0,000 mm 0,0 UV-I 19 W/m 4,6 C 1,6 km/h (1 Bft)
04.10.2016 07:58 5,3 C 5,3 C 95 % 1027,5 hPa 0,0 mm 0,6 km/h (0 Bft) SO 142 0 min 0,000 mm 0,0 UV-I 21 W/m 4,6 C 1,6 km/h (1 Bft)
04.10.2016 07:59 5,3 C 5,3 C 95 % 1027,5 hPa 0,0 mm 0,0 km/h (0 Bft) SO 142 0 min 0,000 mm 0,0 UV-I 23 W/m 4,6 C 0,0 km/h (0 Bft)
04.10.2016 08:00 5,2 C 5,3 C 95 % 1027,5 hPa 0,0 mm 0,0 km/h (0 Bft) SO 142 0 min 0,000 mm 0,0 UV-I 23 W/m 4,5 C 0,0 km/h (0 Bft)
04.10.2016 08:01 5,2 C 5,2 C 95 % 1027,5 hPa 0,0 mm 0,5 km/h (0 Bft) SO 142 0 min 0,000 mm 0,0 UV-I 25 W/m 4,5 C 1,6 km/h (1 Bft)
04.10.2016 08:02 5,1 C 5,2 C 94 % 1027,6 hPa 0,0 mm 2,0 km/h (1 Bft) SO 142 0 min 0,000 mm 0,0 UV-I 28 W/m 4,2 C 3,2 km/h (1 Bft)
04.10.2016 08:03 5,1 C 5,1 C 94 % 1027,6 hPa 0,0 mm 1,0 km/h (0 Bft) SO 142 0 min 0,000 mm 0,0 UV-I 32 W/m 4,2 C 1,6 km/h (1 Bft)
04.10.2016 08:04 5,0 C 5,1 C 95 % 1027,6 hPa 0,0 mm 0,7 km/h (0 Bft) SO 142 0 min 0,000 mm 0,0 UV-I 35 W/m 4,3 C 1,6 km/h (1 Bft)
04.10.2016 08:05 5,1 C 5,1 C 95 % 1027,6 hPa 0,0 mm 0,6 km/h (0 Bft) SO 142 0 min 0,000 mm 0,0 UV-I 37 W/m 4,4 C 1,6 km/h (1 Bft)
04.10.2016 08:06 5,1 C 5,1 C 95 % 1027,7 hPa 0,0 mm 0,8 km/h (0 Bft) SO 142 0 min 0,000 mm 0,0 UV-I 37 W/m 4,4 C 3,2 km/h (1 Bft)
04.10.2016 08:07 5,1 C 5,1 C 95 % 1027,6 hPa 0,0 mm 1,9 km/h (1 Bft) SO 142 0 min 0,000 mm 0,0 UV-I 35 W/m 4,4 C 3,2 km/h (1 Bft)
04.10.2016 08:08 5,1 C 5,1 C 95 % 1027,6 hPa 0,0 mm 1,3 km/h (1 Bft) SO 142 0 min 0,000 mm 0,0 UV-I 33 W/m 4,4 C 3,2 km/h (1 Bft)
04.10.2016 08:09 5,2 C 5,2 C 95 % 1027,6 hPa 0,0 mm 0,2 km/h (0 Bft) SO 142 0 min 0,000 mm 0,0 UV-I 33 W/m 4,5 C 1,6 km/h (1 Bft)
04.10.2016 08:10 5,3 C 5,3 C 96 % 1027,6 hPa 0,0 mm 1,8 km/h (1 Bft) SO 142 0 min 0,000 mm 0,0 UV-I 32 W/m 4,7 C 3,2 km/h (1 Bft)
04.10.2016 08:11 5,3 C 5,3 C 96 % 1027,6 hPa 0,0 mm 1,0 km/h (0 Bft) SO 142 0 min 0,000 mm 0,0 UV-I 32 W/m 4,7 C 1,6 km/h (1 Bft)
04.10.2016 08:12 5,4 C 5,4 C 96 % 1027,7 hPa 0,0 mm 1,1 km/h (1 Bft) SO 142 0 min 0,000 mm 0,0 UV-I 33 W/m 4,8 C 1,6 km/h (1 Bft)
04.10.2016 08:13 5,4 C 5,4 C 96 % 1027,7 hPa 0,0 mm 1,0 km/h (0 Bft) SO 142 0 min 0,000 mm 0,0 UV-I 37 W/m 4,8 C 1,6 km/h (1 Bft)
04.10.2016 08:14 5,4 C 5,4 C 96 % 1027,6 hPa 0,0 mm 1,4 km/h (1 Bft) SO 142 0 min 0,000 mm 0,0 UV-I 46 W/m 4,8 C 1,6 km/h (1 Bft)
04.10.2016 08:15 5,5 C 5,5 C 96 % 1027,6 hPa 0,0 mm 0,7 km/h (0 Bft) SO 142 0 min 0,000 mm 0,0 UV-I 49 W/m 4,9 C 1,6 km/h (1 Bft)
04.10.2016 08:16 5,5 C 5,5 C 96 % 1027,7 hPa 0,0 mm 0,0 km/h (0 Bft) SO 142 0 min 0,000 mm 0,0 UV-I 51 W/m 4,9 C 0,0 km/h (0 Bft)
04.10.2016 08:17 5,6 C 5,6 C 96 % 1027,7 hPa 0,0 mm 0,0 km/h (0 Bft) SO 142 0 min 0,000 mm 0,0 UV-I 54 W/m 5,0 C 0,0 km/h (0 Bft)
04.10.2016 08:18 5,6 C 5,6 C 96 % 1027,7 hPa 0,0 mm 0,0 km/h (0 Bft) SO 142 0 min 0,000 mm 0,0 UV-I 58 W/m 5,0 C 0,0 km/h (0 Bft)
04.10.2016 08:19 5,6 C 5,6 C 96 % 1027,7 hPa 0,0 mm 0,4 km/h (0 Bft) SO 142 0 min 0,000 mm 0,0 UV-I 60 W/m 5,0 C 1,6 km/h (1 Bft)
04.10.2016 08:20 5,6 C 5,6 C 96 % 1027,7 hPa 0,0 mm 0,7 km/h (0 Bft) SO 142 0 min 0,000 mm 0,0 UV-I 62 W/m 5,0 C 1,6 km/h (1 Bft)
04.10.2016 08:21 5,6 C 5,6 C 96 % 1027,8 hPa 0,0 mm 1,1 km/h (1 Bft) SO 142 0 min 0,000 mm 0,0 UV-I 67 W/m 5,0 C 1,6 km/h (1 Bft)
04.10.2016 08:22 5,7 C 5,7 C 96 % 1027,8 hPa 0,0 mm 0,8 km/h (0 Bft) SO 142 0 min 0,000 mm 0,0 UV-I 65 W/m 5,1 C 1,6 km/h (1 Bft)
04.10.2016 08:23 5,7 C 5,7 C 96 % 1027,8 hPa 0,0 mm 0,0 km/h (0 Bft) SO 142 0 min 0,000 mm 0,0 UV-I 60 W/m 5,1 C 0,0 km/h (0 Bft)
04.10.2016 08:24 5,7 C 5,7 C 95 % 1027,8 hPa 0,0 mm 0,0 km/h (0 Bft) SO 142 0 min 0,000 mm 0,0 UV-I 54 W/m 5,0 C 0,0 km/h (0 Bft)
04.10.2016 08:25 5,7 C 5,7 C 96 % 1027,8 hPa 0,0 mm 0,1 km/h (0 Bft) SO 142 0 min 0,000 mm 0,0 UV-I 49 W/m 5,1 C 1,6 km/h (1 Bft)
04.10.2016 08:26 5,8 C 5,8 C 96 % 1027,8 hPa 0,0 mm 0,9 km/h (0 Bft) SO 142 0 min 0,000 mm 0,0 UV-I 47 W/m 5,2 C 1,6 km/h (1 Bft)
04.10.2016 08:27 5,8 C 5,8 C 96 % 1027,8 hPa 0,0 mm 0,4 km/h (0 Bft) SO 142 0 min 0,000 mm 0,0 UV-I 46 W/m 5,2 C 1,6 km/h (1 Bft)
04.10.2016 08:28 5,8 C 5,8 C 96 % 1027,8 hPa 0,0 mm 1,8 km/h (1 Bft) SO 142 0 min 0,000 mm 0,0 UV-I 46 W/m 5,2 C 3,2 km/h (1 Bft)
04.10.2016 08:29 5,8 C 5,8 C 96 % 1027,7 hPa 0,0 mm 0,3 km/h (0 Bft) SO 142 0 min 0,000 mm 0,0 UV-I 46 W/m 5,2 C 1,6 km/h (1 Bft)
04.10.2016 08:30 5,8 C 5,8 C 96 % 1027,8 hPa 0,0 mm 1,0 km/h (0 Bft) SO 142 0 min 0,000 mm 0,0 UV-I 46 W/m 5,2 C 3,2 km/h (1 Bft)
04.10.2016 08:31 5,9 C 5,9 C 96 % 1027,8 hPa 0,0 mm 2,1 km/h (1 Bft) SO 142 0 min 0,000 mm 0,0 UV-I 47 W/m 5,3 C 3,2 km/h (1 Bft)
04.10.2016 08:32 5,9 C 5,9 C 96 % 1027,7 hPa 0,0 mm 1,0 km/h (0 Bft) SO 142 0 min 0,000 mm 0,0 UV-I 47 W/m 5,3 C 1,6 km/h (1 Bft)
04.10.2016 08:33 5,9 C 5,9 C 96 % 1027,8 hPa 0,0 mm 0,0 km/h (0 Bft) SO 142 0 min 0,000 mm 0,0 UV-I 49 W/m 5,3 C 0,0 km/h (0 Bft)
04.10.2016 08:34 5,9 C 5,9 C 95 % 1027,8 hPa 0,0 mm 0,1 km/h (0 Bft) SO 142 0 min 0,000 mm 0,0 UV-I 51 W/m 5,2 C 1,6 km/h (1 Bft)
04.10.2016 08:35 5,9 C 5,9 C 95 % 1027,9 hPa 0,0 mm 0,1 km/h (0 Bft) SO 142 0 min 0,000 mm 0,0 UV-I 53 W/m 5,2 C 1,6 km/h (1 Bft)
04.10.2016 08:36 6,0 C 6,0 C 95 % 1027,9 hPa 0,0 mm 0,3 km/h (0 Bft) SO 142 0 min 0,000 mm 0,0 UV-I 53 W/m 5,3 C 1,6 km/h (1 Bft)
04.10.2016 08:37 6,0 C 6,0 C 95 % 1027,9 hPa 0,0 mm 1,1 km/h (1 Bft) SO 142 0 min 0,000 mm 0,0 UV-I 56 W/m 5,3 C 3,2 km/h (1 Bft)
04.10.2016 08:38 6,1 C 6,1 C 95 % 1027,8 hPa 0,0 mm 0,3 km/h (0 Bft) SO 142 0 min 0,000 mm 0,0 UV-I 58 W/m 5,4 C 1,6 km/h (1 Bft)
04.10.2016 08:39 6,1 C 6,1 C 95 % 1027,9 hPa 0,0 mm 0,1 km/h (0 Bft) SO 142 0 min 0,000 mm 0,0 UV-I 60 W/m 5,4 C 1,6 km/h (1 Bft)
04.10.2016 08:40 6,0 C 6,1 C 95 % 1027,9 hPa 0,0 mm 0,1 km/h (0 Bft) SO 142 0 min 0,000 mm 0,0 UV-I 62 W/m 5,3 C 1,6 km/h (1 Bft)
04.10.2016 08:41 6,1 C 6,1 C 95 % 1027,9 hPa 0,0 mm 0,1 km/h (0 Bft) SO 142 0 min 0,000 mm 0,0 UV-I 65 W/m 5,4 C 1,6 km/h (1 Bft)
04.10.2016 08:42 6,1 C 6,1 C 95 % 1027,9 hPa 0,0 mm 0,9 km/h (0 Bft) SO 142 0 min 0,000 mm 0,0 UV-I 67 W/m 5,4 C 1,6 km/h (1 Bft)
04.10.2016 08:43 6,1 C 6,1 C 95 % 1027,9 hPa 0,0 mm 1,6 km/h (1 Bft) SO 142 0 min 0,000 mm 0,0 UV-I 74 W/m 5,4 C 3,2 km/h (1 Bft)
04.10.2016 08:44 6,2 C 6,2 C 95 % 1027,9 hPa 0,0 mm 1,9 km/h (1 Bft) SO 142 0 min 0,000 mm 0,5 UV-I 77 W/m 5,5 C 3,2 km/h (1 Bft)
04.10.2016 08:45 6,2 C 6,2 C 95 % 1027,9 hPa 0,0 mm 2,7 km/h (1 Bft) S-SO 155 0 min 0,000 mm 0,5 UV-I 83 W/m 5,5 C 3,2 km/h (1 Bft)
04.10.2016 08:46 6,2 C 6,2 C 95 % 1027,9 hPa 0,0 mm 2,6 km/h (1 Bft) S-SO 155 0 min 0,000 mm 0,5 UV-I 84 W/m 5,5 C 3,2 km/h (1 Bft)
04.10.2016 08:47 6,2 C 6,2 C 95 % 1027,9 hPa 0,0 mm 1,0 km/h (0 Bft) S-SO 155 0 min 0,000 mm 0,5 UV-I 83 W/m 5,5 C 1,6 km/h (1 Bft)
04.10.2016 08:48 6,2 C 6,3 C 95 % 1027,8 hPa 0,0 mm 2,4 km/h (1 Bft) S-SO 164 0 min 0,000 mm 0,5 UV-I 83 W/m 5,5 C 6,4 km/h (2 Bft)
04.10.2016 08:49 6,3 C 6,3 C 95 % 1027,8 hPa 0,0 mm 1,8 km/h (1 Bft) SW 227 0 min 0,000 mm 0,5 UV-I 74 W/m 5,6 C 3,2 km/h (1 Bft)
04.10.2016 08:50 6,3 C 6,3 C 95 % 1027,8 hPa 0,0 mm 0,1 km/h (0 Bft) SW 227 0 min 0,000 mm 0,5 UV-I 70 W/m 5,6 C 1,6 km/h (1 Bft)
04.10.2016 08:51 6,3 C 6,3 C 95 % 1027,8 hPa 0,0 mm 0,3 km/h (0 Bft) SW 227 0 min 0,000 mm 0,5 UV-I 69 W/m 5,6 C 1,6 km/h (1 Bft)
04.10.2016 08:52 6,4 C 6,4 C 95 % 1027,8 hPa 0,0 mm 0,1 km/h (0 Bft) SW 227 0 min 0,000 mm 0,5 UV-I 67 W/m 5,7 C 1,6 km/h (1 Bft)
04.10.2016 08:53 6,4 C 6,4 C 95 % 1027,9 hPa 0,0 mm 0,3 km/h (0 Bft) SW 227 0 min 0,000 mm 0,5 UV-I 65 W/m 5,7 C 1,6 km/h (1 Bft)
04.10.2016 08:54 6,4 C 6,5 C 95 % 1027,9 hPa 0,0 mm 0,4 km/h (0 Bft) SW 227 0 min 0,000 mm 0,6 UV-I 65 W/m 5,7 C 1,6 km/h (1 Bft)
04.10.2016 08:55 6,5 C 6,5 C 95 % 1027,9 hPa 0,0 mm 0,5 km/h (0 Bft) SW 227 0 min 0,000 mm 0,6 UV-I 69 W/m 5,8 C 1,6 km/h (1 Bft)
04.10.2016 08:56 6,4 C 6,5 C 95 % 1027,9 hPa 0,0 mm 0,1 km/h (0 Bft) SW 227 0 min 0,000 mm 0,6 UV-I 76 W/m 5,7 C 1,6 km/h (1 Bft)
04.10.2016 08:57 6,4 C 6,4 C 94 % 1027,9 hPa 0,0 mm 0,8 km/h (0 Bft) SW 227 0 min 0,000 mm 0,6 UV-I 76 W/m 5,5 C 1,6 km/h (1 Bft)
04.10.2016 08:58 6,4 C 6,4 C 94 % 1027,8 hPa 0,0 mm 0,5 km/h (0 Bft) SW 227 0 min 0,000 mm 0,6 UV-I 81 W/m 5,5 C 1,6 km/h (1 Bft)
04.10.2016 08:59 6,4 C 6,5 C 94 % 1027,8 hPa 0,0 mm 1,2 km/h (1 Bft) SW 227 0 min 0,000 mm 0,6 UV-I 84 W/m 5,5 C 1,6 km/h (1 Bft)
04.10.2016 09:00 6,4 C 6,5 C 94 % 1027,9 hPa 0,0 mm 0,7 km/h (0 Bft) SW 227 0 min 0,000 mm 0,7 UV-I 97 W/m 5,5 C 1,6 km/h (1 Bft)
04.10.2016 09:01 6,6 C 6,6 C 94 % 1027,9 hPa 0,0 mm 1,1 km/h (1 Bft) SW 227 0 min 0,025 mm 0,7 UV-I 104 W/m 5,7 C 3,2 km/h (1 Bft)
04.10.2016 09:02 6,6 C 6,6 C 95 % 1027,9 hPa 0,0 mm 1,5 km/h (1 Bft) SW 227 0 min 0,000 mm 0,7 UV-I 109 W/m 5,9 C 3,2 km/h (1 Bft)
04.10.2016 09:03 6,6 C 6,6 C 94 % 1027,9 hPa 0,0 mm 0,2 km/h (0 Bft) SW 227 0 min 0,000 mm 0,7 UV-I 111 W/m 5,7 C 1,6 km/h (1 Bft)
04.10.2016 09:04 6,6 C 6,6 C 94 % 1027,9 hPa 0,0 mm 1,9 km/h (1 Bft) SW 227 0 min 0,000 mm 0,7 UV-I 114 W/m 5,7 C 3,2 km/h (1 Bft)
04.10.2016 09:05 6,7 C 6,7 C 95 % 1027,9 hPa 0,0 mm 3,0 km/h (1 Bft) W-SW 247 0 min 0,000 mm 0,7 UV-I 118 W/m 6,0 C 4,8 km/h (1 Bft)
04.10.2016 09:06 6,7 C 6,7 C 94 % 1027,9 hPa 0,0 mm 1,9 km/h (1 Bft) W-SW 247 0 min 0,000 mm 0,7 UV-I 135 W/m 5,8 C 3,2 km/h (1 Bft)
04.10.2016 09:07 6,8 C 6,8 C 94 % 1027,9 hPa 0,0 mm 2,1 km/h (1 Bft) W-SW 247 0 min 0,000 mm 0,7 UV-I 139 W/m 5,9 C 3,2 km/h (1 Bft)
04.10.2016 09:08 6,9 C 6,9 C 94 % 1027,9 hPa 0,0 mm 1,8 km/h (1 Bft) W-SW 247 0 min 0,000 mm 0,7 UV-I 139 W/m 6,0 C 3,2 km/h (1 Bft)
04.10.2016 09:09 6,9 C 6,9 C 95 % 1027,9 hPa 0,0 mm 2,2 km/h (1 Bft) W-SW 250 0 min 0,000 mm 0,7 UV-I 134 W/m 6,2 C 3,2 km/h (1 Bft)
04.10.2016 09:10 7,1 C 7,1 C 95 % 1027,9 hPa 0,0 mm 2,0 km/h (1 Bft) W-SW 250 0 min 0,000 mm 0,7 UV-I 128 W/m 6,4 C 3,2 km/h (1 Bft)
04.10.2016 09:11 7,1 C 7,1 C 95 % 1027,9 hPa 0,0 mm 2,6 km/h (1 Bft) W 269 0 min 0,000 mm 0,7 UV-I 120 W/m 6,4 C 4,8 km/h (1 Bft)
04.10.2016 09:12 7,2 C 7,2 C 95 % 1027,9 hPa 0,0 mm 2,1 km/h (1 Bft) W 269 0 min 0,000 mm 0,7 UV-I 109 W/m 6,5 C 3,2 km/h (1 Bft)
04.10.2016 09:13 7,1 C 7,2 C 94 % 1027,9 hPa 0,0 mm 0,7 km/h (0 Bft) W 269 0 min 0,000 mm 0,6 UV-I 105 W/m 6,2 C 1,6 km/h (1 Bft)
04.10.2016 09:14 7,1 C 7,1 C 94 % 1027,9 hPa 0,0 mm 1,9 km/h (1 Bft) W 269 0 min 0,000 mm 0,6 UV-I 102 W/m 6,2 C 3,2 km/h (1 Bft)
04.10.2016 09:15 7,2 C 7,2 C 94 % 1027,9 hPa 0,0 mm 1,5 km/h (1 Bft) W 269 0 min 0,000 mm 0,6 UV-I 102 W/m 6,3 C 3,2 km/h (1 Bft)
04.10.2016 09:16 7,1 C 7,2 C 94 % 1027,9 hPa 0,0 mm 0,2 km/h (0 Bft) W 269 0 min 0,000 mm 0,6 UV-I 93 W/m 6,2 C 1,6 km/h (1 Bft)
04.10.2016 09:17 7,1 C 7,2 C 94 % 1027,9 hPa 0,0 mm 2,0 km/h (1 Bft) W 269 0 min 0,000 mm 0,6 UV-I 90 W/m 6,2 C 4,8 km/h (1 Bft)
04.10.2016 09:18 7,2 C 7,2 C 94 % 1027,9 hPa 0,0 mm 1,5 km/h (1 Bft) W 269 0 min 0,000 mm 0,6 UV-I 84 W/m 6,3 C 3,2 km/h (1 Bft)
04.10.2016 09:19 7,2 C 7,2 C 94 % 1027,9 hPa 0,0 mm 1,7 km/h (1 Bft) W 269 0 min 0,000 mm 0,5 UV-I 83 W/m 6,3 C 3,2 km/h (1 Bft)
04.10.2016 09:20 7,2 C 7,2 C 93 % 1027,9 hPa 0,0 mm 1,6 km/h (1 Bft) W 269 0 min 0,000 mm 0,5 UV-I 83 W/m 6,1 C 3,2 km/h (1 Bft)
04.10.2016 09:21 7,2 C 7,2 C 93 % 1027,9 hPa 0,0 mm 3,0 km/h (1 Bft) W 262 0 min 0,000 mm 0,5 UV-I 83 W/m 6,1 C 4,8 km/h (1 Bft)
04.10.2016 09:22 7,2 C 7,2 C 93 % 1027,9 hPa 0,0 mm 3,0 km/h (1 Bft) W 262 0 min 0,000 mm 0,5 UV-I 84 W/m 6,1 C 4,8 km/h (1 Bft)
04.10.2016 09:23 7,2 C 7,2 C 93 % 1027,9 hPa 0,0 mm 2,4 km/h (1 Bft) W 262 0 min 0,000 mm 0,5 UV-I 88 W/m 6,1 C 3,2 km/h (1 Bft)
04.10.2016 09:24 7,2 C 7,2 C 94 % 1027,9 hPa 0,0 mm 2,4 km/h (1 Bft) W 261 0 min 0,000 mm 0,6 UV-I 104 W/m 6,3 C 3,2 km/h (1 Bft)
04.10.2016 09:25 7,2 C 7,2 C 94 % 1027,9 hPa 0,0 mm 3,0 km/h (1 Bft) W 269 0 min 0,000 mm 0,6 UV-I 114 W/m 6,3 C 4,8 km/h (1 Bft)
04.10.2016 09:26 7,2 C 7,2 C 94 % 1027,9 hPa 0,0 mm 2,9 km/h (1 Bft) W 277 0 min 0,000 mm 0,6 UV-I 123 W/m 6,3 C 6,4 km/h (2 Bft)
04.10.2016 09:27 7,3 C 7,3 C 94 % 1027,9 hPa 0,0 mm 3,8 km/h (1 Bft) W-NW 283 0 min 0,000 mm 0,7 UV-I 134 W/m 6,4 C 4,8 km/h (1 Bft)
04.10.2016 09:28 7,3 C 7,3 C 94 % 1027,9 hPa 0,0 mm 3,4 km/h (1 Bft) W 281 0 min 0,000 mm 0,7 UV-I 137 W/m 6,4 C 4,8 km/h (1 Bft)
04.10.2016 09:29 7,3 C 7,3 C 94 % 1027,9 hPa 0,0 mm 3,2 km/h (1 Bft) W 281 0 min 0,000 mm 0,7 UV-I 128 W/m 6,4 C 4,8 km/h (1 Bft)
04.10.2016 09:30 7,3 C 7,3 C 93 % 1027,9 hPa 0,0 mm 2,5 km/h (1 Bft) W 281 0 min 0,000 mm 0,7 UV-I 127 W/m 6,2 C 3,2 km/h (1 Bft)
04.10.2016 09:31 7,3 C 7,3 C 93 % 1027,9 hPa 0,0 mm 2,3 km/h (1 Bft) W 281 0 min 0,000 mm 0,7 UV-I 125 W/m 6,2 C 3,2 km/h (1 Bft)
04.10.2016 09:32 7,4 C 7,4 C 93 % 1027,9 hPa 0,0 mm 2,3 km/h (1 Bft) W-NW 283 0 min 0,000 mm 0,7 UV-I 118 W/m 6,3 C 3,2 km/h (1 Bft)
04.10.2016 09:33 7,4 C 7,4 C 93 % 1027,9 hPa 0,0 mm 1,8 km/h (1 Bft) W-NW 283 0 min 0,000 mm 0,7 UV-I 113 W/m 6,3 C 3,2 km/h (1 Bft)
04.10.2016 09:34 7,4 C 7,4 C 93 % 1028,0 hPa 0,0 mm 0,9 km/h (0 Bft) W-NW 283 0 min 0,000 mm 0,7 UV-I 113 W/m 6,3 C 1,6 km/h (1 Bft)
04.10.2016 09:35 7,4 C 7,4 C 93 % 1027,9 hPa 0,0 mm 2,0 km/h (1 Bft) W-NW 284 0 min 0,000 mm 0,7 UV-I 114 W/m 6,3 C 3,2 km/h (1 Bft)
04.10.2016 09:36 7,4 C 7,4 C 93 % 1028,0 hPa 0,0 mm 2,1 km/h (1 Bft) W-NW 284 0 min 0,000 mm 0,7 UV-I 121 W/m 6,3 C 3,2 km/h (1 Bft)
04.10.2016 09:37 7,4 C 7,4 C 93 % 1028,0 hPa 0,0 mm 1,4 km/h (1 Bft) W-NW 284 0 min 0,000 mm 0,7 UV-I 125 W/m 6,3 C 1,6 km/h (1 Bft)
04.10.2016 09:38 7,4 C 7,4 C 93 % 1028,0 hPa 0,0 mm 1,5 km/h (1 Bft) W-NW 284 0 min 0,000 mm 0,8 UV-I 132 W/m 6,3 C 3,2 km/h (1 Bft)
04.10.2016 09:39 7,4 C 7,4 C 93 % 1027,9 hPa 0,0 mm 2,0 km/h (1 Bft) W-NW 284 0 min 0,000 mm 0,8 UV-I 135 W/m 6,3 C 3,2 km/h (1 Bft)
04.10.2016 09:40 7,4 C 7,4 C 93 % 1027,9 hPa 0,0 mm 1,2 km/h (1 Bft) W-NW 284 0 min 0,000 mm 0,8 UV-I 141 W/m 6,3 C 1,6 km/h (1 Bft)
04.10.2016 09:41 7,4 C 7,4 C 93 % 1028,0 hPa 0,0 mm 0,8 km/h (0 Bft) W-NW 284 0 min 0,000 mm 0,8 UV-I 142 W/m 6,3 C 1,6 km/h (1 Bft)
04.10.2016 09:42 7,4 C 7,4 C 93 % 1028,0 hPa 0,0 mm 0,2 km/h (0 Bft) W-NW 284 0 min 0,000 mm 0,8 UV-I 141 W/m 6,3 C 1,6 km/h (1 Bft)
04.10.2016 09:43 7,5 C 7,5 C 93 % 1028,0 hPa 0,0 mm 0,0 km/h (0 Bft) W-NW 284 0 min 0,000 mm 0,8 UV-I 137 W/m 6,4 C 0,0 km/h (0 Bft)
04.10.2016 09:44 7,5 C 7,5 C 93 % 1028,0 hPa 0,0 mm 0,3 km/h (0 Bft) W-NW 284 0 min 0,000 mm 0,8 UV-I 132 W/m 6,4 C 3,2 km/h (1 Bft)
04.10.2016 09:45 7,4 C 7,5 C 92 % 1028,0 hPa 0,0 mm 1,0 km/h (0 Bft) W-NW 284 0 min 0,000 mm 0,7 UV-I 121 W/m 6,2 C 3,2 km/h (1 Bft)
04.10.2016 09:46 7,5 C 7,5 C 92 % 1028,0 hPa 0,0 mm 1,2 km/h (1 Bft) W-NW 284 0 min 0,000 mm 0,7 UV-I 105 W/m 6,3 C 1,6 km/h (1 Bft)
04.10.2016 09:47 7,6 C 7,6 C 93 % 1028,1 hPa 0,0 mm 0,9 km/h (0 Bft) W-NW 284 0 min 0,000 mm 0,6 UV-I 72 W/m 6,5 C 1,6 km/h (1 Bft)
04.10.2016 09:48 7,6 C 7,6 C 93 % 1028,0 hPa 0,0 mm 1,7 km/h (1 Bft) W-NW 284 0 min 0,000 mm 0,6 UV-I 63 W/m 6,5 C 3,2 km/h (1 Bft)
04.10.2016 09:49 7,6 C 7,7 C 93 % 1028,0 hPa 0,0 mm 2,2 km/h (1 Bft) W-NW 284 0 min 0,000 mm 0,5 UV-I 60 W/m 6,5 C 3,2 km/h (1 Bft)
04.10.2016 09:50 7,7 C 7,7 C 93 % 1028,0 hPa 0,0 mm 1,6 km/h (1 Bft) W-NW 284 0 min 0,000 mm 0,5 UV-I 58 W/m 6,6 C 3,2 km/h (1 Bft)
04.10.2016 09:51 7,7 C 7,7 C 92 % 1028,0 hPa 0,0 mm 1,8 km/h (1 Bft) W-NW 284 0 min 0,000 mm 0,5 UV-I 56 W/m 6,5 C 3,2 km/h (1 Bft)
04.10.2016 09:52 7,7 C 7,7 C 92 % 1028,0 hPa 0,0 mm 0,8 km/h (0 Bft) W-NW 284 0 min 0,000 mm 0,5 UV-I 56 W/m 6,5 C 1,6 km/h (1 Bft)
04.10.2016 09:53 7,7 C 7,7 C 92 % 1028,0 hPa 0,0 mm 0,9 km/h (0 Bft) W-NW 284 0 min 0,000 mm 0,0 UV-I 51 W/m 6,5 C 1,6 km/h (1 Bft)
04.10.2016 09:54 7,6 C 7,7 C 92 % 1028,0 hPa 0,0 mm 0,9 km/h (0 Bft) W-NW 284 0 min 0,000 mm 0,0 UV-I 51 W/m 6,4 C 1,6 km/h (1 Bft)
04.10.2016 09:55 7,6 C 7,6 C 92 % 1028,0 hPa 0,0 mm 1,8 km/h (1 Bft) W-NW 284 0 min 0,000 mm 0,0 UV-I 53 W/m 6,4 C 3,2 km/h (1 Bft)
04.10.2016 09:56 7,6 C 7,6 C 92 % 1028,0 hPa 0,0 mm 1,4 km/h (1 Bft) W-NW 284 0 min 0,000 mm 0,0 UV-I 54 W/m 6,4 C 1,6 km/h (1 Bft)
04.10.2016 09:57 7,6 C 7,6 C 92 % 1028,0 hPa 0,0 mm 1,4 km/h (1 Bft) W-NW 284 0 min 0,000 mm 0,6 UV-I 60 W/m 6,4 C 3,2 km/h (1 Bft)
04.10.2016 09:58 7,6 C 7,6 C 92 % 1028,0 hPa 0,0 mm 2,2 km/h (1 Bft) W-NW 284 0 min 0,000 mm 0,6 UV-I 62 W/m 6,4 C 3,2 km/h (1 Bft)
04.10.2016 09:59 7,6 C 7,6 C 92 % 1028,1 hPa 0,0 mm 1,5 km/h (1 Bft) W-NW 284 0 min 0,000 mm 0,6 UV-I 65 W/m 6,4 C 3,2 km/h (1 Bft)
04.10.2016 10:00 7,7 C 7,7 C 92 % 1028,1 hPa 0,0 mm 1,5 km/h (1 Bft) W-NW 284 0 min 0,000 mm 0,6 UV-I 67 W/m 6,5 C 3,2 km/h (1 Bft)
04.10.2016 10:01 7,7 C 7,7 C 92 % 1028,1 hPa 0,0 mm 0,3 km/h (0 Bft) W-NW 284 0 min 0,051 mm 0,6 UV-I 69 W/m 6,5 C 1,6 km/h (1 Bft)
04.10.2016 10:02 7,7 C 7,7 C 92 % 1028,0 hPa 0,0 mm 1,2 km/h (1 Bft) W-NW 284 0 min 0,000 mm 0,6 UV-I 69 W/m 6,5 C 3,2 km/h (1 Bft)
04.10.2016 10:03 7,6 C 7,7 C 92 % 1028,1 hPa 0,0 mm 0,2 km/h (0 Bft) W-NW 284 0 min 0,000 mm 0,6 UV-I 69 W/m 6,4 C 1,6 km/h (1 Bft)
04.10.2016 10:04 7,7 C 7,7 C 92 % 1028,0 hPa 0,0 mm 0,2 km/h (0 Bft) W-NW 284 0 min 0,000 mm 0,6 UV-I 67 W/m 6,5 C 1,6 km/h (1 Bft)
04.10.2016 10:05 7,7 C 7,7 C 92 % 1028,0 hPa 0,0 mm 0,3 km/h (0 Bft) W-NW 284 0 min 0,000 mm 0,6 UV-I 63 W/m 6,5 C 1,6 km/h (1 Bft)
04.10.2016 10:06 7,6 C 7,7 C 92 % 1028,1 hPa 0,0 mm 0,3 km/h (0 Bft) W-NW 284 0 min 0,000 mm 0,6 UV-I 62 W/m 6,4 C 1,6 km/h (1 Bft)
04.10.2016 10:07 7,7 C 7,7 C 92 % 1028,1 hPa 0,0 mm 0,7 km/h (0 Bft) W-NW 284 0 min 0,000 mm 0,6 UV-I 60 W/m 6,5 C 3,2 km/h (1 Bft)
04.10.2016 10:08 7,7 C 7,7 C 92 % 1028,1 hPa 0,0 mm 0,5 km/h (0 Bft) W-NW 284 0 min 0,000 mm 0,6 UV-I 60 W/m 6,5 C 1,6 km/h (1 Bft)
04.10.2016 10:09 7,7 C 7,7 C 92 % 1028,1 hPa 0,0 mm 0,2 km/h (0 Bft) W-NW 284 0 min 0,000 mm 0,6 UV-I 58 W/m 6,5 C 1,6 km/h (1 Bft)
04.10.2016 10:10 7,7 C 7,7 C 92 % 1028,1 hPa 0,0 mm 1,0 km/h (0 Bft) W-NW 284 0 min 0,000 mm 0,6 UV-I 58 W/m 6,5 C 3,2 km/h (1 Bft)
04.10.2016 10:11 7,7 C 7,7 C 92 % 1028,1 hPa 0,0 mm 2,2 km/h (1 Bft) W-NW 284 0 min 0,000 mm 0,6 UV-I 56 W/m 6,5 C 3,2 km/h (1 Bft)
04.10.2016 10:12 7,7 C 7,7 C 92 % 1028,1 hPa 0,0 mm 1,3 km/h (1 Bft) W-NW 284 0 min 0,000 mm 0,5 UV-I 58 W/m 6,5 C 3,2 km/h (1 Bft)
04.10.2016 10:13 7,7 C 7,7 C 92 % 1028,1 hPa 0,0 mm 2,8 km/h (1 Bft) W-NW 291 0 min 0,000 mm 0,6 UV-I 62 W/m 6,5 C 3,2 km/h (1 Bft)
04.10.2016 10:14 7,7 C 7,7 C 91 % 1028,2 hPa 0,0 mm 2,0 km/h (1 Bft) W-NW 291 0 min 0,000 mm 0,6 UV-I 62 W/m 6,3 C 3,2 km/h (1 Bft)
04.10.2016 10:15 7,7 C 7,7 C 90 % 1028,1 hPa 0,0 mm 2,6 km/h (1 Bft) W-NW 292 0 min 0,000 mm 0,6 UV-I 67 W/m 6,2 C 4,8 km/h (1 Bft)
04.10.2016 10:16 7,7 C 7,7 C 90 % 1028,1 hPa 0,0 mm 0,8 km/h (0 Bft) W-NW 292 0 min 0,000 mm 0,6 UV-I 70 W/m 6,2 C 1,6 km/h (1 Bft)
04.10.2016 10:17 7,7 C 7,7 C 90 % 1028,1 hPa 0,0 mm 0,1 km/h (0 Bft) W-NW 292 0 min 0,000 mm 0,6 UV-I 70 W/m 6,2 C 1,6 km/h (1 Bft)
04.10.2016 10:18 7,7 C 7,7 C 91 % 1028,1 hPa 0,0 mm 0,0 km/h (0 Bft) W-NW 292 0 min 0,000 mm 0,7 UV-I 83 W/m 6,3 C 0,0 km/h (0 Bft)
04.10.2016 10:19 7,7 C 7,7 C 90 % 1028,1 hPa 0,0 mm 0,1 km/h (0 Bft) W-NW 292 0 min 0,000 mm 0,7 UV-I 98 W/m 6,2 C 1,6 km/h (1 Bft)
04.10.2016 10:20 7,8 C 7,8 C 92 % 1028,1 hPa 0,0 mm 0,7 km/h (0 Bft) W-NW 292 0 min 0,000 mm 0,7 UV-I 104 W/m 6,6 C 1,6 km/h (1 Bft)
04.10.2016 10:21 7,8 C 7,8 C 92 % 1028,1 hPa 0,0 mm 0,6 km/h (0 Bft) W-NW 292 0 min 0,000 mm 0,8 UV-I 105 W/m 6,6 C 1,6 km/h (1 Bft)
04.10.2016 10:22 7,8 C 7,8 C 91 % 1028,1 hPa 0,0 mm 2,5 km/h (1 Bft) W-NW 292 0 min 0,000 mm 0,8 UV-I 109 W/m 6,4 C 3,2 km/h (1 Bft)
04.10.2016 10:23 7,7 C 7,8 C 90 % 1028,0 hPa 0,0 mm 1,2 km/h (1 Bft) W-NW 292 0 min 0,000 mm 0,8 UV-I 111 W/m 6,2 C 3,2 km/h (1 Bft)
04.10.2016 10:24 7,8 C 7,8 C 90 % 1028,0 hPa 0,0 mm 0,3 km/h (0 Bft) W-NW 292 0 min 0,000 mm 0,8 UV-I 114 W/m 6,3 C 1,6 km/h (1 Bft)
04.10.2016 10:25 7,8 C 7,8 C 90 % 1028,0 hPa 0,0 mm 2,7 km/h (1 Bft) W-NW 298 0 min 0,000 mm 0,8 UV-I 118 W/m 6,3 C 4,8 km/h (1 Bft)
04.10.2016 10:26 7,8 C 7,8 C 91 % 1028,0 hPa 0,0 mm 4,3 km/h (1 Bft) NW 306 0 min 0,000 mm 0,8 UV-I 120 W/m 6,4 C 6,4 km/h (2 Bft)
04.10.2016 10:27 7,8 C 7,8 C 91 % 1028,0 hPa 0,0 mm 3,2 km/h (1 Bft) NW 306 0 min 0,000 mm 0,8 UV-I 118 W/m 6,4 C 4,8 km/h (1 Bft)
04.10.2016 10:28 7,9 C 7,9 C 91 % 1028,0 hPa 0,0 mm 2,5 km/h (1 Bft) W-NW 299 0 min 0,000 mm 0,8 UV-I 113 W/m 6,5 C 3,2 km/h (1 Bft)
04.10.2016 10:29 7,9 C 7,9 C 91 % 1028,0 hPa 0,0 mm 3,3 km/h (1 Bft) W 281 0 min 0,000 mm 0,7 UV-I 107 W/m 6,5 C 4,8 km/h (1 Bft)
04.10.2016 10:30 8,0 C 8,0 C 91 % 1028,1 hPa 0,0 mm 3,6 km/h (1 Bft) W 273 0 min 0,000 mm 0,7 UV-I 104 W/m 6,6 C 4,8 km/h (1 Bft)
04.10.2016 10:31 7,9 C 8,0 C 90 % 1028,1 hPa 0,0 mm 2,3 km/h (1 Bft) W 273 0 min 0,000 mm 0,7 UV-I 104 W/m 6,4 C 4,8 km/h (1 Bft)
04.10.2016 10:32 7,9 C 7,9 C 90 % 1028,1 hPa 0,0 mm 3,8 km/h (1 Bft) W 279 0 min 0,000 mm 0,7 UV-I 104 W/m 6,4 C 6,4 km/h (2 Bft)
04.10.2016 10:33 8,0 C 8,0 C 90 % 1028,1 hPa 0,0 mm 3,9 km/h (1 Bft) W 261 0 min 0,000 mm 0,8 UV-I 104 W/m 6,5 C 6,4 km/h (2 Bft)
04.10.2016 10:34 8,0 C 8,0 C 91 % 1028,1 hPa 0,0 mm 2,0 km/h (1 Bft) W 273 0 min 0,000 mm 0,8 UV-I 113 W/m 6,6 C 3,2 km/h (1 Bft)
04.10.2016 10:35 8,0 C 8,0 C 89 % 1028,1 hPa 0,0 mm 0,9 km/h (0 Bft) W 273 0 min 0,000 mm 0,9 UV-I 116 W/m 6,3 C 3,2 km/h (1 Bft)
04.10.2016 10:36 8,0 C 8,0 C 90 % 1028,1 hPa 0,0 mm 2,6 km/h (1 Bft) W 273 0 min 0,000 mm 0,9 UV-I 121 W/m 6,5 C 4,8 km/h (1 Bft)
04.10.2016 10:37 8,0 C 8,0 C 89 % 1028,1 hPa 0,0 mm 1,1 km/h (1 Bft) W 273 0 min 0,000 mm 1,0 UV-I 123 W/m 6,3 C 1,6 km/h (1 Bft)
04.10.2016 10:38 8,0 C 8,0 C 89 % 1028,2 hPa 0,0 mm 0,8 km/h (0 Bft) W-NW 284 0 min 0,000 mm 1,0 UV-I 125 W/m 6,3 C 3,2 km/h (1 Bft)
04.10.2016 10:39 8,0 C 8,0 C 90 % 1028,2 hPa 0,0 mm 2,2 km/h (1 Bft) NW 304 0 min 0,000 mm 1,1 UV-I 128 W/m 6,5 C 4,8 km/h (1 Bft)
04.10.2016 10:40 8,1 C 8,1 C 90 % 1028,2 hPa 0,0 mm 2,6 km/h (1 Bft) NW 320 0 min 0,000 mm 1,1 UV-I 132 W/m 6,6 C 3,2 km/h (1 Bft)
04.10.2016 10:41 8,1 C 8,1 C 90 % 1028,2 hPa 0,0 mm 3,0 km/h (1 Bft) NW 325 0 min 0,000 mm 1,2 UV-I 135 W/m 6,6 C 4,8 km/h (1 Bft)
04.10.2016 10:42 8,2 C 8,2 C 89 % 1028,3 hPa 0,0 mm 1,7 km/h (1 Bft) NW 325 0 min 0,000 mm 1,3 UV-I 141 W/m 6,5 C 4,8 km/h (1 Bft)
04.10.2016 10:43 8,1 C 8,2 C 88 % 1028,2 hPa 0,0 mm 0,5 km/h (0 Bft) NW 325 0 min 0,000 mm 1,3 UV-I 148 W/m 6,2 C 1,6 km/h (1 Bft)
04.10.2016 10:44 8,2 C 8,2 C 89 % 1028,2 hPa 0,0 mm 0,2 km/h (0 Bft) NW 325 0 min 0,000 mm 1,3 UV-I 156 W/m 6,5 C 1,6 km/h (1 Bft)
04.10.2016 10:45 8,2 C 8,2 C 88 % 1028,2 hPa 0,0 mm 0,2 km/h (0 Bft) NW 325 0 min 0,000 mm 1,3 UV-I 165 W/m 6,3 C 1,6 km/h (1 Bft)
04.10.2016 10:46 8,2 C 8,2 C 89 % 1028,2 hPa 0,0 mm 2,2 km/h (1 Bft) NW 325 0 min 0,000 mm 1,3 UV-I 169 W/m 6,5 C 3,2 km/h (1 Bft)
04.10.2016 10:47 8,3 C 8,3 C 89 % 1028,2 hPa 0,0 mm 3,4 km/h (1 Bft) NW 321 0 min 0,000 mm 1,3 UV-I 171 W/m 6,6 C 4,8 km/h (1 Bft)
04.10.2016 10:48 8,3 C 8,3 C 90 % 1028,2 hPa 0,0 mm 2,3 km/h (1 Bft) NW 321 0 min 0,000 mm 1,3 UV-I 172 W/m 6,8 C 3,2 km/h (1 Bft)
04.10.2016 10:49 8,3 C 8,3 C 88 % 1028,2 hPa 0,0 mm 2,2 km/h (1 Bft) NW 321 0 min 0,000 mm 1,4 UV-I 178 W/m 6,4 C 3,2 km/h (1 Bft)
04.10.2016 10:50 8,3 C 8,3 C 88 % 1028,2 hPa 0,0 mm 1,3 km/h (1 Bft) NW 321 0 min 0,000 mm 1,4 UV-I 185 W/m 6,4 C 3,2 km/h (1 Bft)
04.10.2016 10:51 8,2 C 8,3 C 88 % 1028,2 hPa 0,0 mm 1,5 km/h (1 Bft) NW 321 0 min 0,000 mm 1,5 UV-I 192 W/m 6,3 C 3,2 km/h (1 Bft)
04.10.2016 10:52 8,3 C 8,3 C 88 % 1028,2 hPa 0,0 mm 2,1 km/h (1 Bft) NW 321 0 min 0,000 mm 1,5 UV-I 197 W/m 6,4 C 3,2 km/h (1 Bft)
04.10.2016 10:53 8,4 C 8,4 C 89 % 1028,2 hPa 0,0 mm 2,5 km/h (1 Bft) NW 321 0 min 0,000 mm 1,6 UV-I 192 W/m 6,7 C 3,2 km/h (1 Bft)
04.10.2016 10:54 8,4 C 8,4 C 90 % 1028,2 hPa 0,0 mm 3,9 km/h (1 Bft) NW 304 0 min 0,000 mm 1,6 UV-I 192 W/m 6,9 C 6,4 km/h (2 Bft)
04.10.2016 10:55 8,4 C 8,4 C 88 % 1028,1 hPa 0,0 mm 4,4 km/h (1 Bft) W-NW 286 0 min 0,000 mm 1,7 UV-I 193 W/m 6,5 C 6,4 km/h (2 Bft)
04.10.2016 10:56 8,4 C 8,4 C 89 % 1028,2 hPa 0,0 mm 3,4 km/h (1 Bft) W 280 0 min 0,000 mm 1,7 UV-I 221 W/m 6,7 C 4,8 km/h (1 Bft)
04.10.2016 10:57 8,5 C 8,5 C 89 % 1028,1 hPa 0,0 mm 0,8 km/h (0 Bft) W 280 0 min 0,000 mm 2,0 UV-I 257 W/m 6,8 C 3,2 km/h (1 Bft)
04.10.2016 10:58 8,6 C 8,6 C 90 % 1028,2 hPa 0,0 mm 2,6 km/h (1 Bft) NW 305 0 min 0,000 mm 1,8 UV-I 192 W/m 7,1 C 4,8 km/h (1 Bft)
04.10.2016 10:59 8,6 C 8,6 C 88 % 1028,1 hPa 0,0 mm 4,1 km/h (1 Bft) W-NW 299 0 min 0,000 mm 1,6 UV-I 181 W/m 6,7 C 6,4 km/h (2 Bft)
04.10.2016 11:00 8,6 C 8,6 C 88 % 1028,1 hPa 0,0 mm 3,5 km/h (1 Bft) W-NW 292 0 min 0,000 mm 1,6 UV-I 181 W/m 6,7 C 4,8 km/h (1 Bft)
04.10.2016 11:01 8,6 C 8,6 C 89 % 1028,1 hPa 0,0 mm 3,2 km/h (1 Bft) W-NW 294 0 min 0,051 mm 1,6 UV-I 181 W/m 6,9 C 4,8 km/h (1 Bft)
04.10.2016 11:02 8,7 C 8,7 C 89 % 1028,1 hPa 0,0 mm 3,2 km/h (1 Bft) W-NW 300 0 min 0,000 mm 1,7 UV-I 190 W/m 7,0 C 4,8 km/h (1 Bft)
04.10.2016 11:03 8,6 C 8,7 C 87 % 1028,2 hPa 0,0 mm 2,3 km/h (1 Bft) W-NW 294 0 min 0,000 mm 1,8 UV-I 213 W/m 6,6 C 3,2 km/h (1 Bft)
04.10.2016 11:04 8,6 C 8,6 C 88 % 1028,1 hPa 0,0 mm 2,8 km/h (1 Bft) W-NW 295 0 min 0,000 mm 2,2 UV-I 241 W/m 6,7 C 3,2 km/h (1 Bft)
04.10.2016 11:05 8,7 C 8,7 C 88 % 1028,2 hPa 0,0 mm 2,6 km/h (1 Bft) W-NW 294 0 min 0,000 mm 2,4 UV-I 241 W/m 6,8 C 4,8 km/h (1 Bft)
04.10.2016 11:06 8,8 C 8,8 C 88 % 1028,1 hPa 0,0 mm 3,4 km/h (1 Bft) W-NW 303 0 min 0,000 mm 2,0 UV-I 241 W/m 6,9 C 6,4 km/h (2 Bft)
04.10.2016 11:07 8,8 C 8,8 C 87 % 1028,2 hPa 0,0 mm 3,5 km/h (1 Bft) NW 306 0 min 0,000 mm 1,8 UV-I 255 W/m 6,8 C 6,4 km/h (2 Bft)
04.10.2016 11:08 8,9 C 8,9 C 89 % 1028,2 hPa 0,0 mm 3,8 km/h (1 Bft) NW 316 0 min 0,000 mm 1,8 UV-I 232 W/m 7,2 C 6,4 km/h (2 Bft)
04.10.2016 11:09 9,0 C 9,0 C 88 % 1028,2 hPa 0,0 mm 3,1 km/h (1 Bft) NW 323 0 min 0,000 mm 1,7 UV-I 211 W/m 7,1 C 6,4 km/h (2 Bft)
04.10.2016 11:10 9,0 C 9,0 C 87 % 1028,2 hPa 0,0 mm 3,8 km/h (1 Bft) N-NW 342 0 min 0,000 mm 1,7 UV-I 211 W/m 7,0 C 6,4 km/h (2 Bft)
04.10.2016 11:11 9,0 C 9,0 C 87 % 1028,2 hPa 0,0 mm 3,8 km/h (1 Bft) NW 322 0 min 0,000 mm 1,7 UV-I 211 W/m 7,0 C 6,4 km/h (2 Bft)
04.10.2016 11:12 9,0 C 9,0 C 87 % 1028,2 hPa 0,0 mm 3,6 km/h (1 Bft) NW 319 0 min 0,000 mm 1,7 UV-I 211 W/m 7,0 C 6,4 km/h (2 Bft)
04.10.2016 11:13 8,9 C 9,0 C 85 % 1028,3 hPa 0,0 mm 4,4 km/h (1 Bft) NW 317 0 min 0,000 mm 1,7 UV-I 211 W/m 6,5 C 6,4 km/h (2 Bft)
04.10.2016 11:14 8,9 C 8,9 C 86 % 1028,3 hPa 0,0 mm 3,0 km/h (1 Bft) NW 317 0 min 0,000 mm 1,7 UV-I 209 W/m 6,7 C 4,8 km/h (1 Bft)
04.10.2016 11:15 8,9 C 9,0 C 86 % 1028,3 hPa 0,0 mm 2,0 km/h (1 Bft) NW 317 0 min 0,000 mm 1,7 UV-I 202 W/m 6,7 C 3,2 km/h (1 Bft)
04.10.2016 11:16 9,0 C 9,0 C 87 % 1028,2 hPa 0,0 mm 2,1 km/h (1 Bft) NW 317 0 min 0,000 mm 1,6 UV-I 200 W/m 7,0 C 3,2 km/h (1 Bft)
04.10.2016 11:17 9,0 C 9,0 C 86 % 1028,3 hPa 0,0 mm 2,8 km/h (1 Bft) NW 323 0 min 0,000 mm 1,6 UV-I 199 W/m 6,8 C 4,8 km/h (1 Bft)
04.10.2016 11:18 8,9 C 9,0 C 86 % 1028,3 hPa 0,0 mm 3,2 km/h (1 Bft) NW 323 0 min 0,000 mm 1,6 UV-I 195 W/m 6,7 C 4,8 km/h (1 Bft)
04.10.2016 11:19 8,8 C 8,9 C 85 % 1028,3 hPa 0,0 mm 2,9 km/h (1 Bft) NW 325 0 min 0,000 mm 1,5 UV-I 192 W/m 6,4 C 4,8 km/h (1 Bft)
04.10.2016 11:20 8,9 C 8,9 C 87 % 1028,3 hPa 0,0 mm 3,8 km/h (1 Bft) W 279 0 min 0,000 mm 1,5 UV-I 188 W/m 6,9 C 6,4 km/h (2 Bft)
04.10.2016 11:21 8,9 C 8,9 C 85 % 1028,3 hPa 0,0 mm 3,9 km/h (1 Bft) NW 308 0 min 0,000 mm 1,5 UV-I 186 W/m 6,5 C 4,8 km/h (1 Bft)
04.10.2016 11:22 8,9 C 8,9 C 86 % 1028,3 hPa 0,0 mm 1,1 km/h (1 Bft) NW 308 0 min 0,000 mm 1,5 UV-I 186 W/m 6,7 C 3,2 km/h (1 Bft)
04.10.2016 11:23 8,9 C 8,9 C 86 % 1028,3 hPa 0,0 mm 0,0 km/h (0 Bft) NW 308 0 min 0,000 mm 1,5 UV-I 188 W/m 6,7 C 0,0 km/h (0 Bft)
04.10.2016 11:24 8,9 C 8,9 C 85 % 1028,3 hPa 0,0 mm 1,2 km/h (1 Bft) NW 308 0 min 0,000 mm 1,5 UV-I 186 W/m 6,5 C 3,2 km/h (1 Bft)
04.10.2016 11:25 8,9 C 8,9 C 85 % 1028,3 hPa 0,0 mm 2,7 km/h (1 Bft) W-SW 250 0 min 0,000 mm 1,4 UV-I 185 W/m 6,5 C 4,8 km/h (1 Bft)
04.10.2016 11:26 8,8 C 8,9 C 86 % 1028,3 hPa 0,0 mm 3,2 km/h (1 Bft) W-SW 252 0 min 0,000 mm 1,4 UV-I 181 W/m 6,6 C 3,2 km/h (1 Bft)
04.10.2016 11:27 8,9 C 8,9 C 87 % 1028,3 hPa 0,0 mm 3,4 km/h (1 Bft) W-SW 252 0 min 0,000 mm 1,4 UV-I 176 W/m 6,9 C 4,8 km/h (1 Bft)
04.10.2016 11:28 8,9 C 8,9 C 87 % 1028,3 hPa 0,0 mm 4,3 km/h (1 Bft) W-SW 238 0 min 0,000 mm 1,3 UV-I 174 W/m 6,9 C 6,4 km/h (2 Bft)
04.10.2016 11:29 8,9 C 8,9 C 87 % 1028,3 hPa 0,0 mm 4,2 km/h (1 Bft) W-SW 253 0 min 0,000 mm 1,3 UV-I 171 W/m 6,9 C 6,4 km/h (2 Bft)
04.10.2016 11:30 8,9 C 8,9 C 87 % 1028,3 hPa 0,0 mm 2,9 km/h (1 Bft) W-SW 254 0 min 0,000 mm 1,3 UV-I 165 W/m 6,9 C 4,8 km/h (1 Bft)
04.10.2016 11:31 9,0 C 9,0 C 86 % 1028,3 hPa 0,0 mm 1,5 km/h (1 Bft) W-SW 254 0 min 0,000 mm 1,2 UV-I 156 W/m 6,8 C 3,2 km/h (1 Bft)
04.10.2016 11:32 9,1 C 9,1 C 86 % 1028,3 hPa 0,0 mm 1,2 km/h (1 Bft) W 280 0 min 0,000 mm 1,2 UV-I 149 W/m 6,9 C 4,8 km/h (1 Bft)
04.10.2016 11:33 9,0 C 9,1 C 86 % 1028,3 hPa 0,0 mm 4,2 km/h (1 Bft) W-NW 296 0 min 0,000 mm 1,1 UV-I 139 W/m 6,8 C 6,4 km/h (2 Bft)
04.10.2016 11:34 9,1 C 9,1 C 86 % 1028,3 hPa 0,0 mm 3,1 km/h (1 Bft) W-NW 302 0 min 0,000 mm 1,1 UV-I 135 W/m 6,9 C 3,2 km/h (1 Bft)
04.10.2016 11:35 9,1 C 9,1 C 87 % 1028,3 hPa 0,0 mm 3,8 km/h (1 Bft) W-NW 302 0 min 0,000 mm 1,1 UV-I 135 W/m 7,1 C 4,8 km/h (1 Bft)
04.10.2016 11:36 9,1 C 9,1 C 86 % 1028,3 hPa 0,0 mm 3,7 km/h (1 Bft) W-NW 299 0 min 0,000 mm 1,1 UV-I 141 W/m 6,9 C 4,8 km/h (1 Bft)
04.10.2016 11:37 9,0 C 9,1 C 83 % 1028,3 hPa 0,0 mm 2,4 km/h (1 Bft) W-NW 300 0 min 0,000 mm 1,1 UV-I 146 W/m 6,3 C 3,2 km/h (1 Bft)
04.10.2016 11:38 8,9 C 9,0 C 84 % 1028,3 hPa 0,0 mm 1,2 km/h (1 Bft) W-NW 300 0 min 0,000 mm 1,2 UV-I 151 W/m 6,3 C 3,2 km/h (1 Bft)
04.10.2016 11:39 8,9 C 9,0 C 85 % 1028,3 hPa 0,0 mm 2,0 km/h (1 Bft) W-NW 300 0 min 0,000 mm 1,2 UV-I 153 W/m 6,5 C 3,2 km/h (1 Bft)
04.10.2016 11:40 8,9 C 8,9 C 84 % 1028,3 hPa 0,0 mm 1,9 km/h (1 Bft) W-NW 300 0 min 0,000 mm 1,2 UV-I 153 W/m 6,3 C 3,2 km/h (1 Bft)
04.10.2016 11:41 8,9 C 8,9 C 84 % 1028,3 hPa 0,0 mm 1,6 km/h (1 Bft) W-NW 300 0 min 0,000 mm 1,2 UV-I 153 W/m 6,3 C 3,2 km/h (1 Bft)
04.10.2016 11:42 8,9 C 8,9 C 85 % 1028,3 hPa 0,0 mm 1,0 km/h (0 Bft) W-NW 300 0 min 0,000 mm 1,2 UV-I 155 W/m 6,5 C 3,2 km/h (1 Bft)
04.10.2016 11:43 8,9 C 8,9 C 85 % 1028,3 hPa 0,0 mm 2,3 km/h (1 Bft) W-NW 300 0 min 0,000 mm 1,2 UV-I 160 W/m 6,5 C 4,8 km/h (1 Bft)
04.10.2016 11:44 8,9 C 8,9 C 85 % 1028,2 hPa 0,0 mm 0,5 km/h (0 Bft) W-NW 300 0 min 0,000 mm 1,2 UV-I 162 W/m 6,5 C 1,6 km/h (1 Bft)
04.10.2016 11:45 8,9 C 8,9 C 83 % 1028,2 hPa 0,0 mm 0,8 km/h (0 Bft) W-NW 300 0 min 0,000 mm 1,2 UV-I 160 W/m 6,2 C 1,6 km/h (1 Bft)
04.10.2016 11:46 8,9 C 8,9 C 86 % 1028,2 hPa 0,0 mm 0,8 km/h (0 Bft) W-NW 300 0 min 0,000 mm 1,2 UV-I 156 W/m 6,7 C 1,6 km/h (1 Bft)
04.10.2016 11:47 9,0 C 9,0 C 86 % 1028,2 hPa 0,0 mm 0,3 km/h (0 Bft) W-NW 300 0 min 0,000 mm 1,2 UV-I 151 W/m 6,8 C 1,6 km/h (1 Bft)
04.10.2016 11:48 9,0 C 9,0 C 85 % 1028,2 hPa 0,0 mm 2,4 km/h (1 Bft) W-NW 301 0 min 0,000 mm 1,1 UV-I 148 W/m 6,6 C 3,2 km/h (1 Bft)
04.10.2016 11:49 9,0 C 9,0 C 84 % 1028,2 hPa 0,0 mm 1,7 km/h (1 Bft) W-NW 301 0 min 0,000 mm 1,1 UV-I 148 W/m 6,4 C 3,2 km/h (1 Bft)
04.10.2016 11:50 8,9 C 9,0 C 84 % 1028,2 hPa 0,0 mm 1,1 km/h (1 Bft) W-NW 301 0 min 0,000 mm 1,1 UV-I 151 W/m 6,3 C 1,6 km/h (1 Bft)
04.10.2016 11:51 9,0 C 9,0 C 86 % 1028,2 hPa 0,0 mm 2,4 km/h (1 Bft) W-NW 301 0 min 0,000 mm 1,1 UV-I 153 W/m 6,8 C 3,2 km/h (1 Bft)
04.10.2016 11:52 9,1 C 9,1 C 87 % 1028,2 hPa 0,0 mm 3,2 km/h (1 Bft) W-NW 300 0 min 0,000 mm 1,2 UV-I 156 W/m 7,1 C 3,2 km/h (1 Bft)
04.10.2016 11:53 9,1 C 9,1 C 84 % 1028,2 hPa 0,0 mm 1,6 km/h (1 Bft) W-NW 300 0 min 0,000 mm 1,3 UV-I 162 W/m 6,5 C 3,2 km/h (1 Bft)
04.10.2016 11:54 9,0 C 9,1 C 84 % 1028,2 hPa 0,0 mm 1,7 km/h (1 Bft) W-NW 300 0 min 0,000 mm 1,3 UV-I 171 W/m 6,4 C 3,2 km/h (1 Bft)
04.10.2016 11:55 9,1 C 9,1 C 85 % 1028,2 hPa 0,0 mm 2,5 km/h (1 Bft) NW 304 0 min 0,000 mm 1,4 UV-I 178 W/m 6,7 C 4,8 km/h (1 Bft)
04.10.2016 11:56 9,1 C 9,1 C 87 % 1028,2 hPa 0,0 mm 2,0 km/h (1 Bft) NW 307 0 min 0,000 mm 1,4 UV-I 188 W/m 7,1 C 4,8 km/h (1 Bft)
04.10.2016 11:57 9,1 C 9,1 C 86 % 1028,2 hPa 0,0 mm 4,0 km/h (1 Bft) NW 308 0 min 0,000 mm 1,5 UV-I 192 W/m 6,9 C 6,4 km/h (2 Bft)
04.10.2016 11:58 9,1 C 9,2 C 85 % 1028,2 hPa 0,0 mm 1,9 km/h (1 Bft) NW 308 0 min 0,000 mm 1,5 UV-I 193 W/m 6,7 C 3,2 km/h (1 Bft)
04.10.2016 11:59 9,1 C 9,2 C 85 % 1028,2 hPa 0,0 mm 2,9 km/h (1 Bft) NW 308 0 min 0,000 mm 1,5 UV-I 197 W/m 6,7 C 3,2 km/h (1 Bft)
04.10.2016 12:00 9,2 C 9,2 C 85 % 1028,2 hPa 0,0 mm 3,4 km/h (1 Bft) NW 306 0 min 0,000 mm 1,6 UV-I 199 W/m 6,8 C 4,8 km/h (1 Bft)
04.10.2016 12:01 9,2 C 9,2 C 86 % 1028,2 hPa 0,0 mm 4,5 km/h (1 Bft) NW 318 0 min 0,076 mm 1,6 UV-I 204 W/m 7,0 C 6,4 km/h (2 Bft)
04.10.2016 12:02 9,3 C 9,3 C 84 % 1028,2 hPa 0,0 mm 5,4 km/h (1 Bft) N-NW 340 0 min 0,000 mm 1,7 UV-I 213 W/m 6,7 C 6,4 km/h (2 Bft)
04.10.2016 12:03 9,2 C 9,3 C 84 % 1028,2 hPa 0,0 mm 2,1 km/h (1 Bft) N-NW 340 0 min 0,000 mm 1,7 UV-I 216 W/m 6,6 C 4,8 km/h (1 Bft)
04.10.2016 12:04 9,2 C 9,2 C 83 % 1028,2 hPa 0,0 mm 1,4 km/h (1 Bft) N-NW 340 0 min 0,000 mm 1,7 UV-I 220 W/m 6,5 C 3,2 km/h (1 Bft)
04.10.2016 12:05 9,2 C 9,2 C 85 % 1028,2 hPa 0,0 mm 1,2 km/h (1 Bft) N-NW 348 0 min 0,000 mm 1,7 UV-I 221 W/m 6,8 C 3,2 km/h (1 Bft)
04.10.2016 12:06 9,2 C 9,2 C 84 % 1028,2 hPa 0,0 mm 2,7 km/h (1 Bft) N 350 0 min 0,000 mm 1,7 UV-I 227 W/m 6,6 C 4,8 km/h (1 Bft)
04.10.2016 12:07 9,2 C 9,2 C 83 % 1028,2 hPa 0,0 mm 2,4 km/h (1 Bft) N 350 0 min 0,000 mm 1,8 UV-I 237 W/m 6,5 C 3,2 km/h (1 Bft)
04.10.2016 12:08 9,2 C 9,2 C 83 % 1028,2 hPa 0,0 mm 3,0 km/h (1 Bft) W-NW 300 0 min 0,000 mm 1,9 UV-I 255 W/m 6,5 C 4,8 km/h (1 Bft)
04.10.2016 12:09 9,3 C 9,3 C 84 % 1028,1 hPa 0,0 mm 3,4 km/h (1 Bft) N-NW 334 0 min 0,000 mm 1,9 UV-I 255 W/m 6,7 C 4,8 km/h (1 Bft)
04.10.2016 12:10 9,3 C 9,3 C 84 % 1028,1 hPa 0,0 mm 5,0 km/h (1 Bft) N 350 0 min 0,000 mm 1,9 UV-I 253 W/m 6,7 C 6,4 km/h (2 Bft)
04.10.2016 12:11 9,3 C 9,3 C 83 % 1028,2 hPa 0,0 mm 1,7 km/h (1 Bft) N 350 0 min 0,000 mm 1,9 UV-I 246 W/m 6,6 C 3,2 km/h (1 Bft)
04.10.2016 12:12 9,3 C 9,3 C 84 % 1028,2 hPa 0,0 mm 2,4 km/h (1 Bft) N-NW 346 0 min 0,000 mm 1,8 UV-I 236 W/m 6,7 C 4,8 km/h (1 Bft)
04.10.2016 12:13 9,4 C 9,4 C 84 % 1028,2 hPa 0,0 mm 4,1 km/h (1 Bft) W-NW 298 0 min 0,000 mm 1,7 UV-I 227 W/m 6,8 C 4,8 km/h (1 Bft)
04.10.2016 12:14 9,4 C 9,4 C 85 % 1028,2 hPa 0,0 mm 3,6 km/h (1 Bft) N-NW 342 0 min 0,000 mm 1,6 UV-I 204 W/m 7,0 C 4,8 km/h (1 Bft)
04.10.2016 12:15 9,5 C 9,5 C 84 % 1028,2 hPa 0,0 mm 6,2 km/h (2 Bft) NW 323 0 min 0,000 mm 1,5 UV-I 197 W/m 6,9 C 8,0 km/h (2 Bft)
04.10.2016 12:16 9,4 C 9,5 C 83 % 1028,2 hPa 0,0 mm 1,7 km/h (1 Bft) NW 323 0 min 0,000 mm 1,4 UV-I 188 W/m 6,7 C 4,8 km/h (1 Bft)
04.10.2016 12:17 9,4 C 9,4 C 83 % 1028,2 hPa 0,0 mm 2,8 km/h (1 Bft) NW 310 0 min 0,000 mm 1,4 UV-I 181 W/m 6,7 C 4,8 km/h (1 Bft)
04.10.2016 12:18 9,3 C 9,4 C 84 % 1028,2 hPa 0,0 mm 3,4 km/h (1 Bft) N-NW 338 0 min 0,000 mm 1,3 UV-I 172 W/m 6,7 C 4,8 km/h (1 Bft)
04.10.2016 12:19 9,4 C 9,4 C 84 % 1028,2 hPa 0,0 mm 2,6 km/h (1 Bft) N-NW 340 0 min 0,000 mm 1,3 UV-I 163 W/m 6,8 C 4,8 km/h (1 Bft)
04.10.2016 12:20 9,4 C 9,4 C 84 % 1028,2 hPa 0,0 mm 3,5 km/h (1 Bft) W-NW 295 0 min 0,000 mm 1,2 UV-I 141 W/m 6,8 C 4,8 km/h (1 Bft)
04.10.2016 12:21 9,4 C 9,4 C 84 % 1028,2 hPa 0,0 mm 3,4 km/h (1 Bft) NW 304 0 min 0,000 mm 1,0 UV-I 128 W/m 6,8 C 4,8 km/h (1 Bft)
04.10.2016 12:22 9,3 C 9,4 C 83 % 1028,3 hPa 0,0 mm 2,1 km/h (1 Bft) NW 322 0 min 0,000 mm 0,9 UV-I 116 W/m 6,6 C 4,8 km/h (1 Bft)
04.10.2016 12:23 9,3 C 9,3 C 84 % 1028,3 hPa 0,0 mm 3,6 km/h (1 Bft) NW 313 0 min 0,000 mm 0,9 UV-I 107 W/m 6,7 C 4,8 km/h (1 Bft)
04.10.2016 12:24 9,2 C 9,3 C 84 % 1028,3 hPa 0,0 mm 4,6 km/h (1 Bft) N-NW 337 0 min 0,000 mm 0,8 UV-I 102 W/m 6,6 C 6,4 km/h (2 Bft)
04.10.2016 12:25 9,2 C 9,2 C 85 % 1028,3 hPa 0,0 mm 3,1 km/h (1 Bft) NW 313 0 min 0,000 mm 0,8 UV-I 100 W/m 6,8 C 4,8 km/h (1 Bft)
04.10.2016 12:26 9,2 C 9,2 C 84 % 1028,3 hPa 0,0 mm 4,3 km/h (1 Bft) NW 309 0 min 0,000 mm 0,8 UV-I 111 W/m 6,6 C 4,8 km/h (1 Bft)
04.10.2016 12:27 9,2 C 9,2 C 85 % 1028,3 hPa 0,0 mm 2,5 km/h (1 Bft) NW 310 0 min 0,000 mm 1,0 UV-I 118 W/m 6,8 C 4,8 km/h (1 Bft)
04.10.2016 12:28 9,2 C 9,2 C 84 % 1028,3 hPa 0,0 mm 3,7 km/h (1 Bft) W-NW 299 0 min 0,000 mm 1,1 UV-I 127 W/m 6,6 C 6,4 km/h (2 Bft)
04.10.2016 12:29 9,2 C 9,2 C 86 % 1028,3 hPa 0,0 mm 4,1 km/h (1 Bft) N 355 0 min 0,000 mm 1,1 UV-I 135 W/m 7,0 C 4,8 km/h (1 Bft)
04.10.2016 12:30 9,2 C 9,2 C 86 % 1028,3 hPa 0,0 mm 3,7 km/h (1 Bft) N 5 0 min 0,000 mm 1,1 UV-I 141 W/m 7,0 C 4,8 km/h (1 Bft)
04.10.2016 12:31 9,2 C 9,2 C 84 % 1028,3 hPa 0,0 mm 4,0 km/h (1 Bft) N 355 0 min 0,000 mm 1,1 UV-I 141 W/m 6,6 C 4,8 km/h (1 Bft)
04.10.2016 12:32 9,2 C 9,2 C 84 % 1028,4 hPa 0,0 mm 2,2 km/h (1 Bft) N 355 0 min 0,000 mm 1,1 UV-I 139 W/m 6,6 C 3,2 km/h (1 Bft)
04.10.2016 12:33 9,1 C 9,2 C 84 % 1028,4 hPa 0,0 mm 0,9 km/h (0 Bft) N 355 0 min 0,000 mm 1,1 UV-I 139 W/m 6,5 C 1,6 km/h (1 Bft)
04.10.2016 12:34 9,1 C 9,1 C 84 % 1028,4 hPa 0,0 mm 0,6 km/h (0 Bft) N 355 0 min 0,000 mm 1,1 UV-I 139 W/m 6,5 C 1,6 km/h (1 Bft)
04.10.2016 12:35 9,1 C 9,1 C 85 % 1028,4 hPa 0,0 mm 2,3 km/h (1 Bft) N-NW 327 0 min 0,000 mm 1,1 UV-I 139 W/m 6,7 C 4,8 km/h (1 Bft)
04.10.2016 12:36 9,1 C 9,1 C 84 % 1028,4 hPa 0,0 mm 1,5 km/h (1 Bft) NW 316 0 min 0,000 mm 1,1 UV-I 139 W/m 6,5 C 3,2 km/h (1 Bft)
04.10.2016 12:37 9,1 C 9,1 C 85 % 1028,4 hPa 0,0 mm 2,6 km/h (1 Bft) NW 316 0 min 0,000 mm 1,1 UV-I 139 W/m 6,7 C 4,8 km/h (1 Bft)
04.10.2016 12:38 9,1 C 9,1 C 84 % 1028,4 hPa 0,0 mm 3,1 km/h (1 Bft) N-NW 329 0 min 0,000 mm 1,1 UV-I 135 W/m 6,5 C 4,8 km/h (1 Bft)
04.10.2016 12:39 9,1 C 9,2 C 85 % 1028,4 hPa 0,0 mm 3,7 km/h (1 Bft) N 355 0 min 0,000 mm 1,0 UV-I 130 W/m 6,7 C 4,8 km/h (1 Bft)
04.10.2016 12:40 9,2 C 9,2 C 85 % 1028,4 hPa 0,0 mm 2,1 km/h (1 Bft) NW 324 0 min 0,000 mm 1,0 UV-I 127 W/m 6,8 C 4,8 km/h (1 Bft)
04.10.2016 12:41 9,2 C 9,2 C 85 % 1028,4 hPa 0,0 mm 1,6 km/h (1 Bft) NW 324 0 min 0,000 mm 1,0 UV-I 123 W/m 6,8 C 4,8 km/h (1 Bft)
04.10.2016 12:42 9,2 C 9,2 C 82 % 1028,4 hPa 0,0 mm 2,7 km/h (1 Bft) NW 304 0 min 0,000 mm 1,0 UV-I 121 W/m 6,3 C 4,8 km/h (1 Bft)
04.10.2016 12:43 9,2 C 9,2 C 84 % 1028,4 hPa 0,0 mm 4,3 km/h (1 Bft) W-NW 295 0 min 0,000 mm 1,0 UV-I 121 W/m 6,6 C 6,4 km/h (2 Bft)
04.10.2016 12:44 9,2 C 9,2 C 84 % 1028,3 hPa 0,0 mm 3,3 km/h (1 Bft) W-NW 288 0 min 0,000 mm 1,0 UV-I 123 W/m 6,6 C 4,8 km/h (1 Bft)
04.10.2016 12:45 9,2 C 9,2 C 83 % 1028,4 hPa 0,0 mm 3,3 km/h (1 Bft) NW 305 0 min 0,000 mm 1,0 UV-I 125 W/m 6,5 C 4,8 km/h (1 Bft)
04.10.2016 12:46 9,2 C 9,2 C 83 % 1028,3 hPa 0,0 mm 3,0 km/h (1 Bft) W-NW 296 0 min 0,000 mm 1,0 UV-I 125 W/m 6,5 C 4,8 km/h (1 Bft)
04.10.2016 12:47 9,2 C 9,2 C 84 % 1028,3 hPa 0,0 mm 3,1 km/h (1 Bft) W-NW 296 0 min 0,000 mm 1,1 UV-I 127 W/m 6,6 C 4,8 km/h (1 Bft)
04.10.2016 12:48 9,2 C 9,2 C 83 % 1028,3 hPa 0,0 mm 2,5 km/h (1 Bft) W-NW 296 0 min 0,000 mm 1,1 UV-I 132 W/m 6,5 C 3,2 km/h (1 Bft)
04.10.2016 12:49 9,2 C 9,2 C 83 % 1028,3 hPa 0,0 mm 2,1 km/h (1 Bft) W-NW 296 0 min 0,000 mm 1,1 UV-I 139 W/m 6,5 C 3,2 km/h (1 Bft)
04.10.2016 12:50 9,1 C 9,2 C 83 % 1028,2 hPa 0,0 mm 1,1 km/h (1 Bft) W-NW 296 0 min 0,000 mm 1,2 UV-I 142 W/m 6,4 C 3,2 km/h (1 Bft)
04.10.2016 12:51 9,1 C 9,1 C 83 % 1028,2 hPa 0,0 mm 0,3 km/h (0 Bft) W-NW 296 0 min 0,000 mm 1,2 UV-I 151 W/m 6,4 C 1,6 km/h (1 Bft)
04.10.2016 12:52 9,1 C 9,1 C 82 % 1028,2 hPa 0,0 mm 2,6 km/h (1 Bft) W-NW 296 0 min 0,000 mm 1,3 UV-I 151 W/m 6,2 C 3,2 km/h (1 Bft)
04.10.2016 12:53 9,2 C 9,2 C 84 % 1028,2 hPa 0,0 mm 4,1 km/h (1 Bft) NW 324 0 min 0,000 mm 1,3 UV-I 167 W/m 6,6 C 6,4 km/h (2 Bft)
04.10.2016 12:54 9,2 C 9,2 C 85 % 1028,2 hPa 0,0 mm 1,5 km/h (1 Bft) NW 325 0 min 0,000 mm 1,3 UV-I 171 W/m 6,8 C 3,2 km/h (1 Bft)
04.10.2016 12:55 9,2 C 9,2 C 84 % 1028,2 hPa 0,0 mm 2,1 km/h (1 Bft) NW 313 0 min 0,000 mm 1,3 UV-I 174 W/m 6,6 C 6,4 km/h (2 Bft)
04.10.2016 12:56 9,3 C 9,3 C 85 % 1028,2 hPa 0,0 mm 4,2 km/h (1 Bft) NW 313 0 min 0,000 mm 1,4 UV-I 183 W/m 6,9 C 6,4 km/h (2 Bft)
04.10.2016 12:57 9,3 C 9,3 C 83 % 1028,2 hPa 0,0 mm 1,8 km/h (1 Bft) W-NW 298 0 min 0,000 mm 1,4 UV-I 190 W/m 6,6 C 3,2 km/h (1 Bft)
04.10.2016 12:58 9,3 C 9,3 C 83 % 1028,2 hPa 0,0 mm 4,6 km/h (1 Bft) W-NW 286 0 min 0,000 mm 1,3 UV-I 188 W/m 6,6 C 4,8 km/h (1 Bft)
04.10.2016 12:59 9,3 C 9,3 C 84 % 1028,2 hPa 0,0 mm 4,2 km/h (1 Bft) W 275 0 min 0,000 mm 1,3 UV-I 181 W/m 6,7 C 6,4 km/h (2 Bft)
04.10.2016 13:00 9,4 C 9,4 C 83 % 1028,2 hPa 0,0 mm 2,7 km/h (1 Bft) W 275 0 min 0,000 mm 1,2 UV-I 171 W/m 6,7 C 4,8 km/h (1 Bft)
04.10.2016 13:01 9,4 C 9,4 C 83 % 1028,2 hPa 0,0 mm 1,8 km/h (1 Bft) W-NW 283 0 min 0,076 mm 1,2 UV-I 153 W/m 6,7 C 3,2 km/h (1 Bft)
04.10.2016 13:02 9,4 C 9,4 C 82 % 1028,2 hPa 0,0 mm 2,5 km/h (1 Bft) NW 313 0 min 0,000 mm 1,1 UV-I 142 W/m 6,5 C 4,8 km/h (1 Bft)
04.10.2016 13:03 9,4 C 9,4 C 83 % 1028,1 hPa 0,0 mm 3,1 km/h (1 Bft) W-NW 284 0 min 0,000 mm 1,1 UV-I 134 W/m 6,7 C 4,8 km/h (1 Bft)
04.10.2016 13:04 9,4 C 9,4 C 83 % 1028,1 hPa 0,0 mm 3,7 km/h (1 Bft) W-NW 287 0 min 0,000 mm 1,1 UV-I 130 W/m 6,7 C 4,8 km/h (1 Bft)
04.10.2016 13:05 9,4 C 9,4 C 84 % 1028,2 hPa 0,0 mm 3,4 km/h (1 Bft) NW 305 0 min 0,000 mm 1,1 UV-I 130 W/m 6,8 C 4,8 km/h (1 Bft)
04.10.2016 13:06 9,4 C 9,4 C 85 % 1028,2 hPa 0,0 mm 4,1 km/h (1 Bft) NW 309 0 min 0,000 mm 1,1 UV-I 137 W/m 7,0 C 4,8 km/h (1 Bft)
04.10.2016 13:07 9,4 C 9,4 C 83 % 1028,2 hPa 0,0 mm 2,9 km/h (1 Bft) NW 309 0 min 0,000 mm 1,1 UV-I 135 W/m 6,7 C 4,8 km/h (1 Bft)
04.10.2016 13:08 9,4 C 9,4 C 84 % 1028,2 hPa 0,0 mm 3,0 km/h (1 Bft) NW 316 0 min 0,000 mm 1,1 UV-I 137 W/m 6,8 C 4,8 km/h (1 Bft)
04.10.2016 13:09 9,4 C 9,4 C 84 % 1028,2 hPa 0,0 mm 3,0 km/h (1 Bft) NW 316 0 min 0,000 mm 1,1 UV-I 139 W/m 6,8 C 4,8 km/h (1 Bft)
04.10.2016 13:10 9,4 C 9,4 C 85 % 1028,2 hPa 0,0 mm 1,9 km/h (1 Bft) NW 317 0 min 0,000 mm 1,1 UV-I 141 W/m 7,0 C 3,2 km/h (1 Bft)
04.10.2016 13:11 9,4 C 9,5 C 84 % 1028,2 hPa 0,0 mm 1,2 km/h (1 Bft) NW 317 0 min 0,000 mm 1,1 UV-I 141 W/m 6,8 C 4,8 km/h (1 Bft)
04.10.2016 13:12 9,5 C 9,5 C 84 % 1028,1 hPa 0,0 mm 5,1 km/h (1 Bft) NW 318 0 min 0,000 mm 1,1 UV-I 141 W/m 6,9 C 6,4 km/h (2 Bft)
04.10.2016 13:13 9,5 C 9,5 C 84 % 1028,1 hPa 0,0 mm 3,6 km/h (1 Bft) NW 317 0 min 0,000 mm 1,1 UV-I 142 W/m 6,9 C 4,8 km/h (1 Bft)
04.10.2016 13:14 9,5 C 9,5 C 83 % 1028,1 hPa 0,0 mm 1,7 km/h (1 Bft) NW 317 0 min 0,000 mm 1,1 UV-I 146 W/m 6,8 C 3,2 km/h (1 Bft)
04.10.2016 13:15 9,4 C 9,5 C 83 % 1028,1 hPa 0,0 mm 2,5 km/h (1 Bft) NW 317 0 min 0,000 mm 1,2 UV-I 151 W/m 6,7 C 4,8 km/h (1 Bft)
04.10.2016 13:16 9,4 C 9,4 C 81 % 1028,1 hPa 0,0 mm 1,2 km/h (1 Bft) NW 317 0 min 0,000 mm 1,2 UV-I 156 W/m 6,3 C 3,2 km/h (1 Bft)
04.10.2016 13:17 9,4 C 9,4 C 83 % 1028,1 hPa 0,0 mm 2,6 km/h (1 Bft) W-NW 287 0 min 0,000 mm 1,2 UV-I 153 W/m 6,7 C 4,8 km/h (1 Bft)
04.10.2016 13:18 9,4 C 9,4 C 83 % 1028,0 hPa 0,0 mm 2,2 km/h (1 Bft) W-NW 295 0 min 0,000 mm 1,2 UV-I 146 W/m 6,7 C 3,2 km/h (1 Bft)
04.10.2016 13:19 9,4 C 9,4 C 83 % 1028,0 hPa 0,0 mm 2,6 km/h (1 Bft) NW 317 0 min 0,000 mm 1,2 UV-I 141 W/m 6,7 C 4,8 km/h (1 Bft)
04.10.2016 13:20 9,4 C 9,4 C 83 % 1028,0 hPa 0,0 mm 1,7 km/h (1 Bft) NW 317 0 min 0,000 mm 1,2 UV-I 139 W/m 6,7 C 3,2 km/h (1 Bft)
04.10.2016 13:21 9,4 C 9,4 C 83 % 1028,0 hPa 0,0 mm 3,1 km/h (1 Bft) NW 305 0 min 0,000 mm 1,2 UV-I 144 W/m 6,7 C 6,4 km/h (2 Bft)
04.10.2016 13:22 9,5 C 9,5 C 84 % 1028,0 hPa 0,0 mm 4,4 km/h (1 Bft) NW 305 0 min 0,000 mm 1,3 UV-I 160 W/m 6,9 C 6,4 km/h (2 Bft)
04.10.2016 13:23 9,6 C 9,6 C 83 % 1028,0 hPa 0,0 mm 4,2 km/h (1 Bft) NW 307 0 min 0,000 mm 1,4 UV-I 183 W/m 6,9 C 6,4 km/h (2 Bft)
04.10.2016 13:24 9,5 C 9,6 C 82 % 1028,0 hPa 0,0 mm 4,1 km/h (1 Bft) W 277 0 min 0,000 mm 1,5 UV-I 199 W/m 6,6 C 4,8 km/h (1 Bft)
04.10.2016 13:25 9,6 C 9,6 C 83 % 1028,0 hPa 0,0 mm 2,5 km/h (1 Bft) W-NW 285 0 min 0,000 mm 1,4 UV-I 192 W/m 6,9 C 4,8 km/h (1 Bft)
04.10.2016 13:26 9,5 C 9,6 C 83 % 1028,0 hPa 0,0 mm 3,0 km/h (1 Bft) W-NW 296 0 min 0,000 mm 1,4 UV-I 186 W/m 6,8 C 4,8 km/h (1 Bft)
04.10.2016 13:27 9,5 C 9,5 C 82 % 1028,0 hPa 0,0 mm 3,0 km/h (1 Bft) W-NW 302 0 min 0,000 mm 1,4 UV-I 178 W/m 6,6 C 4,8 km/h (1 Bft)
04.10.2016 13:28 9,5 C 9,5 C 82 % 1028,0 hPa 0,0 mm 3,6 km/h (1 Bft) W 279 0 min 0,000 mm 1,4 UV-I 174 W/m 6,6 C 4,8 km/h (1 Bft)
04.10.2016 13:29 9,5 C 9,6 C 82 % 1027,9 hPa 0,0 mm 2,7 km/h (1 Bft) W 267 0 min 0,000 mm 1,5 UV-I 179 W/m 6,6 C 4,8 km/h (1 Bft)
04.10.2016 13:30 9,5 C 9,6 C 82 % 1027,9 hPa 0,0 mm 2,9 km/h (1 Bft) W 267 0 min 0,000 mm 1,6 UV-I 207 W/m 6,6 C 4,8 km/h (1 Bft)
04.10.2016 13:31 9,5 C 9,5 C 81 % 1027,9 hPa 0,0 mm 1,9 km/h (1 Bft) W 280 0 min 0,000 mm 1,7 UV-I 223 W/m 6,4 C 3,2 km/h (1 Bft)
04.10.2016 13:32 9,5 C 9,5 C 83 % 1027,9 hPa 0,0 mm 2,6 km/h (1 Bft) W-NW 296 0 min 0,000 mm 1,8 UV-I 239 W/m 6,8 C 4,8 km/h (1 Bft)
04.10.2016 13:33 9,6 C 9,6 C 83 % 1027,9 hPa 0,0 mm 2,9 km/h (1 Bft) NW 308 0 min 0,000 mm 1,8 UV-I 246 W/m 6,9 C 4,8 km/h (1 Bft)
04.10.2016 13:34 9,6 C 9,6 C 82 % 1027,9 hPa 0,0 mm 2,9 km/h (1 Bft) NW 307 0 min 0,000 mm 1,8 UV-I 246 W/m 6,7 C 3,2 km/h (1 Bft)
04.10.2016 13:35 9,7 C 9,7 C 84 % 1027,9 hPa 0,0 mm 2,6 km/h (1 Bft) NW 307 0 min 0,000 mm 1,8 UV-I 244 W/m 7,1 C 3,2 km/h (1 Bft)
04.10.2016 13:36 9,8 C 9,8 C 83 % 1027,9 hPa 0,0 mm 1,8 km/h (1 Bft) NW 307 0 min 0,000 mm 1,8 UV-I 248 W/m 7,1 C 4,8 km/h (1 Bft)
04.10.2016 13:37 9,8 C 9,8 C 83 % 1027,9 hPa 0,0 mm 3,3 km/h (1 Bft) NW 314 0 min 0,000 mm 1,8 UV-I 246 W/m 7,1 C 4,8 km/h (1 Bft)
04.10.2016 13:38 9,9 C 9,9 C 83 % 1027,9 hPa 0,0 mm 3,4 km/h (1 Bft) NW 313 0 min 0,000 mm 1,8 UV-I 243 W/m 7,2 C 4,8 km/h (1 Bft)
04.10.2016 13:39 10,0 C 10,0 C 83 % 1027,9 hPa 0,0 mm 3,5 km/h (1 Bft) N-NW 330 0 min 0,000 mm 1,8 UV-I 239 W/m 7,2 C 4,8 km/h (1 Bft)
04.10.2016 13:40 10,0 C 10,0 C 83 % 1027,9 hPa 0,0 mm 2,4 km/h (1 Bft) NW 324 0 min 0,000 mm 1,7 UV-I 237 W/m 7,2 C 4,8 km/h (1 Bft)
04.10.2016 13:41 10,0 C 10,0 C 82 % 1027,9 hPa 0,0 mm 3,2 km/h (1 Bft) NW 311 0 min 0,000 mm 1,7 UV-I 230 W/m 7,1 C 4,8 km/h (1 Bft)
04.10.2016 13:42 10,0 C 10,0 C 82 % 1027,9 hPa 0,0 mm 3,4 km/h (1 Bft) N-NW 333 0 min 0,000 mm 1,7 UV-I 209 W/m 7,1 C 6,4 km/h (2 Bft)
04.10.2016 13:43 10,1 C 10,1 C 83 % 1027,9 hPa 0,0 mm 2,3 km/h (1 Bft) N-NW 333 0 min 0,000 mm 1,6 UV-I 206 W/m 7,3 C 3,2 km/h (1 Bft)
04.10.2016 13:44 10,1 C 10,1 C 82 % 1027,9 hPa 0,0 mm 4,0 km/h (1 Bft) N-NW 342 0 min 0,000 mm 1,6 UV-I 204 W/m 7,2 C 4,8 km/h (1 Bft)
04.10.2016 13:45 10,1 C 10,1 C 83 % 1028,0 hPa 0,0 mm 3,2 km/h (1 Bft) NW 315 0 min 0,000 mm 1,6 UV-I 204 W/m 7,3 C 4,8 km/h (1 Bft)
04.10.2016 13:46 10,1 C 10,1 C 82 % 1028,0 hPa 0,0 mm 3,1 km/h (1 Bft) N-NW 335 0 min 0,000 mm 1,6 UV-I 207 W/m 7,2 C 4,8 km/h (1 Bft)
04.10.2016 13:47 10,1 C 10,1 C 81 % 1028,0 hPa 0,0 mm 1,7 km/h (1 Bft) NW 321 0 min 0,000 mm 1,6 UV-I 213 W/m 7,0 C 3,2 km/h (1 Bft)
04.10.2016 13:48 10,0 C 10,1 C 83 % 1027,9 hPa 0,0 mm 2,8 km/h (1 Bft) W-NW 283 0 min 0,000 mm 1,7 UV-I 229 W/m 7,2 C 4,8 km/h (1 Bft)
04.10.2016 13:49 9,9 C 10,0 C 81 % 1027,9 hPa 0,0 mm 3,6 km/h (1 Bft) W-NW 290 0 min 0,000 mm 1,8 UV-I 243 W/m 6,8 C 6,4 km/h (2 Bft)
04.10.2016 13:50 9,9 C 9,9 C 81 % 1027,9 hPa 0,0 mm 3,4 km/h (1 Bft) N-NW 329 0 min 0,000 mm 1,8 UV-I 250 W/m 6,8 C 4,8 km/h (1 Bft)
04.10.2016 13:51 9,9 C 9,9 C 83 % 1027,9 hPa 0,0 mm 3,1 km/h (1 Bft) N-NW 329 0 min 0,000 mm 1,8 UV-I 248 W/m 7,2 C 4,8 km/h (1 Bft)
04.10.2016 13:52 9,9 C 9,9 C 82 % 1027,9 hPa 0,0 mm 2,7 km/h (1 Bft) N-NW 329 0 min 0,000 mm 1,8 UV-I 244 W/m 7,0 C 3,2 km/h (1 Bft)
04.10.2016 13:53 9,9 C 9,9 C 83 % 1027,8 hPa 0,0 mm 5,0 km/h (1 Bft) NW 311 0 min 0,000 mm 1,8 UV-I 250 W/m 7,2 C 6,4 km/h (2 Bft)
04.10.2016 13:54 10,0 C 10,0 C 83 % 1027,9 hPa 0,0 mm 4,7 km/h (1 Bft) N 5 0 min 0,000 mm 1,8 UV-I 255 W/m 7,2 C 6,4 km/h (2 Bft)
04.10.2016 13:55 10,1 C 10,1 C 83 % 1027,8 hPa 0,0 mm 5,2 km/h (1 Bft) W-NW 296 0 min 0,000 mm 1,9 UV-I 260 W/m 7,3 C 8,0 km/h (2 Bft)
04.10.2016 13:56 10,1 C 10,1 C 84 % 1027,9 hPa 0,0 mm 4,1 km/h (1 Bft) W-NW 290 0 min 0,000 mm 1,8 UV-I 260 W/m 7,5 C 6,4 km/h (2 Bft)
04.10.2016 13:57 10,1 C 10,1 C 82 % 1027,9 hPa 0,0 mm 3,4 km/h (1 Bft) NW 306 0 min 0,000 mm 1,8 UV-I 251 W/m 7,2 C 4,8 km/h (1 Bft)
04.10.2016 13:58 10,1 C 10,1 C 82 % 1027,9 hPa 0,0 mm 4,4 km/h (1 Bft) NW 306 0 min 0,000 mm 1,7 UV-I 243 W/m 7,2 C 6,4 km/h (2 Bft)
04.10.2016 13:59 10,1 C 10,1 C 82 % 1027,9 hPa 0,0 mm 4,0 km/h (1 Bft) W-NW 296 0 min 0,000 mm 1,7 UV-I 236 W/m 7,2 C 4,8 km/h (1 Bft)
04.10.2016 14:00 10,1 C 10,1 C 80 % 1027,9 hPa 0,0 mm 2,2 km/h (1 Bft) W-NW 300 0 min 0,000 mm 1,7 UV-I 234 W/m 6,8 C 4,8 km/h (1 Bft)
04.10.2016 14:01 10,1 C 10,1 C 81 % 1027,9 hPa 0,0 mm 2,3 km/h (1 Bft) W-NW 300 0 min 0,102 mm 1,7 UV-I 236 W/m 7,0 C 4,8 km/h (1 Bft)
04.10.2016 14:02 10,0 C 10,1 C 80 % 1027,9 hPa 0,0 mm 2,0 km/h (1 Bft) NW 307 0 min 0,000 mm 1,7 UV-I 237 W/m 6,7 C 3,2 km/h (1 Bft)
04.10.2016 14:03 10,1 C 10,1 C 81 % 1027,9 hPa 0,0 mm 2,7 km/h (1 Bft) N-NO 13 0 min 0,000 mm 1,7 UV-I 243 W/m 7,0 C 6,4 km/h (2 Bft)
04.10.2016 14:04 10,1 C 10,1 C 83 % 1027,8 hPa 0,0 mm 4,8 km/h (1 Bft) NW 315 0 min 0,000 mm 1,8 UV-I 251 W/m 7,3 C 8,0 km/h (2 Bft)
04.10.2016 14:05 10,2 C 10,2 C 84 % 1027,9 hPa 0,0 mm 5,7 km/h (1 Bft) NW 325 0 min 0,000 mm 1,8 UV-I 248 W/m 7,6 C 8,0 km/h (2 Bft)
04.10.2016 14:06 10,2 C 10,2 C 82 % 1027,9 hPa 0,0 mm 5,1 km/h (1 Bft) NW 316 0 min 0,000 mm 1,7 UV-I 237 W/m 7,3 C 9,7 km/h (2 Bft)
04.10.2016 14:07 10,2 C 10,2 C 81 % 1027,9 hPa 0,0 mm 5,6 km/h (1 Bft) W-NW 300 0 min 0,000 mm 1,6 UV-I 216 W/m 7,1 C 8,0 km/h (2 Bft)
04.10.2016 14:08 10,2 C 10,2 C 82 % 1027,9 hPa 0,0 mm 6,4 km/h (2 Bft) W-NW 302 0 min 0,000 mm 1,5 UV-I 193 W/m 7,3 C 8,0 km/h (2 Bft)
04.10.2016 14:09 10,2 C 10,3 C 82 % 1027,9 hPa 0,0 mm 2,7 km/h (1 Bft) W-NW 302 0 min 0,000 mm 1,4 UV-I 176 W/m 7,3 C 6,4 km/h (2 Bft)
04.10.2016 14:10 10,2 C 10,2 C 80 % 1027,9 hPa 0,0 mm 3,2 km/h (1 Bft) W-NW 302 0 min 0,000 mm 1,4 UV-I 174 W/m 6,9 C 4,8 km/h (1 Bft)
04.10.2016 14:11 10,1 C 10,2 C 80 % 1028,0 hPa 0,0 mm 2,2 km/h (1 Bft) W-NW 302 0 min 0,000 mm 1,4 UV-I 192 W/m 6,8 C 3,2 km/h (1 Bft)
04.10.2016 14:12 10,1 C 10,1 C 80 % 1027,9 hPa 0,0 mm 2,7 km/h (1 Bft) W-NW 297 0 min 0,000 mm 1,3 UV-I 183 W/m 6,8 C 4,8 km/h (1 Bft)
04.10.2016 14:13 10,0 C 10,1 C 79 % 1027,9 hPa 0,0 mm 2,0 km/h (1 Bft) NW 306 0 min 0,000 mm 1,2 UV-I 160 W/m 6,5 C 4,8 km/h (1 Bft)
04.10.2016 14:14 10,0 C 10,0 C 80 % 1027,9 hPa 0,0 mm 2,7 km/h (1 Bft) NW 313 0 min 0,000 mm 1,1 UV-I 146 W/m 6,7 C 6,4 km/h (2 Bft)
04.10.2016 14:15 9,9 C 10,0 C 79 % 1027,9 hPa 0,0 mm 2,1 km/h (1 Bft) NW 317 0 min 0,000 mm 1,0 UV-I 134 W/m 6,4 C 3,2 km/h (1 Bft)
04.10.2016 14:16 9,9 C 9,9 C 80 % 1027,9 hPa 0,0 mm 1,8 km/h (1 Bft) NW 317 0 min 0,000 mm 1,0 UV-I 127 W/m 6,6 C 3,2 km/h (1 Bft)
04.10.2016 14:17 9,9 C 9,9 C 79 % 1027,9 hPa 0,0 mm 1,0 km/h (0 Bft) NW 317 0 min 0,000 mm 1,0 UV-I 127 W/m 6,4 C 1,6 km/h (1 Bft)
04.10.2016 14:18 9,8 C 9,9 C 81 % 1027,9 hPa 0,0 mm 2,7 km/h (1 Bft) W-NW 291 0 min 0,000 mm 1,0 UV-I 132 W/m 6,7 C 3,2 km/h (1 Bft)
04.10.2016 14:19 9,8 C 9,9 C 80 % 1027,9 hPa 0,0 mm 4,1 km/h (1 Bft) NW 307 0 min 0,000 mm 1,0 UV-I 135 W/m 6,5 C 6,4 km/h (2 Bft)
04.10.2016 14:20 9,8 C 9,8 C 80 % 1027,9 hPa 0,0 mm 3,5 km/h (1 Bft) NW 317 0 min 0,000 mm 0,9 UV-I 132 W/m 6,5 C 6,4 km/h (2 Bft)
04.10.2016 14:21 9,8 C 9,8 C 81 % 1027,9 hPa 0,0 mm 3,6 km/h (1 Bft) NW 317 0 min 0,000 mm 0,9 UV-I 127 W/m 6,7 C 4,8 km/h (1 Bft)
04.10.2016 14:22 9,8 C 9,8 C 81 % 1027,9 hPa 0,0 mm 3,6 km/h (1 Bft) N 350 0 min 0,000 mm 0,9 UV-I 123 W/m 6,7 C 4,8 km/h (1 Bft)
04.10.2016 14:23 9,7 C 9,8 C 82 % 1027,9 hPa 0,0 mm 2,8 km/h (1 Bft) N 355 0 min 0,000 mm 0,9 UV-I 121 W/m 6,8 C 3,2 km/h (1 Bft)
04.10.2016 14:24 9,8 C 9,8 C 83 % 1027,9 hPa 0,0 mm 3,4 km/h (1 Bft) N-NW 327 0 min 0,000 mm 0,9 UV-I 120 W/m 7,1 C 4,8 km/h (1 Bft)
04.10.2016 14:25 9,7 C 9,8 C 83 % 1027,9 hPa 0,0 mm 4,3 km/h (1 Bft) NW 314 0 min 0,000 mm 0,9 UV-I 114 W/m 7,0 C 6,4 km/h (2 Bft)
04.10.2016 14:26 9,7 C 9,8 C 82 % 1027,9 hPa 0,0 mm 3,8 km/h (1 Bft) W-NW 288 0 min 0,000 mm 0,8 UV-I 109 W/m 6,8 C 6,4 km/h (2 Bft)
04.10.2016 14:27 9,7 C 9,7 C 82 % 1027,9 hPa 0,0 mm 2,5 km/h (1 Bft) W 275 0 min 0,000 mm 0,8 UV-I 104 W/m 6,8 C 4,8 km/h (1 Bft)
04.10.2016 14:28 9,7 C 9,7 C 83 % 1027,9 hPa 0,0 mm 1,1 km/h (1 Bft) W 275 0 min 0,000 mm 0,8 UV-I 102 W/m 7,0 C 1,6 km/h (1 Bft)
04.10.2016 14:29 9,6 C 9,7 C 82 % 1027,9 hPa 0,0 mm 1,3 km/h (1 Bft) W 275 0 min 0,000 mm 0,8 UV-I 97 W/m 6,7 C 3,2 km/h (1 Bft)
04.10.2016 14:30 9,6 C 9,6 C 84 % 1027,9 hPa 0,0 mm 3,4 km/h (1 Bft) W 269 0 min 0,000 mm 0,7 UV-I 93 W/m 7,0 C 4,8 km/h (1 Bft)
04.10.2016 14:31 9,6 C 9,6 C 82 % 1027,9 hPa 0,0 mm 3,4 km/h (1 Bft) W 281 0 min 0,000 mm 0,7 UV-I 91 W/m 6,7 C 4,8 km/h (1 Bft)
04.10.2016 14:32 9,6 C 9,6 C 84 % 1027,9 hPa 0,0 mm 3,4 km/h (1 Bft) W-NW 294 0 min 0,000 mm 0,7 UV-I 91 W/m 7,0 C 4,8 km/h (1 Bft)
04.10.2016 14:33 9,6 C 9,6 C 83 % 1027,9 hPa 0,0 mm 2,4 km/h (1 Bft) W-NW 303 0 min 0,000 mm 0,7 UV-I 93 W/m 6,9 C 4,8 km/h (1 Bft)
04.10.2016 14:34 9,6 C 9,6 C 85 % 1027,9 hPa 0,0 mm 3,2 km/h (1 Bft) N 350 0 min 0,000 mm 0,8 UV-I 95 W/m 7,2 C 4,8 km/h (1 Bft)
04.10.2016 14:35 9,6 C 9,6 C 84 % 1027,9 hPa 0,0 mm 3,4 km/h (1 Bft) N 355 0 min 0,000 mm 0,8 UV-I 100 W/m 7,0 C 4,8 km/h (1 Bft)
04.10.2016 14:36 9,6 C 9,6 C 84 % 1027,9 hPa 0,0 mm 2,9 km/h (1 Bft) N 355 0 min 0,000 mm 0,8 UV-I 105 W/m 7,0 C 3,2 km/h (1 Bft)
04.10.2016 14:37 9,6 C 9,6 C 84 % 1027,9 hPa 0,0 mm 3,3 km/h (1 Bft) N 349 0 min 0,000 mm 0,8 UV-I 111 W/m 7,0 C 4,8 km/h (1 Bft)
04.10.2016 14:38 9,6 C 9,6 C 84 % 1027,9 hPa 0,0 mm 3,7 km/h (1 Bft) N-NW 337 0 min 0,000 mm 0,9 UV-I 113 W/m 7,0 C 6,4 km/h (2 Bft)
04.10.2016 14:39 9,6 C 9,6 C 84 % 1027,9 hPa 0,0 mm 2,3 km/h (1 Bft) N-NW 338 0 min 0,000 mm 0,9 UV-I 111 W/m 7,0 C 3,2 km/h (1 Bft)
04.10.2016 14:40 9,6 C 9,6 C 85 % 1027,9 hPa 0,0 mm 2,4 km/h (1 Bft) N-NW 346 0 min 0,000 mm 0,9 UV-I 111 W/m 7,2 C 4,8 km/h (1 Bft)
04.10.2016 14:41 9,6 C 9,6 C 85 % 1027,9 hPa 0,0 mm 3,9 km/h (1 Bft) N 360 0 min 0,000 mm 0,9 UV-I 114 W/m 7,2 C 4,8 km/h (1 Bft)
04.10.2016 14:42 9,6 C 9,7 C 85 % 1027,9 hPa 0,0 mm 3,6 km/h (1 Bft) N 360 0 min 0,000 mm 0,9 UV-I 120 W/m 7,2 C 4,8 km/h (1 Bft)
04.10.2016 14:43 9,7 C 9,7 C 85 % 1027,9 hPa 0,0 mm 2,3 km/h (1 Bft) N 360 0 min 0,000 mm 0,9 UV-I 123 W/m 7,3 C 3,2 km/h (1 Bft)
04.10.2016 14:44 9,6 C 9,7 C 84 % 1027,9 hPa 0,0 mm 2,3 km/h (1 Bft) N 5 0 min 0,000 mm 0,9 UV-I 121 W/m 7,0 C 3,2 km/h (1 Bft)
04.10.2016 14:45 9,6 C 9,6 C 85 % 1027,9 hPa 0,0 mm 3,1 km/h (1 Bft) NW 312 0 min 0,000 mm 0,9 UV-I 123 W/m 7,2 C 4,8 km/h (1 Bft)
04.10.2016 14:46 9,6 C 9,6 C 85 % 1027,9 hPa 0,0 mm 4,4 km/h (1 Bft) NW 308 0 min 0,000 mm 0,9 UV-I 127 W/m 7,2 C 4,8 km/h (1 Bft)
04.10.2016 14:47 9,6 C 9,6 C 85 % 1027,9 hPa 0,0 mm 3,9 km/h (1 Bft) NW 325 0 min 0,000 mm 0,9 UV-I 125 W/m 7,2 C 6,4 km/h (2 Bft)
04.10.2016 14:48 9,6 C 9,6 C 85 % 1028,0 hPa 0,0 mm 2,2 km/h (1 Bft) NW 325 0 min 0,000 mm 0,9 UV-I 125 W/m 7,2 C 3,2 km/h (1 Bft)
04.10.2016 14:49 9,6 C 9,6 C 85 % 1028,0 hPa 0,0 mm 2,5 km/h (1 Bft) N 355 0 min 0,000 mm 0,9 UV-I 118 W/m 7,2 C 4,8 km/h (1 Bft)
04.10.2016 14:50 9,5 C 9,6 C 84 % 1028,0 hPa 0,0 mm 3,3 km/h (1 Bft) N-NO 13 0 min 0,000 mm 0,9 UV-I 118 W/m 6,9 C 4,8 km/h (1 Bft)
04.10.2016 14:51 9,4 C 9,5 C 84 % 1028,0 hPa 0,0 mm 2,4 km/h (1 Bft) N-NO 13 0 min 0,000 mm 0,8 UV-I 120 W/m 6,8 C 3,2 km/h (1 Bft)
04.10.2016 14:52 9,4 C 9,5 C 85 % 1027,9 hPa 0,0 mm 1,9 km/h (1 Bft) N-NO 13 0 min 0,000 mm 0,8 UV-I 111 W/m 7,0 C 3,2 km/h (1 Bft)
04.10.2016 14:53 9,5 C 9,5 C 86 % 1027,9 hPa 0,0 mm 1,8 km/h (1 Bft) N 350 0 min 0,000 mm 0,7 UV-I 102 W/m 7,3 C 3,2 km/h (1 Bft)
04.10.2016 14:54 9,4 C 9,5 C 85 % 1027,9 hPa 0,0 mm 2,1 km/h (1 Bft) NW 306 0 min 0,000 mm 0,7 UV-I 98 W/m 7,0 C 4,8 km/h (1 Bft)
04.10.2016 14:55 9,4 C 9,4 C 85 % 1027,9 hPa 0,0 mm 3,8 km/h (1 Bft) NW 306 0 min 0,000 mm 0,6 UV-I 95 W/m 7,0 C 6,4 km/h (2 Bft)
04.10.2016 14:56 9,4 C 9,4 C 85 % 1027,9 hPa 0,0 mm 4,4 km/h (1 Bft) NW 315 0 min 0,000 mm 0,6 UV-I 93 W/m 7,0 C 6,4 km/h (2 Bft)
04.10.2016 14:57 9,4 C 9,4 C 86 % 1028,0 hPa 0,0 mm 3,8 km/h (1 Bft) NW 315 0 min 0,000 mm 0,6 UV-I 91 W/m 7,2 C 4,8 km/h (1 Bft)
04.10.2016 14:58 9,4 C 9,4 C 86 % 1028,0 hPa 0,0 mm 3,8 km/h (1 Bft) NW 315 0 min 0,000 mm 0,6 UV-I 84 W/m 7,2 C 6,4 km/h (2 Bft)
04.10.2016 14:59 9,3 C 9,4 C 86 % 1027,9 hPa 0,0 mm 2,1 km/h (1 Bft) NW 315 0 min 0,000 mm 0,5 UV-I 79 W/m 7,1 C 3,2 km/h (1 Bft)
04.10.2016 15:00 9,3 C 9,3 C 86 % 1028,0 hPa 0,0 mm 2,7 km/h (1 Bft) NW 311 0 min 0,000 mm 0,5 UV-I 76 W/m 7,1 C 4,8 km/h (1 Bft)
04.10.2016 15:01 9,3 C 9,3 C 88 % 1028,0 hPa 0,0 mm 3,0 km/h (1 Bft) NW 311 0 min 0,076 mm 0,5 UV-I 72 W/m 7,4 C 4,8 km/h (1 Bft)
04.10.2016 15:02 9,2 C 9,3 C 87 % 1027,9 hPa 0,0 mm 1,9 km/h (1 Bft) NW 309 0 min 0,000 mm 0,5 UV-I 72 W/m 7,2 C 3,2 km/h (1 Bft)
04.10.2016 15:03 9,2 C 9,2 C 87 % 1027,9 hPa 0,0 mm 5,0 km/h (1 Bft) NW 319 0 min 0,000 mm 0,5 UV-I 72 W/m 7,2 C 6,4 km/h (2 Bft)
04.10.2016 15:04 9,2 C 9,2 C 87 % 1027,9 hPa 0,0 mm 4,5 km/h (1 Bft) W-NW 298 0 min 0,000 mm 0,5 UV-I 70 W/m 7,2 C 6,4 km/h (2 Bft)
04.10.2016 15:05 9,2 C 9,2 C 88 % 1028,0 hPa 0,0 mm 3,1 km/h (1 Bft) W-NW 290 0 min 0,000 mm 0,5 UV-I 69 W/m 7,3 C 4,8 km/h (1 Bft)
04.10.2016 15:06 9,1 C 9,2 C 87 % 1027,9 hPa 0,0 mm 3,6 km/h (1 Bft) W-NW 298 0 min 0,000 mm 0,5 UV-I 69 W/m 7,1 C 4,8 km/h (1 Bft)
04.10.2016 15:07 9,1 C 9,1 C 88 % 1027,9 hPa 0,0 mm 2,7 km/h (1 Bft) W-NW 300 0 min 0,000 mm 0,5 UV-I 67 W/m 7,2 C 3,2 km/h (1 Bft)
04.10.2016 15:08 9,1 C 9,1 C 89 % 1028,0 hPa 0,0 mm 1,5 km/h (1 Bft) W-NW 300 0 min 0,000 mm 0,5 UV-I 67 W/m 7,4 C 3,2 km/h (1 Bft)
04.10.2016 15:09 9,1 C 9,1 C 87 % 1028,0 hPa 0,0 mm 1,7 km/h (1 Bft) W-NW 300 0 min 0,000 mm 0,5 UV-I 67 W/m 7,1 C 3,2 km/h (1 Bft)
04.10.2016 15:10 9,0 C 9,1 C 88 % 1028,0 hPa 0,0 mm 1,2 km/h (1 Bft) W-NW 300 0 min 0,000 mm 0,5 UV-I 65 W/m 7,1 C 1,6 km/h (1 Bft)
04.10.2016 15:11 8,9 C 9,0 C 88 % 1028,0 hPa 0,0 mm 0,4 km/h (0 Bft) W-NW 300 0 min 0,000 mm 0,5 UV-I 65 W/m 7,0 C 1,6 km/h (1 Bft)
04.10.2016 15:12 8,9 C 8,9 C 87 % 1028,0 hPa 0,0 mm 0,3 km/h (0 Bft) W-NW 300 0 min 0,000 mm 0,5 UV-I 65 W/m 6,9 C 1,6 km/h (1 Bft)
04.10.2016 15:13 8,9 C 8,9 C 88 % 1028,0 hPa 0,0 mm 0,0 km/h (0 Bft) W-NW 300 0 min 0,000 mm 0,5 UV-I 67 W/m 7,0 C 0,0 km/h (0 Bft)
04.10.2016 15:14 8,9 C 8,9 C 89 % 1028,0 hPa 0,0 mm 0,3 km/h (0 Bft) W-NW 300 0 min 0,000 mm 0,5 UV-I 70 W/m 7,2 C 1,6 km/h (1 Bft)
04.10.2016 15:15 8,9 C 8,9 C 88 % 1028,0 hPa 0,0 mm 0,9 km/h (0 Bft) W-NW 300 0 min 0,000 mm 0,6 UV-I 84 W/m 7,0 C 1,6 km/h (1 Bft)
04.10.2016 15:16 8,9 C 8,9 C 88 % 1028,0 hPa 0,0 mm 0,8 km/h (0 Bft) W-NW 300 0 min 0,000 mm 0,7 UV-I 91 W/m 7,0 C 1,6 km/h (1 Bft)
04.10.2016 15:17 8,9 C 8,9 C 88 % 1028,0 hPa 0,0 mm 0,1 km/h (0 Bft) W-NW 300 0 min 0,000 mm 0,7 UV-I 97 W/m 7,0 C 1,6 km/h (1 Bft)
04.10.2016 15:18 8,9 C 8,9 C 89 % 1028,0 hPa 0,0 mm 0,3 km/h (0 Bft) W-NW 300 0 min 0,000 mm 0,7 UV-I 102 W/m 7,2 C 1,6 km/h (1 Bft)
04.10.2016 15:19 9,0 C 9,0 C 89 % 1028,0 hPa 0,0 mm 0,0 km/h (0 Bft) W-NW 300 0 min 0,000 mm 0,8 UV-I 111 W/m 7,3 C 0,0 km/h (0 Bft)
04.10.2016 15:20 9,0 C 9,1 C 89 % 1027,9 hPa 0,0 mm 0,1 km/h (0 Bft) W-NW 300 0 min 0,000 mm 0,8 UV-I 120 W/m 7,3 C 1,6 km/h (1 Bft)
04.10.2016 15:21 9,1 C 9,1 C 89 % 1028,0 hPa 0,0 mm 0,0 km/h (0 Bft) W-NW 300 0 min 0,000 mm 0,9 UV-I 135 W/m 7,4 C 0,0 km/h (0 Bft)
04.10.2016 15:22 9,1 C 9,1 C 89 % 1027,9 hPa 0,0 mm 0,0 km/h (0 Bft) W-NW 300 0 min 0,000 mm 0,9 UV-I 134 W/m 7,4 C 0,0 km/h (0 Bft)
04.10.2016 15:23 9,1 C 9,1 C 88 % 1027,9 hPa 0,0 mm 0,1 km/h (0 Bft) W-NW 300 0 min 0,000 mm 0,9 UV-I 130 W/m 7,2 C 1,6 km/h (1 Bft)
04.10.2016 15:24 9,1 C 9,1 C 88 % 1028,0 hPa 0,0 mm 0,0 km/h (0 Bft) W-NW 300 0 min 0,000 mm 0,9 UV-I 128 W/m 7,2 C 0,0 km/h (0 Bft)
04.10.2016 15:25 9,1 C 9,1 C 88 % 1027,9 hPa 0,0 mm 0,4 km/h (0 Bft) W-NW 300 0 min 0,000 mm 0,9 UV-I 127 W/m 7,2 C 1,6 km/h (1 Bft)
04.10.2016 15:26 9,0 C 9,1 C 88 % 1028,0 hPa 0,0 mm 0,0 km/h (0 Bft) W-NW 300 0 min 0,000 mm 0,9 UV-I 125 W/m 7,1 C 0,0 km/h (0 Bft)
04.10.2016 15:27 9,0 C 9,0 C 88 % 1027,9 hPa 0,0 mm 0,0 km/h (0 Bft) W-NW 300 0 min 0,000 mm 0,9 UV-I 123 W/m 7,1 C 0,0 km/h (0 Bft)
04.10.2016 15:28 9,0 C 9,0 C 88 % 1027,9 hPa 0,0 mm 0,0 km/h (0 Bft) W-NW 300 0 min 0,000 mm 0,9 UV-I 123 W/m 7,1 C 0,0 km/h (0 Bft)
04.10.2016 15:29 9,0 C 9,1 C 89 % 1027,9 hPa 0,0 mm 0,3 km/h (0 Bft) W-NW 300 0 min 0,000 mm 0,9 UV-I 121 W/m 7,3 C 1,6 km/h (1 Bft)
04.10.2016 15:30 9,1 C 9,1 C 89 % 1027,9 hPa 0,0 mm 1,0 km/h (0 Bft) W-NW 300 0 min 0,000 mm 0,9 UV-I 120 W/m 7,4 C 1,6 km/h (1 Bft)
04.10.2016 15:31 9,1 C 9,1 C 88 % 1027,9 hPa 0,0 mm 1,3 km/h (1 Bft) W-NW 300 0 min 0,000 mm 0,9 UV-I 118 W/m 7,2 C 3,2 km/h (1 Bft)
04.10.2016 15:32 9,1 C 9,1 C 88 % 1027,9 hPa 0,0 mm 0,9 km/h (0 Bft) W-NW 300 0 min 0,000 mm 0,9 UV-I 116 W/m 7,2 C 1,6 km/h (1 Bft)
04.10.2016 15:33 9,1 C 9,1 C 88 % 1027,9 hPa 0,0 mm 1,2 km/h (1 Bft) W-NW 300 0 min 0,000 mm 0,9 UV-I 116 W/m 7,2 C 1,6 km/h (1 Bft)
04.10.2016 15:34 9,1 C 9,1 C 88 % 1027,9 hPa 0,0 mm 1,9 km/h (1 Bft) W-NW 299 0 min 0,000 mm 0,8 UV-I 113 W/m 7,2 C 3,2 km/h (1 Bft)
04.10.2016 15:35 9,1 C 9,1 C 87 % 1027,9 hPa 0,0 mm 2,9 km/h (1 Bft) W-NW 298 0 min 0,000 mm 0,8 UV-I 107 W/m 7,1 C 3,2 km/h (1 Bft)
04.10.2016 15:36 9,1 C 9,1 C 87 % 1027,9 hPa 0,0 mm 1,9 km/h (1 Bft) W-SW 245 0 min 0,000 mm 0,8 UV-I 104 W/m 7,1 C 3,2 km/h (1 Bft)
04.10.2016 15:37 9,1 C 9,1 C 88 % 1027,9 hPa 0,0 mm 1,9 km/h (1 Bft) W-SW 245 0 min 0,000 mm 0,8 UV-I 100 W/m 7,2 C 3,2 km/h (1 Bft)
04.10.2016 15:38 9,1 C 9,1 C 88 % 1027,9 hPa 0,0 mm 0,9 km/h (0 Bft) W-SW 245 0 min 0,000 mm 0,7 UV-I 97 W/m 7,2 C 1,6 km/h (1 Bft)
04.10.2016 15:39 9,1 C 9,1 C 88 % 1027,9 hPa 0,0 mm 1,9 km/h (1 Bft) W-SW 245 0 min 0,000 mm 0,7 UV-I 90 W/m 7,2 C 3,2 km/h (1 Bft)
04.10.2016 15:40 9,1 C 9,1 C 88 % 1027,9 hPa 0,0 mm 1,2 km/h (1 Bft) W-SW 245 0 min 0,000 mm 0,7 UV-I 84 W/m 7,2 C 1,6 km/h (1 Bft)
04.10.2016 15:41 9,1 C 9,1 C 88 % 1027,9 hPa 0,0 mm 1,0 km/h (0 Bft) W-SW 245 0 min 0,000 mm 0,6 UV-I 81 W/m 7,2 C 1,6 km/h (1 Bft)
04.10.2016 15:42 9,1 C 9,1 C 87 % 1027,9 hPa 0,0 mm 1,7 km/h (1 Bft) W-SW 245 0 min 0,000 mm 0,6 UV-I 74 W/m 7,1 C 3,2 km/h (1 Bft)
04.10.2016 15:43 9,2 C 9,2 C 86 % 1027,9 hPa 0,0 mm 0,2 km/h (0 Bft) W-SW 245 0 min 0,000 mm 0,6 UV-I 69 W/m 7,0 C 1,6 km/h (1 Bft)
04.10.2016 15:44 9,2 C 9,2 C 86 % 1027,9 hPa 0,0 mm 0,3 km/h (0 Bft) W-SW 245 0 min 0,000 mm 0,6 UV-I 65 W/m 7,0 C 1,6 km/h (1 Bft)
04.10.2016 15:45 9,2 C 9,2 C 87 % 1027,9 hPa 0,0 mm 0,6 km/h (0 Bft) W-SW 245 0 min 0,000 mm 0,6 UV-I 67 W/m 7,2 C 1,6 km/h (1 Bft)
04.10.2016 15:46 9,2 C 9,2 C 88 % 1027,9 hPa 0,0 mm 2,3 km/h (1 Bft) SW 236 0 min 0,000 mm 0,6 UV-I 72 W/m 7,3 C 4,8 km/h (1 Bft)
04.10.2016 15:47 9,2 C 9,2 C 88 % 1027,9 hPa 0,0 mm 3,4 km/h (1 Bft) W-SW 237 0 min 0,000 mm 0,6 UV-I 79 W/m 7,3 C 4,8 km/h (1 Bft)
04.10.2016 15:48 9,3 C 9,3 C 85 % 1027,9 hPa 0,0 mm 2,2 km/h (1 Bft) W-NW 284 0 min 0,000 mm 0,7 UV-I 86 W/m 6,9 C 4,8 km/h (1 Bft)
04.10.2016 15:49 9,3 C 9,3 C 85 % 1027,9 hPa 0,0 mm 3,8 km/h (1 Bft) W-NW 303 0 min 0,000 mm 0,7 UV-I 97 W/m 6,9 C 6,4 km/h (2 Bft)
04.10.2016 15:50 9,3 C 9,3 C 83 % 1027,9 hPa 0,0 mm 2,2 km/h (1 Bft) W-NW 290 0 min 0,000 mm 0,7 UV-I 107 W/m 6,6 C 3,2 km/h (1 Bft)
04.10.2016 15:51 9,3 C 9,3 C 83 % 1027,9 hPa 0,0 mm 1,9 km/h (1 Bft) W-NW 290 0 min 0,000 mm 0,8 UV-I 109 W/m 6,6 C 3,2 km/h (1 Bft)
04.10.2016 15:52 9,3 C 9,3 C 84 % 1028,0 hPa 0,0 mm 3,0 km/h (1 Bft) W-NW 289 0 min 0,000 mm 0,8 UV-I 111 W/m 6,7 C 4,8 km/h (1 Bft)
04.10.2016 15:53 9,3 C 9,4 C 84 % 1027,9 hPa 0,0 mm 2,1 km/h (1 Bft) W-NW 289 0 min 0,000 mm 0,9 UV-I 118 W/m 6,7 C 3,2 km/h (1 Bft)
04.10.2016 15:54 9,4 C 9,4 C 84 % 1027,9 hPa 0,0 mm 1,7 km/h (1 Bft) N 350 0 min 0,000 mm 1,0 UV-I 127 W/m 6,8 C 4,8 km/h (1 Bft)
04.10.2016 15:55 9,4 C 9,4 C 85 % 1027,9 hPa 0,0 mm 2,2 km/h (1 Bft) N 350 0 min 0,000 mm 1,0 UV-I 139 W/m 7,0 C 3,2 km/h (1 Bft)
04.10.2016 15:56 9,4 C 9,4 C 84 % 1027,9 hPa 0,0 mm 1,0 km/h (0 Bft) N 350 0 min 0,000 mm 1,1 UV-I 148 W/m 6,8 C 1,6 km/h (1 Bft)
04.10.2016 15:57 9,4 C 9,4 C 85 % 1027,9 hPa 0,0 mm 2,1 km/h (1 Bft) N 350 0 min 0,000 mm 1,1 UV-I 153 W/m 7,0 C 3,2 km/h (1 Bft)
04.10.2016 15:58 9,4 C 9,4 C 85 % 1027,9 hPa 0,0 mm 1,8 km/h (1 Bft) N 350 0 min 0,000 mm 1,2 UV-I 169 W/m 7,0 C 3,2 km/h (1 Bft)
04.10.2016 15:59 9,4 C 9,4 C 83 % 1027,8 hPa 0,0 mm 0,6 km/h (0 Bft) N 350 0 min 0,000 mm 1,3 UV-I 188 W/m 6,7 C 1,6 km/h (1 Bft)
04.10.2016 16:00 9,4 C 9,4 C 84 % 1027,8 hPa 0,0 mm 2,7 km/h (1 Bft) W-NW 283 0 min 0,000 mm 1,3 UV-I 202 W/m 6,8 C 3,2 km/h (1 Bft)
04.10.2016 16:01 9,6 C 9,6 C 86 % 1027,8 hPa 0,0 mm 3,1 km/h (1 Bft) W-NW 283 0 min 0,051 mm 1,4 UV-I 223 W/m 7,4 C 4,8 km/h (1 Bft)
04.10.2016 16:02 9,7 C 9,7 C 84 % 1027,8 hPa 0,0 mm 3,1 km/h (1 Bft) W 277 1 min 0,000 mm 1,5 UV-I 278 W/m 7,1 C 4,8 km/h (1 Bft)
04.10.2016 16:03 9,7 C 9,7 C 84 % 1027,9 hPa 0,0 mm 3,2 km/h (1 Bft) NW 306 1 min 0,000 mm 1,5 UV-I 292 W/m 7,1 C 4,8 km/h (1 Bft)
04.10.2016 16:04 9,7 C 9,7 C 84 % 1027,8 hPa 0,0 mm 2,5 km/h (1 Bft) NW 306 1 min 0,000 mm 1,5 UV-I 318 W/m 7,1 C 3,2 km/h (1 Bft)
04.10.2016 16:05 9,7 C 9,7 C 82 % 1027,9 hPa 0,0 mm 2,1 km/h (1 Bft) W 276 1 min 0,000 mm 1,5 UV-I 341 W/m 6,8 C 4,8 km/h (1 Bft)
04.10.2016 16:06 9,7 C 9,7 C 82 % 1027,8 hPa 0,0 mm 1,7 km/h (1 Bft) W 276 1 min 0,000 mm 1,4 UV-I 294 W/m 6,8 C 3,2 km/h (1 Bft)
04.10.2016 16:07 9,8 C 9,8 C 84 % 1027,9 hPa 0,0 mm 0,5 km/h (0 Bft) W 276 1 min 0,000 mm 1,3 UV-I 283 W/m 7,2 C 3,2 km/h (1 Bft)
04.10.2016 16:08 9,8 C 9,8 C 83 % 1027,9 hPa 0,0 mm 0,1 km/h (0 Bft) W 276 0 min 0,000 mm 1,1 UV-I 183 W/m 7,1 C 1,6 km/h (1 Bft)
04.10.2016 16:09 9,8 C 9,8 C 83 % 1027,9 hPa 0,0 mm 2,0 km/h (1 Bft) NW 306 0 min 0,000 mm 0,9 UV-I 153 W/m 7,1 C 3,2 km/h (1 Bft)
04.10.2016 16:10 9,8 C 9,8 C 84 % 1027,9 hPa 0,0 mm 2,6 km/h (1 Bft) NW 306 0 min 0,000 mm 0,8 UV-I 130 W/m 7,2 C 3,2 km/h (1 Bft)
04.10.2016 16:11 9,8 C 9,8 C 82 % 1027,9 hPa 0,0 mm 2,5 km/h (1 Bft) NW 306 0 min 0,000 mm 0,8 UV-I 114 W/m 6,9 C 4,8 km/h (1 Bft)
04.10.2016 16:12 9,7 C 9,8 C 82 % 1027,9 hPa 0,0 mm 2,0 km/h (1 Bft) NW 306 0 min 0,000 mm 0,7 UV-I 105 W/m 6,8 C 3,2 km/h (1 Bft)
04.10.2016 16:13 9,7 C 9,7 C 82 % 1027,9 hPa 0,0 mm 0,4 km/h (0 Bft) NW 306 0 min 0,000 mm 0,7 UV-I 104 W/m 6,8 C 1,6 km/h (1 Bft)
04.10.2016 16:14 9,7 C 9,7 C 82 % 1027,9 hPa 0,0 mm 0,9 km/h (0 Bft) NW 306 0 min 0,000 mm 0,7 UV-I 100 W/m 6,8 C 1,6 km/h (1 Bft)
04.10.2016 16:15 9,7 C 9,7 C 84 % 1028,0 hPa 0,0 mm 2,3 km/h (1 Bft) NW 308 0 min 0,000 mm 0,7 UV-I 97 W/m 7,1 C 3,2 km/h (1 Bft)
04.10.2016 16:16 9,7 C 9,7 C 83 % 1028,0 hPa 0,0 mm 2,5 km/h (1 Bft) NW 311 0 min 0,000 mm 0,7 UV-I 98 W/m 7,0 C 4,8 km/h (1 Bft)
04.10.2016 16:17 9,7 C 9,7 C 83 % 1027,9 hPa 0,0 mm 3,3 km/h (1 Bft) NW 311 0 min 0,000 mm 0,7 UV-I 102 W/m 7,0 C 4,8 km/h (1 Bft)
04.10.2016 16:18 9,6 C 9,7 C 82 % 1027,9 hPa 0,0 mm 1,5 km/h (1 Bft) NW 311 0 min 0,000 mm 0,7 UV-I 102 W/m 6,7 C 3,2 km/h (1 Bft)
04.10.2016 16:19 9,6 C 9,7 C 83 % 1027,9 hPa 0,0 mm 2,5 km/h (1 Bft) NW 311 0 min 0,000 mm 0,6 UV-I 98 W/m 6,9 C 3,2 km/h (1 Bft)
04.10.2016 16:20 9,6 C 9,6 C 83 % 1027,9 hPa 0,0 mm 3,2 km/h (1 Bft) N 350 0 min 0,000 mm 0,6 UV-I 90 W/m 6,9 C 4,8 km/h (1 Bft)
04.10.2016 16:21 9,6 C 9,6 C 84 % 1027,9 hPa 0,0 mm 4,5 km/h (1 Bft) N 355 0 min 0,000 mm 0,6 UV-I 84 W/m 7,0 C 4,8 km/h (1 Bft)
04.10.2016 16:22 9,6 C 9,6 C 82 % 1027,9 hPa 0,0 mm 2,6 km/h (1 Bft) N 355 0 min 0,000 mm 0,6 UV-I 83 W/m 6,7 C 4,8 km/h (1 Bft)
04.10.2016 16:23 9,6 C 9,6 C 84 % 1028,0 hPa 0,0 mm 1,7 km/h (1 Bft) N-NO 17 0 min 0,000 mm 0,5 UV-I 83 W/m 7,0 C 3,2 km/h (1 Bft)
04.10.2016 16:24 9,6 C 9,6 C 84 % 1028,0 hPa 0,0 mm 4,3 km/h (1 Bft) NO 42 0 min 0,000 mm 0,5 UV-I 83 W/m 7,0 C 4,8 km/h (1 Bft)
04.10.2016 16:25 9,6 C 9,6 C 84 % 1028,0 hPa 0,0 mm 4,0 km/h (1 Bft) NO 42 0 min 0,000 mm 0,5 UV-I 81 W/m 7,0 C 4,8 km/h (1 Bft)
04.10.2016 16:26 9,6 C 9,6 C 84 % 1028,0 hPa 0,0 mm 1,5 km/h (1 Bft) NO 42 0 min 0,000 mm 0,5 UV-I 74 W/m 7,0 C 3,2 km/h (1 Bft)
04.10.2016 16:27 9,6 C 9,6 C 84 % 1028,0 hPa 0,0 mm 1,9 km/h (1 Bft) NO 42 0 min 0,000 mm 0,5 UV-I 72 W/m 7,0 C 3,2 km/h (1 Bft)
04.10.2016 16:28 9,6 C 9,6 C 84 % 1028,0 hPa 0,0 mm 2,9 km/h (1 Bft) N-NO 33 0 min 0,000 mm 0,5 UV-I 70 W/m 7,0 C 4,8 km/h (1 Bft)
04.10.2016 16:29 9,6 C 9,6 C 85 % 1028,0 hPa 0,0 mm 3,7 km/h (1 Bft) N-NW 339 0 min 0,000 mm 0,5 UV-I 70 W/m 7,2 C 6,4 km/h (2 Bft)
04.10.2016 16:30 9,6 C 9,6 C 84 % 1028,0 hPa 0,0 mm 2,3 km/h (1 Bft) N-NW 330 0 min 0,000 mm 0,5 UV-I 74 W/m 7,0 C 4,8 km/h (1 Bft)
04.10.2016 16:31 9,6 C 9,6 C 84 % 1028,0 hPa 0,0 mm 1,9 km/h (1 Bft) N-NW 327 0 min 0,000 mm 0,5 UV-I 77 W/m 7,0 C 3,2 km/h (1 Bft)
04.10.2016 16:32 9,6 C 9,6 C 85 % 1028,0 hPa 0,0 mm 2,6 km/h (1 Bft) NW 320 0 min 0,000 mm 0,6 UV-I 84 W/m 7,2 C 4,8 km/h (1 Bft)
04.10.2016 16:33 9,6 C 9,6 C 86 % 1028,0 hPa 0,0 mm 3,8 km/h (1 Bft) NW 305 0 min 0,000 mm 0,6 UV-I 88 W/m 7,4 C 4,8 km/h (1 Bft)
04.10.2016 16:34 9,6 C 9,6 C 87 % 1028,1 hPa 0,0 mm 3,9 km/h (1 Bft) N 355 0 min 0,000 mm 0,6 UV-I 88 W/m 7,5 C 6,4 km/h (2 Bft)
04.10.2016 16:35 9,6 C 9,6 C 87 % 1028,1 hPa 0,0 mm 3,1 km/h (1 Bft) N-NW 342 0 min 0,000 mm 0,6 UV-I 86 W/m 7,5 C 4,8 km/h (1 Bft)
04.10.2016 16:36 9,6 C 9,6 C 88 % 1028,1 hPa 0,0 mm 3,8 km/h (1 Bft) NW 310 0 min 0,000 mm 0,6 UV-I 88 W/m 7,7 C 4,8 km/h (1 Bft)
04.10.2016 16:37 9,6 C 9,6 C 87 % 1028,1 hPa 0,0 mm 4,4 km/h (1 Bft) NW 311 0 min 0,000 mm 0,6 UV-I 95 W/m 7,5 C 6,4 km/h (2 Bft)
04.10.2016 16:38 9,4 C 9,6 C 87 % 1028,1 hPa 0,0 mm 3,3 km/h (1 Bft) NW 317 0 min 0,000 mm 0,6 UV-I 113 W/m 7,3 C 4,8 km/h (1 Bft)
04.10.2016 16:39 9,4 C 9,5 C 88 % 1028,1 hPa 0,0 mm 2,6 km/h (1 Bft) NW 317 0 min 0,000 mm 0,6 UV-I 113 W/m 7,5 C 3,2 km/h (1 Bft)
04.10.2016 16:40 9,4 C 9,4 C 88 % 1028,1 hPa 0,0 mm 3,8 km/h (1 Bft) NW 325 0 min 0,000 mm 0,6 UV-I 111 W/m 7,5 C 6,4 km/h (2 Bft)
04.10.2016 16:41 9,5 C 9,5 C 89 % 1028,1 hPa 0,0 mm 2,6 km/h (1 Bft) NW 309 0 min 0,000 mm 0,5 UV-I 111 W/m 7,8 C 3,2 km/h (1 Bft)
04.10.2016 16:42 9,5 C 9,5 C 88 % 1028,0 hPa 0,0 mm 2,9 km/h (1 Bft) NW 305 0 min 0,000 mm 0,5 UV-I 104 W/m 7,6 C 4,8 km/h (1 Bft)
04.10.2016 16:43 9,5 C 9,5 C 88 % 1028,1 hPa 0,0 mm 4,2 km/h (1 Bft) NW 304 0 min 0,000 mm 0,5 UV-I 98 W/m 7,6 C 6,4 km/h (2 Bft)
04.10.2016 16:44 9,4 C 9,5 C 88 % 1028,1 hPa 0,0 mm 3,1 km/h (1 Bft) NW 310 0 min 0,000 mm 0,5 UV-I 95 W/m 7,5 C 4,8 km/h (1 Bft)
04.10.2016 16:45 9,4 C 9,4 C 88 % 1028,1 hPa 0,0 mm 3,1 km/h (1 Bft) W-NW 298 0 min 0,000 mm 0,5 UV-I 93 W/m 7,5 C 4,8 km/h (1 Bft)
04.10.2016 16:46 9,3 C 9,4 C 89 % 1028,0 hPa 0,0 mm 4,0 km/h (1 Bft) W-NW 283 0 min 0,000 mm 0,5 UV-I 91 W/m 7,6 C 4,8 km/h (1 Bft)
04.10.2016 16:47 9,3 C 9,3 C 88 % 1028,1 hPa 0,0 mm 3,8 km/h (1 Bft) W-NW 294 0 min 0,000 mm 0,5 UV-I 91 W/m 7,4 C 4,8 km/h (1 Bft)
04.10.2016 16:48 9,3 C 9,3 C 88 % 1028,1 hPa 0,0 mm 1,7 km/h (1 Bft) W-NW 300 0 min 0,000 mm 0,5 UV-I 83 W/m 7,4 C 4,8 km/h (1 Bft)
04.10.2016 16:49 9,3 C 9,3 C 89 % 1028,1 hPa 0,0 mm 3,8 km/h (1 Bft) N-NW 344 0 min 0,000 mm 0,0 UV-I 70 W/m 7,6 C 4,8 km/h (1 Bft)
04.10.2016 16:50 9,3 C 9,3 C 89 % 1028,1 hPa 0,0 mm 2,1 km/h (1 Bft) N-NW 329 0 min 0,000 mm 0,0 UV-I 65 W/m 7,6 C 4,8 km/h (1 Bft)
04.10.2016 16:51 9,3 C 9,3 C 90 % 1028,0 hPa 0,0 mm 1,3 km/h (1 Bft) N-NW 329 0 min 0,000 mm 0,0 UV-I 62 W/m 7,7 C 1,6 km/h (1 Bft)
04.10.2016 16:52 9,3 C 9,3 C 90 % 1028,0 hPa 0,0 mm 2,6 km/h (1 Bft) N-NW 329 0 min 0,000 mm 0,0 UV-I 58 W/m 7,7 C 4,8 km/h (1 Bft)
04.10.2016 16:53 9,3 C 9,3 C 90 % 1028,0 hPa 0,0 mm 2,3 km/h (1 Bft) N-NW 329 0 min 0,000 mm 0,0 UV-I 54 W/m 7,7 C 4,8 km/h (1 Bft)
04.10.2016 16:54 9,3 C 9,3 C 89 % 1028,0 hPa 0,0 mm 2,8 km/h (1 Bft) N-NW 329 0 min 0,000 mm 0,0 UV-I 53 W/m 7,6 C 4,8 km/h (1 Bft)
04.10.2016 16:55 9,3 C 9,3 C 90 % 1028,0 hPa 0,0 mm 2,9 km/h (1 Bft) NW 307 0 min 0,000 mm 0,0 UV-I 53 W/m 7,7 C 4,8 km/h (1 Bft)
04.10.2016 16:56 9,3 C 9,3 C 90 % 1028,1 hPa 0,0 mm 3,1 km/h (1 Bft) NW 304 0 min 0,000 mm 0,0 UV-I 53 W/m 7,7 C 4,8 km/h (1 Bft)
04.10.2016 16:57 9,3 C 9,3 C 89 % 1028,0 hPa 0,0 mm 3,1 km/h (1 Bft) W-NW 290 0 min 0,000 mm 0,0 UV-I 54 W/m 7,6 C 4,8 km/h (1 Bft)
04.10.2016 16:58 9,3 C 9,3 C 90 % 1028,0 hPa 0,0 mm 2,4 km/h (1 Bft) W-NW 290 0 min 0,000 mm 0,0 UV-I 53 W/m 7,7 C 3,2 km/h (1 Bft)
04.10.2016 16:59 9,3 C 9,3 C 90 % 1028,0 hPa 0,0 mm 1,9 km/h (1 Bft) NW 304 0 min 0,000 mm 0,0 UV-I 53 W/m 7,7 C 3,2 km/h (1 Bft)
04.10.2016 17:00 9,2 C 9,3 C 90 % 1028,0 hPa 0,0 mm 2,2 km/h (1 Bft) NW 304 0 min 0,000 mm 0,0 UV-I 51 W/m 7,6 C 3,2 km/h (1 Bft)
04.10.2016 17:01 9,2 C 9,2 C 90 % 1028,0 hPa 0,0 mm 2,8 km/h (1 Bft) N-NW 329 0 min 0,051 mm 0,0 UV-I 47 W/m 7,6 C 3,2 km/h (1 Bft)
04.10.2016 17:02 9,2 C 9,2 C 89 % 1028,0 hPa 0,0 mm 3,0 km/h (1 Bft) N-NW 332 0 min 0,000 mm 0,0 UV-I 44 W/m 7,5 C 4,8 km/h (1 Bft)
04.10.2016 17:03 9,2 C 9,2 C 90 % 1028,0 hPa 0,0 mm 1,6 km/h (1 Bft) NW 324 0 min 0,000 mm 0,0 UV-I 42 W/m 7,6 C 3,2 km/h (1 Bft)
04.10.2016 17:04 9,2 C 9,2 C 90 % 1028,0 hPa 0,0 mm 3,4 km/h (1 Bft) NW 308 0 min 0,000 mm 0,0 UV-I 39 W/m 7,6 C 4,8 km/h (1 Bft)
04.10.2016 17:05 9,2 C 9,2 C 90 % 1028,0 hPa 0,0 mm 3,1 km/h (1 Bft) NW 308 0 min 0,000 mm 0,0 UV-I 39 W/m 7,6 C 4,8 km/h (1 Bft)
04.10.2016 17:06 9,2 C 9,2 C 89 % 1028,0 hPa 0,0 mm 2,7 km/h (1 Bft) NW 308 0 min 0,000 mm 0,0 UV-I 37 W/m 7,5 C 4,8 km/h (1 Bft)
04.10.2016 17:07 9,1 C 9,2 C 89 % 1028,0 hPa 0,0 mm 1,7 km/h (1 Bft) NW 308 0 min 0,000 mm 0,0 UV-I 37 W/m 7,4 C 3,2 km/h (1 Bft)
04.10.2016 17:08 9,1 C 9,1 C 89 % 1028,0 hPa 0,0 mm 1,8 km/h (1 Bft) NW 308 0 min 0,000 mm 0,0 UV-I 37 W/m 7,4 C 3,2 km/h (1 Bft)
04.10.2016 17:09 9,1 C 9,1 C 89 % 1028,0 hPa 0,0 mm 1,8 km/h (1 Bft) NW 308 0 min 0,000 mm 0,0 UV-I 37 W/m 7,4 C 3,2 km/h (1 Bft)
04.10.2016 17:10 9,1 C 9,1 C 90 % 1028,0 hPa 0,0 mm 0,7 km/h (0 Bft) NW 308 0 min 0,000 mm 0,0 UV-I 37 W/m 7,5 C 1,6 km/h (1 Bft)
04.10.2016 17:11 9,1 C 9,1 C 90 % 1028,0 hPa 0,0 mm 3,6 km/h (1 Bft) N 360 0 min 0,000 mm 0,0 UV-I 37 W/m 7,5 C 4,8 km/h (1 Bft)
04.10.2016 17:12 9,1 C 9,1 C 90 % 1028,0 hPa 0,0 mm 2,7 km/h (1 Bft) N 360 0 min 0,000 mm 0,0 UV-I 37 W/m 7,5 C 3,2 km/h (1 Bft)
04.10.2016 17:13 9,1 C 9,1 C 90 % 1028,0 hPa 0,0 mm 1,8 km/h (1 Bft) N 360 0 min 0,000 mm 0,0 UV-I 37 W/m 7,5 C 3,2 km/h (1 Bft)
04.10.2016 17:14 9,1 C 9,1 C 90 % 1028,1 hPa 0,0 mm 0,3 km/h (0 Bft) N 360 0 min 0,000 mm 0,0 UV-I 35 W/m 7,5 C 1,6 km/h (1 Bft)
04.10.2016 17:15 9,1 C 9,1 C 89 % 1028,0 hPa 0,0 mm 1,0 km/h (0 Bft) N-NW 331 0 min 0,000 mm 0,0 UV-I 35 W/m 7,4 C 3,2 km/h (1 Bft)
04.10.2016 17:16 9,1 C 9,1 C 90 % 1028,0 hPa 0,0 mm 2,2 km/h (1 Bft) W-NW 286 0 min 0,000 mm 0,0 UV-I 35 W/m 7,5 C 4,8 km/h (1 Bft)
04.10.2016 17:17 9,1 C 9,1 C 90 % 1028,1 hPa 0,0 mm 1,6 km/h (1 Bft) W-NW 291 0 min 0,000 mm 0,0 UV-I 35 W/m 7,5 C 4,8 km/h (1 Bft)
04.10.2016 17:18 9,0 C 9,1 C 90 % 1028,1 hPa 0,0 mm 4,0 km/h (1 Bft) NW 312 0 min 0,000 mm 0,0 UV-I 35 W/m 7,4 C 6,4 km/h (2 Bft)
04.10.2016 17:19 9,0 C 9,1 C 90 % 1028,1 hPa 0,0 mm 3,9 km/h (1 Bft) NW 325 0 min 0,000 mm 0,0 UV-I 33 W/m 7,4 C 4,8 km/h (1 Bft)
04.10.2016 17:20 9,1 C 9,1 C 90 % 1028,1 hPa 0,0 mm 3,8 km/h (1 Bft) N-NW 335 0 min 0,000 mm 0,0 UV-I 33 W/m 7,5 C 4,8 km/h (1 Bft)
04.10.2016 17:21 9,1 C 9,1 C 90 % 1028,1 hPa 0,0 mm 2,6 km/h (1 Bft) N-NW 334 0 min 0,000 mm 0,0 UV-I 32 W/m 7,5 C 4,8 km/h (1 Bft)
04.10.2016 17:22 9,0 C 9,1 C 90 % 1028,1 hPa 0,0 mm 2,7 km/h (1 Bft) N-NW 333 0 min 0,000 mm 0,0 UV-I 32 W/m 7,4 C 4,8 km/h (1 Bft)
04.10.2016 17:23 9,1 C 9,1 C 90 % 1028,1 hPa 0,0 mm 2,7 km/h (1 Bft) N-NW 336 0 min 0,000 mm 0,0 UV-I 32 W/m 7,5 C 4,8 km/h (1 Bft)
04.10.2016 17:24 9,0 C 9,1 C 90 % 1028,1 hPa 0,0 mm 2,7 km/h (1 Bft) N-NW 335 0 min 0,000 mm 0,0 UV-I 30 W/m 7,4 C 3,2 km/h (1 Bft)
04.10.2016 17:25 9,0 C 9,0 C 90 % 1028,1 hPa 0,0 mm 5,1 km/h (1 Bft) N-NW 338 0 min 0,000 mm 0,0 UV-I 30 W/m 7,4 C 6,4 km/h (2 Bft)
04.10.2016 17:26 8,9 C 9,0 C 90 % 1028,1 hPa 0,0 mm 4,3 km/h (1 Bft) N 355 0 min 0,000 mm 0,0 UV-I 30 W/m 7,4 C 6,4 km/h (2 Bft)
04.10.2016 17:27 8,9 C 8,9 C 90 % 1028,1 hPa 0,0 mm 4,4 km/h (1 Bft) N-NW 344 0 min 0,000 mm 0,0 UV-I 30 W/m 7,4 C 6,4 km/h (2 Bft)
04.10.2016 17:28 8,9 C 8,9 C 90 % 1028,1 hPa 0,0 mm 4,0 km/h (1 Bft) N-NW 328 0 min 0,000 mm 0,0 UV-I 30 W/m 7,4 C 6,4 km/h (2 Bft)
04.10.2016 17:29 8,9 C 8,9 C 90 % 1028,1 hPa 0,0 mm 2,8 km/h (1 Bft) N-NW 341 0 min 0,000 mm 0,0 UV-I 32 W/m 7,4 C 4,8 km/h (1 Bft)
04.10.2016 17:30 8,8 C 8,9 C 90 % 1028,2 hPa 0,0 mm 2,4 km/h (1 Bft) N-NW 341 0 min 0,000 mm 0,0 UV-I 32 W/m 7,3 C 4,8 km/h (1 Bft)
04.10.2016 17:31 8,8 C 8,8 C 90 % 1028,2 hPa 0,0 mm 1,4 km/h (1 Bft) N-NW 341 0 min 0,000 mm 0,0 UV-I 33 W/m 7,3 C 3,2 km/h (1 Bft)
04.10.2016 17:32 8,8 C 8,8 C 90 % 1028,2 hPa 0,0 mm 1,0 km/h (0 Bft) N-NW 341 0 min 0,000 mm 0,0 UV-I 33 W/m 7,3 C 3,2 km/h (1 Bft)
04.10.2016 17:33 8,8 C 8,8 C 91 % 1028,2 hPa 0,0 mm 3,0 km/h (1 Bft) N-NW 341 0 min 0,000 mm 0,0 UV-I 33 W/m 7,4 C 3,2 km/h (1 Bft)
04.10.2016 17:34 8,8 C 8,8 C 91 % 1028,2 hPa 0,0 mm 3,2 km/h (1 Bft) N 360 0 min 0,000 mm 0,0 UV-I 33 W/m 7,4 C 3,2 km/h (1 Bft)
04.10.2016 17:35 8,8 C 8,8 C 91 % 1028,2 hPa 0,0 mm 2,4 km/h (1 Bft) N 360 0 min 0,000 mm 0,0 UV-I 33 W/m 7,4 C 4,8 km/h (1 Bft)
04.10.2016 17:36 8,8 C 8,8 C 91 % 1028,2 hPa 0,0 mm 1,8 km/h (1 Bft) N 360 0 min 0,000 mm 0,0 UV-I 32 W/m 7,4 C 3,2 km/h (1 Bft)
04.10.2016 17:37 8,7 C 8,8 C 90 % 1028,2 hPa 0,0 mm 1,8 km/h (1 Bft) N 360 0 min 0,000 mm 0,0 UV-I 32 W/m 7,2 C 3,2 km/h (1 Bft)
04.10.2016 17:38 8,7 C 8,7 C 91 % 1028,2 hPa 0,0 mm 0,9 km/h (0 Bft) N 360 0 min 0,000 mm 0,0 UV-I 32 W/m 7,3 C 3,2 km/h (1 Bft)
04.10.2016 17:39 8,7 C 8,7 C 91 % 1028,2 hPa 0,0 mm 1,8 km/h (1 Bft) N 360 0 min 0,000 mm 0,0 UV-I 32 W/m 7,3 C 3,2 km/h (1 Bft)
04.10.2016 17:40 8,7 C 8,8 C 91 % 1028,2 hPa 0,0 mm 3,2 km/h (1 Bft) N-NO 23 0 min 0,000 mm 0,0 UV-I 30 W/m 7,3 C 4,8 km/h (1 Bft)
04.10.2016 17:41 8,7 C 8,7 C 91 % 1028,2 hPa 0,0 mm 2,7 km/h (1 Bft) N-NO 24 0 min 0,000 mm 0,0 UV-I 30 W/m 7,3 C 4,8 km/h (1 Bft)
04.10.2016 17:42 8,7 C 8,7 C 91 % 1028,3 hPa 0,0 mm 2,9 km/h (1 Bft) N-NO 26 0 min 0,000 mm 0,0 UV-I 28 W/m 7,3 C 3,2 km/h (1 Bft)
04.10.2016 17:43 8,7 C 8,7 C 90 % 1028,2 hPa 0,0 mm 2,5 km/h (1 Bft) N-NO 26 0 min 0,000 mm 0,0 UV-I 28 W/m 7,2 C 3,2 km/h (1 Bft)
04.10.2016 17:44 8,7 C 8,7 C 90 % 1028,2 hPa 0,0 mm 2,1 km/h (1 Bft) N-NO 26 0 min 0,000 mm 0,0 UV-I 28 W/m 7,2 C 3,2 km/h (1 Bft)
04.10.2016 17:45 8,7 C 8,7 C 91 % 1028,2 hPa 0,0 mm 0,4 km/h (0 Bft) N-NO 26 0 min 0,000 mm 0,0 UV-I 30 W/m 7,3 C 1,6 km/h (1 Bft)
04.10.2016 17:46 8,7 C 8,7 C 91 % 1028,2 hPa 0,0 mm 0,9 km/h (0 Bft) N-NO 26 0 min 0,000 mm 0,0 UV-I 30 W/m 7,3 C 1,6 km/h (1 Bft)
04.10.2016 17:47 8,7 C 8,7 C 90 % 1028,3 hPa 0,0 mm 0,9 km/h (0 Bft) N-NO 26 0 min 0,000 mm 0,0 UV-I 32 W/m 7,2 C 1,6 km/h (1 Bft)
04.10.2016 17:48 8,6 C 8,7 C 90 % 1028,2 hPa 0,0 mm 0,8 km/h (0 Bft) N-NO 26 0 min 0,000 mm 0,0 UV-I 32 W/m 7,1 C 1,6 km/h (1 Bft)
04.10.2016 17:49 8,6 C 8,7 C 90 % 1028,3 hPa 0,0 mm 1,7 km/h (1 Bft) N-NO 26 0 min 0,000 mm 0,0 UV-I 32 W/m 7,1 C 3,2 km/h (1 Bft)
04.10.2016 17:50 8,6 C 8,7 C 90 % 1028,3 hPa 0,0 mm 0,7 km/h (0 Bft) N-NO 26 0 min 0,000 mm 0,0 UV-I 33 W/m 7,1 C 1,6 km/h (1 Bft)
04.10.2016 17:51 8,7 C 8,7 C 90 % 1028,3 hPa 0,0 mm 0,1 km/h (0 Bft) N-NO 26 0 min 0,000 mm 0,0 UV-I 33 W/m 7,2 C 1,6 km/h (1 Bft)
04.10.2016 17:52 8,7 C 8,7 C 90 % 1028,3 hPa 0,0 mm 0,5 km/h (0 Bft) N-NO 26 0 min 0,000 mm 0,0 UV-I 35 W/m 7,2 C 1,6 km/h (1 Bft)
04.10.2016 17:53 8,7 C 8,7 C 91 % 1028,3 hPa 0,0 mm 0,1 km/h (0 Bft) N-NO 26 0 min 0,000 mm 0,0 UV-I 35 W/m 7,3 C 1,6 km/h (1 Bft)
04.10.2016 17:54 8,7 C 8,7 C 90 % 1028,4 hPa 0,0 mm 0,0 km/h (0 Bft) N-NO 26 0 min 0,000 mm 0,0 UV-I 35 W/m 7,2 C 0,0 km/h (0 Bft)
04.10.2016 17:55 8,7 C 8,7 C 90 % 1028,3 hPa 0,0 mm 0,4 km/h (0 Bft) N-NO 26 0 min 0,000 mm 0,0 UV-I 35 W/m 7,2 C 1,6 km/h (1 Bft)
04.10.2016 17:56 8,7 C 8,7 C 91 % 1028,4 hPa 0,0 mm 1,1 km/h (1 Bft) N-NO 26 0 min 0,000 mm 0,0 UV-I 33 W/m 7,3 C 1,6 km/h (1 Bft)
04.10.2016 17:57 8,7 C 8,7 C 90 % 1028,3 hPa 0,0 mm 1,3 km/h (1 Bft) N-NO 26 0 min 0,000 mm 0,0 UV-I 32 W/m 7,2 C 1,6 km/h (1 Bft)
04.10.2016 17:58 8,7 C 8,7 C 90 % 1028,3 hPa 0,0 mm 0,9 km/h (0 Bft) N-NO 26 0 min 0,000 mm 0,0 UV-I 30 W/m 7,2 C 1,6 km/h (1 Bft)
04.10.2016 17:59 8,7 C 8,7 C 90 % 1028,4 hPa 0,0 mm 0,1 km/h (0 Bft) N-NO 26 0 min 0,000 mm 0,0 UV-I 26 W/m 7,2 C 1,6 km/h (1 Bft)
04.10.2016 18:00 8,7 C 8,7 C 90 % 1028,4 hPa 0,0 mm 0,1 km/h (0 Bft) N-NO 26 0 min 0,000 mm 0,0 UV-I 25 W/m 7,2 C 1,6 km/h (1 Bft)
04.10.2016 18:01 8,7 C 8,7 C 90 % 1028,3 hPa 0,0 mm 0,0 km/h (0 Bft) N-NO 26 0 min 0,025 mm 0,0 UV-I 23 W/m 7,2 C 0,0 km/h (0 Bft)
04.10.2016 18:02 8,7 C 8,7 C 90 % 1028,4 hPa 0,0 mm 0,0 km/h (0 Bft) N-NO 26 0 min 0,000 mm 0,0 UV-I 23 W/m 7,2 C 0,0 km/h (0 Bft)
04.10.2016 18:03 8,7 C 8,7 C 91 % 1028,4 hPa 0,0 mm 0,0 km/h (0 Bft) N-NO 26 0 min 0,000 mm 0,0 UV-I 21 W/m 7,3 C 0,0 km/h (0 Bft)
04.10.2016 18:04 8,7 C 8,7 C 91 % 1028,4 hPa 0,0 mm 0,0 km/h (0 Bft) N-NO 26 0 min 0,000 mm 0,0 UV-I 19 W/m 7,3 C 0,0 km/h (0 Bft)
04.10.2016 18:05 8,7 C 8,7 C 91 % 1028,5 hPa 0,0 mm 0,6 km/h (0 Bft) N-NO 26 0 min 0,000 mm 0,0 UV-I 18 W/m 7,3 C 1,6 km/h (1 Bft)
04.10.2016 18:06 8,7 C 8,7 C 91 % 1028,4 hPa 0,0 mm 0,7 km/h (0 Bft) N-NO 26 0 min 0,000 mm 0,0 UV-I 16 W/m 7,3 C 1,6 km/h (1 Bft)
04.10.2016 18:07 8,7 C 8,7 C 91 % 1028,5 hPa 0,0 mm 0,3 km/h (0 Bft) N-NO 26 0 min 0,000 mm 0,0 UV-I 16 W/m 7,3 C 1,6 km/h (1 Bft)
04.10.2016 18:08 8,7 C 8,7 C 91 % 1028,4 hPa 0,0 mm 0,0 km/h (0 Bft) N-NO 26 0 min 0,000 mm 0,0 UV-I 16 W/m 7,3 C 0,0 km/h (0 Bft)
04.10.2016 18:09 8,6 C 8,7 C 90 % 1028,5 hPa 0,0 mm 0,5 km/h (0 Bft) N-NO 26 0 min 0,000 mm 0,0 UV-I 14 W/m 7,1 C 1,6 km/h (1 Bft)
04.10.2016 18:10 8,6 C 8,7 C 90 % 1028,5 hPa 0,0 mm 0,7 km/h (0 Bft) N-NO 26 0 min 0,000 mm 0,0 UV-I 14 W/m 7,1 C 1,6 km/h (1 Bft)
04.10.2016 18:11 8,6 C 8,6 C 91 % 1028,5 hPa 0,0 mm 0,1 km/h (0 Bft) N-NO 26 0 min 0,000 mm 0,0 UV-I 12 W/m 7,2 C 1,6 km/h (1 Bft)
04.10.2016 18:12 8,6 C 8,6 C 91 % 1028,5 hPa 0,0 mm 0,0 km/h (0 Bft) N-NO 26 0 min 0,000 mm 0,0 UV-I 12 W/m 7,2 C 0,0 km/h (0 Bft)
04.10.2016 18:13 8,6 C 8,6 C 91 % 1028,5 hPa 0,0 mm 0,0 km/h (0 Bft) N-NO 26 0 min 0,000 mm 0,0 UV-I 11 W/m 7,2 C 0,0 km/h (0 Bft)
04.10.2016 18:14 8,6 C 8,6 C 90 % 1028,5 hPa 0,0 mm 0,0 km/h (0 Bft) N-NO 26 0 min 0,000 mm 0,0 UV-I 11 W/m 7,1 C 0,0 km/h (0 Bft)
04.10.2016 18:15 8,6 C 8,6 C 91 % 1028,5 hPa 0,0 mm 0,0 km/h (0 Bft) N-NO 26 0 min 0,000 mm 0,0 UV-I 11 W/m 7,2 C 0,0 km/h (0 Bft)
04.10.2016 18:16 8,6 C 8,6 C 91 % 1028,5 hPa 0,0 mm 0,0 km/h (0 Bft) N-NO 26 0 min 0,000 mm 0,0 UV-I 9 W/m 7,2 C 0,0 km/h (0 Bft)
04.10.2016 18:17 8,6 C 8,6 C 92 % 1028,5 hPa 0,0 mm 0,0 km/h (0 Bft) N-NO 26 0 min 0,000 mm 0,0 UV-I 9 W/m 7,4 C 0,0 km/h (0 Bft)
04.10.2016 18:18 8,6 C 8,6 C 91 % 1028,5 hPa 0,0 mm 0,0 km/h (0 Bft) N-NO 26 0 min 0,000 mm 0,0 UV-I 7 W/m 7,2 C 0,0 km/h (0 Bft)
04.10.2016 18:19 8,6 C 8,6 C 91 % 1028,5 hPa 0,0 mm 0,0 km/h (0 Bft) N-NO 26 0 min 0,000 mm 0,0 UV-I 7 W/m 7,2 C 0,0 km/h (0 Bft)
04.10.2016 18:20 8,6 C 8,6 C 91 % 1028,5 hPa 0,0 mm 0,0 km/h (0 Bft) N-NO 26 0 min 0,000 mm 0,0 UV-I 7 W/m 7,2 C 0,0 km/h (0 Bft)
04.10.2016 18:21 8,5 C 8,6 C 91 % 1028,5 hPa 0,0 mm 0,0 km/h (0 Bft) N-NO 26 0 min 0,000 mm 0,0 UV-I 7 W/m 7,1 C 0,0 km/h (0 Bft)
04.10.2016 18:22 8,5 C 8,5 C 91 % 1028,5 hPa 0,0 mm 0,0 km/h (0 Bft) N-NO 26 0 min 0,000 mm 0,0 UV-I 7 W/m 7,1 C 0,0 km/h (0 Bft)
04.10.2016 18:23 8,5 C 8,5 C 91 % 1028,5 hPa 0,0 mm 0,0 km/h (0 Bft) N-NO 26 0 min 0,000 mm 0,0 UV-I 9 W/m 7,1 C 0,0 km/h (0 Bft)
04.10.2016 18:24 8,5 C 8,5 C 91 % 1028,5 hPa 0,0 mm 0,0 km/h (0 Bft) N-NO 26 0 min 0,000 mm 0,0 UV-I 9 W/m 7,1 C 0,0 km/h (0 Bft)
04.10.2016 18:25 8,4 C 8,5 C 91 % 1028,6 hPa 0,0 mm 0,0 km/h (0 Bft) N-NO 26 0 min 0,000 mm 0,0 UV-I 9 W/m 7,0 C 0,0 km/h (0 Bft)
04.10.2016 18:26 8,4 C 8,4 C 91 % 1028,6 hPa 0,0 mm 0,0 km/h (0 Bft) N-NO 26 0 min 0,000 mm 0,0 UV-I 9 W/m 7,0 C 0,0 km/h (0 Bft)
04.10.2016 18:27 8,4 C 8,4 C 90 % 1028,6 hPa 0,0 mm 0,0 km/h (0 Bft) N-NO 26 0 min 0,000 mm 0,0 UV-I 9 W/m 6,9 C 0,0 km/h (0 Bft)
04.10.2016 18:28 8,4 C 8,4 C 90 % 1028,5 hPa 0,0 mm 0,0 km/h (0 Bft) N-NO 26 0 min 0,000 mm 0,0 UV-I 9 W/m 6,9 C 0,0 km/h (0 Bft)
04.10.2016 18:29 8,4 C 8,4 C 90 % 1028,5 hPa 0,0 mm 0,0 km/h (0 Bft) N-NO 26 0 min 0,000 mm 0,0 UV-I 7 W/m 6,9 C 0,0 km/h (0 Bft)
04.10.2016 18:30 8,3 C 8,4 C 90 % 1028,6 hPa 0,0 mm 0,0 km/h (0 Bft) N-NO 26 0 min 0,000 mm 0,0 UV-I 7 W/m 6,8 C 0,0 km/h (0 Bft)
04.10.2016 18:31 8,3 C 8,4 C 90 % 1028,6 hPa 0,0 mm 0,0 km/h (0 Bft) N-NO 26 0 min 0,000 mm 0,0 UV-I 5 W/m 6,8 C 0,0 km/h (0 Bft)
04.10.2016 18:32 8,3 C 8,4 C 91 % 1028,6 hPa 0,0 mm 0,0 km/h (0 Bft) N-NO 26 0 min 0,000 mm 0,0 UV-I 5 W/m 6,9 C 0,0 km/h (0 Bft)
04.10.2016 18:33 8,3 C 8,3 C 91 % 1028,6 hPa 0,0 mm 0,0 km/h (0 Bft) N-NO 26 0 min 0,000 mm 0,0 UV-I 5 W/m 6,9 C 0,0 km/h (0 Bft)
04.10.2016 18:34 8,3 C 8,3 C 91 % 1028,6 hPa 0,0 mm 0,0 km/h (0 Bft) N-NO 26 0 min 0,000 mm 0,0 UV-I 5 W/m 6,9 C 0,0 km/h (0 Bft)
04.10.2016 18:35 8,3 C 8,3 C 91 % 1028,6 hPa 0,0 mm 0,0 km/h (0 Bft) N-NO 26 0 min 0,000 mm 0,0 UV-I 5 W/m 6,9 C 0,0 km/h (0 Bft)
04.10.2016 18:36 8,3 C 8,3 C 92 % 1028,5 hPa 0,0 mm 0,0 km/h (0 Bft) N-NO 26 0 min 0,000 mm 0,0 UV-I 5 W/m 7,1 C 0,0 km/h (0 Bft)
04.10.2016 18:37 8,3 C 8,3 C 92 % 1028,6 hPa 0,0 mm 0,0 km/h (0 Bft) N-NO 26 0 min 0,000 mm 0,0 UV-I 5 W/m 7,1 C 0,0 km/h (0 Bft)
04.10.2016 18:38 8,2 C 8,3 C 92 % 1028,6 hPa 0,0 mm 0,0 km/h (0 Bft) N-NO 26 0 min 0,000 mm 0,0 UV-I 5 W/m 7,0 C 0,0 km/h (0 Bft)
04.10.2016 18:39 8,2 C 8,2 C 92 % 1028,6 hPa 0,0 mm 0,0 km/h (0 Bft) N-NO 26 0 min 0,000 mm 0,0 UV-I 0 W/m 7,0 C 0,0 km/h (0 Bft)
04.10.2016 18:40 8,2 C 8,2 C 92 % 1028,6 hPa 0,0 mm 0,0 km/h (0 Bft) N-NO 26 0 min 0,000 mm 0,0 UV-I 0 W/m 7,0 C 0,0 km/h (0 Bft)
04.10.2016 18:41 8,2 C 8,2 C 92 % 1028,7 hPa 0,0 mm 0,0 km/h (0 Bft) N-NO 26 0 min 0,000 mm 0,0 UV-I 0 W/m 7,0 C 0,0 km/h (0 Bft)
04.10.2016 18:42 8,2 C 8,2 C 92 % 1028,6 hPa 0,0 mm 0,0 km/h (0 Bft) N-NO 26 0 min 0,000 mm 0,0 UV-I 0 W/m 7,0 C 0,0 km/h (0 Bft)
04.10.2016 18:43 8,2 C 8,2 C 92 % 1028,6 hPa 0,0 mm 0,0 km/h (0 Bft) N-NO 26 0 min 0,000 mm 0,0 UV-I 0 W/m 7,0 C 0,0 km/h (0 Bft)
04.10.2016 18:44 8,2 C 8,2 C 93 % 1028,7 hPa 0,0 mm 0,0 km/h (0 Bft) N-NO 26 0 min 0,000 mm 0,0 UV-I 0 W/m 7,1 C 0,0 km/h (0 Bft)
04.10.2016 18:45 8,2 C 8,2 C 93 % 1028,6 hPa 0,0 mm 0,0 km/h (0 Bft) N-NO 26 0 min 0,000 mm 0,0 UV-I 0 W/m 7,1 C 0,0 km/h (0 Bft)
04.10.2016 18:46 8,1 C 8,2 C 93 % 1028,7 hPa 0,0 mm 0,0 km/h (0 Bft) N-NO 26 0 min 0,000 mm 0,0 UV-I 0 W/m 7,0 C 0,0 km/h (0 Bft)
04.10.2016 18:47 8,1 C 8,1 C 93 % 1028,7 hPa 0,0 mm 0,0 km/h (0 Bft) N-NO 26 0 min 0,000 mm 0,0 UV-I 0 W/m 7,0 C 0,0 km/h (0 Bft)
04.10.2016 18:48 8,1 C 8,1 C 93 % 1028,7 hPa 0,0 mm 0,0 km/h (0 Bft) N-NO 26 0 min 0,000 mm 0,0 UV-I 0 W/m 7,0 C 0,0 km/h (0 Bft)
04.10.2016 18:49 8,1 C 8,1 C 93 % 1028,8 hPa 0,0 mm 0,0 km/h (0 Bft) N-NO 26 0 min 0,000 mm 0,0 UV-I 0 W/m 7,0 C 0,0 km/h (0 Bft)
04.10.2016 18:50 8,1 C 8,1 C 93 % 1028,7 hPa 0,0 mm 0,0 km/h (0 Bft) N-NO 26 0 min 0,000 mm 0,0 UV-I 0 W/m 7,0 C 0,0 km/h (0 Bft)
04.10.2016 18:51 8,1 C 8,1 C 93 % 1028,7 hPa 0,0 mm 0,0 km/h (0 Bft) N-NO 26 0 min 0,000 mm 0,0 UV-I 0 W/m 7,0 C 0,0 km/h (0 Bft)
04.10.2016 18:52 8,1 C 8,1 C 93 % 1028,7 hPa 0,0 mm 0,0 km/h (0 Bft) N-NO 26 0 min 0,000 mm 0,0 UV-I 0 W/m 7,0 C 0,0 km/h (0 Bft)
04.10.2016 18:53 8,1 C 8,1 C 93 % 1028,7 hPa 0,0 mm 0,0 km/h (0 Bft) N-NO 26 0 min 0,000 mm 0,0 UV-I 0 W/m 7,0 C 0,0 km/h (0 Bft)
04.10.2016 18:54 8,0 C 8,1 C 93 % 1028,7 hPa 0,0 mm 0,0 km/h (0 Bft) N-NO 26 0 min 0,000 mm 0,0 UV-I 0 W/m 6,9 C 0,0 km/h (0 Bft)
04.10.2016 18:55 8,0 C 8,1 C 94 % 1028,8 hPa 0,0 mm 0,0 km/h (0 Bft) N-NO 26 0 min 0,000 mm 0,0 UV-I 0 W/m 7,1 C 0,0 km/h (0 Bft)
04.10.2016 18:56 8,0 C 8,0 C 94 % 1028,8 hPa 0,0 mm 0,0 km/h (0 Bft) N-NO 26 0 min 0,000 mm 0,0 UV-I 0 W/m 7,1 C 0,0 km/h (0 Bft)
04.10.2016 18:57 8,0 C 8,1 C 94 % 1028,9 hPa 0,0 mm 0,0 km/h (0 Bft) N-NO 26 0 min 0,000 mm 0,0 UV-I 0 W/m 7,1 C 0,0 km/h (0 Bft)
04.10.2016 18:58 8,0 C 8,0 C 94 % 1028,8 hPa 0,0 mm 0,0 km/h (0 Bft) N-NO 26 0 min 0,000 mm 0,0 UV-I 0 W/m 7,1 C 0,0 km/h (0 Bft)
04.10.2016 18:59 8,0 C 8,0 C 94 % 1028,8 hPa 0,0 mm 0,0 km/h (0 Bft) N-NO 26 0 min 0,000 mm 0,0 UV-I 0 W/m 7,1 C 0,0 km/h (0 Bft)
04.10.2016 19:00 7,9 C 8,0 C 94 % 1028,8 hPa 0,0 mm 0,0 km/h (0 Bft) N-NO 26 0 min 0,000 mm 0,0 UV-I 0 W/m 7,0 C 0,0 km/h (0 Bft)
04.10.2016 19:01 8,0 C 8,0 C 94 % 1028,9 hPa 0,0 mm 0,0 km/h (0 Bft) N-NO 26 0 min 0,000 mm 0,0 UV-I 0 W/m 7,1 C 0,0 km/h (0 Bft)
04.10.2016 19:02 8,0 C 8,0 C 94 % 1028,9 hPa 0,2 mm 0,0 km/h (0 Bft) N-NO 26 0 min 0,000 mm 0,0 UV-I 0 W/m 7,1 C 0,0 km/h (0 Bft)
04.10.2016 19:03 7,9 C 8,0 C 94 % 1028,9 hPa 0,0 mm 0,0 km/h (0 Bft) N-NO 26 0 min 0,000 mm 0,0 UV-I 0 W/m 7,0 C 0,0 km/h (0 Bft)
04.10.2016 19:04 7,9 C 8,0 C 94 % 1028,9 hPa 0,0 mm 0,0 km/h (0 Bft) N-NO 26 0 min 0,000 mm 0,0 UV-I 0 W/m 7,0 C 0,0 km/h (0 Bft)
04.10.2016 19:05 7,9 C 7,9 C 94 % 1028,9 hPa 0,0 mm 0,0 km/h (0 Bft) N-NO 26 0 min 0,000 mm 0,0 UV-I 0 W/m 7,0 C 0,0 km/h (0 Bft)
04.10.2016 19:06 7,9 C 7,9 C 94 % 1028,8 hPa 0,0 mm 0,0 km/h (0 Bft) N-NO 26 0 min 0,000 mm 0,0 UV-I 0 W/m 7,0 C 0,0 km/h (0 Bft)
04.10.2016 19:07 7,9 C 7,9 C 94 % 1028,9 hPa 0,0 mm 0,0 km/h (0 Bft) N-NO 26 0 min 0,000 mm 0,0 UV-I 0 W/m 7,0 C 0,0 km/h (0 Bft)
04.10.2016 19:08 7,9 C 7,9 C 94 % 1028,8 hPa 0,0 mm 0,0 km/h (0 Bft) N-NO 26 0 min 0,000 mm 0,0 UV-I 0 W/m 7,0 C 0,0 km/h (0 Bft)
04.10.2016 19:09 7,9 C 7,9 C 94 % 1028,9 hPa 0,0 mm 0,0 km/h (0 Bft) N-NO 26 0 min 0,000 mm 0,0 UV-I 0 W/m 7,0 C 0,0 km/h (0 Bft)
04.10.2016 19:10 7,9 C 7,9 C 94 % 1028,9 hPa 0,0 mm 0,0 km/h (0 Bft) N-NO 26 0 min 0,000 mm 0,0 UV-I 0 W/m 7,0 C 0,0 km/h (0 Bft)
04.10.2016 19:11 7,9 C 7,9 C 94 % 1028,9 hPa 0,0 mm 0,0 km/h (0 Bft) N-NO 26 0 min 0,000 mm 0,0 UV-I 0 W/m 7,0 C 0,0 km/h (0 Bft)
04.10.2016 19:12 7,9 C 7,9 C 94 % 1028,9 hPa 0,0 mm 0,0 km/h (0 Bft) N-NO 26 0 min 0,000 mm 0,0 UV-I 0 W/m 7,0 C 0,0 km/h (0 Bft)
04.10.2016 19:13 7,8 C 7,9 C 94 % 1028,9 hPa 0,0 mm 0,0 km/h (0 Bft) N-NO 26 0 min 0,000 mm 0,0 UV-I 0 W/m 6,9 C 0,0 km/h (0 Bft)
04.10.2016 19:14 7,8 C 7,9 C 94 % 1028,9 hPa 0,0 mm 0,0 km/h (0 Bft) N-NO 26 0 min 0,000 mm 0,0 UV-I 0 W/m 6,9 C 0,0 km/h (0 Bft)
04.10.2016 19:15 7,9 C 7,9 C 94 % 1028,9 hPa 0,0 mm 0,0 km/h (0 Bft) N-NO 26 0 min 0,000 mm 0,0 UV-I 0 W/m 7,0 C 0,0 km/h (0 Bft)
04.10.2016 19:16 7,9 C 7,9 C 94 % 1028,9 hPa 0,0 mm 0,0 km/h (0 Bft) N-NO 26 0 min 0,000 mm 0,0 UV-I 0 W/m 7,0 C 0,0 km/h (0 Bft)
04.10.2016 19:17 7,9 C 7,9 C 94 % 1028,9 hPa 0,0 mm 0,0 km/h (0 Bft) N-NO 26 0 min 0,000 mm 0,0 UV-I 0 W/m 7,0 C 0,0 km/h (0 Bft)
04.10.2016 19:18 7,9 C 7,9 C 95 % 1028,9 hPa 0,2 mm 0,0 km/h (0 Bft) N-NO 26 0 min 0,000 mm 0,0 UV-I 0 W/m 7,1 C 0,0 km/h (0 Bft)
04.10.2016 19:19 7,9 C 7,9 C 94 % 1029,0 hPa 0,0 mm 0,1 km/h (0 Bft) N-NO 26 0 min 0,000 mm 0,0 UV-I 0 W/m 7,0 C 1,6 km/h (1 Bft)
04.10.2016 19:20 7,9 C 7,9 C 94 % 1028,9 hPa 0,0 mm 1,7 km/h (1 Bft) N-NO 26 0 min 0,000 mm 0,0 UV-I 0 W/m 7,0 C 3,2 km/h (1 Bft)
04.10.2016 19:21 7,9 C 7,9 C 94 % 1029,0 hPa 0,0 mm 1,2 km/h (1 Bft) N-NO 26 0 min 0,000 mm 0,0 UV-I 0 W/m 7,0 C 3,2 km/h (1 Bft)
04.10.2016 19:22 7,9 C 8,0 C 94 % 1029,0 hPa 0,0 mm 0,0 km/h (0 Bft) N-NO 26 0 min 0,000 mm 0,0 UV-I 0 W/m 7,0 C 0,0 km/h (0 Bft)
04.10.2016 19:23 7,9 C 7,9 C 94 % 1029,0 hPa 0,0 mm 0,0 km/h (0 Bft) N-NO 26 0 min 0,000 mm 0,0 UV-I 0 W/m 7,0 C 0,0 km/h (0 Bft)
04.10.2016 19:24 7,9 C 7,9 C 94 % 1029,0 hPa 0,0 mm 0,0 km/h (0 Bft) N-NO 26 0 min 0,000 mm 0,0 UV-I 0 W/m 7,0 C 0,0 km/h (0 Bft)
04.10.2016 19:25 7,9 C 7,9 C 94 % 1029,0 hPa 0,0 mm 0,0 km/h (0 Bft) N-NO 26 0 min 0,000 mm 0,0 UV-I 0 W/m 7,0 C 0,0 km/h (0 Bft)
04.10.2016 19:26 7,8 C 7,9 C 94 % 1029,0 hPa 0,2 mm 0,0 km/h (0 Bft) N-NO 26 0 min 0,000 mm 0,0 UV-I 0 W/m 6,9 C 0,0 km/h (0 Bft)
04.10.2016 19:27 7,8 C 7,8 C 94 % 1029,0 hPa 0,0 mm 0,0 km/h (0 Bft) N-NO 26 0 min 0,000 mm 0,0 UV-I 0 W/m 6,9 C 0,0 km/h (0 Bft)
04.10.2016 19:28 7,8 C 7,8 C 94 % 1029,0 hPa 0,0 mm 0,0 km/h (0 Bft) N-NO 26 0 min 0,000 mm 0,0 UV-I 0 W/m 6,9 C 0,0 km/h (0 Bft)
04.10.2016 19:29 7,8 C 7,8 C 94 % 1029,0 hPa 0,0 mm 0,0 km/h (0 Bft) N-NO 26 0 min 0,000 mm 0,0 UV-I 0 W/m 6,9 C 0,0 km/h (0 Bft)
04.10.2016 19:30 7,8 C 7,8 C 94 % 1029,0 hPa 0,0 mm 0,0 km/h (0 Bft) N-NO 26 0 min 0,000 mm 0,0 UV-I 0 W/m 6,9 C 0,0 km/h (0 Bft)
04.10.2016 19:31 7,8 C 7,8 C 94 % 1029,0 hPa 0,0 mm 0,0 km/h (0 Bft) N-NO 26 0 min 0,000 mm 0,0 UV-I 0 W/m 6,9 C 0,0 km/h (0 Bft)
04.10.2016 19:32 7,8 C 7,8 C 94 % 1029,1 hPa 0,0 mm 0,0 km/h (0 Bft) N-NO 26 0 min 0,000 mm 0,0 UV-I 0 W/m 6,9 C 0,0 km/h (0 Bft)
04.10.2016 19:33 7,8 C 7,8 C 94 % 1029,1 hPa 0,0 mm 0,0 km/h (0 Bft) N-NO 26 0 min 0,000 mm 0,0 UV-I 0 W/m 6,9 C 0,0 km/h (0 Bft)
04.10.2016 19:34 7,8 C 7,8 C 94 % 1029,1 hPa 0,2 mm 0,0 km/h (0 Bft) N-NO 26 0 min 0,000 mm 0,0 UV-I 0 W/m 6,9 C 0,0 km/h (0 Bft)
04.10.2016 19:35 7,8 C 7,8 C 94 % 1029,1 hPa 0,0 mm 0,0 km/h (0 Bft) N-NO 26 0 min 0,000 mm 0,0 UV-I 0 W/m 6,9 C 0,0 km/h (0 Bft)
04.10.2016 19:36 7,7 C 7,8 C 94 % 1029,1 hPa 0,0 mm 0,0 km/h (0 Bft) N-NO 26 0 min 0,000 mm 0,0 UV-I 0 W/m 6,8 C 0,0 km/h (0 Bft)
04.10.2016 19:37 7,7 C 7,8 C 94 % 1029,1 hPa 0,0 mm 0,0 km/h (0 Bft) N-NO 26 0 min 0,000 mm 0,0 UV-I 0 W/m 6,8 C 0,0 km/h (0 Bft)
04.10.2016 19:38 7,7 C 7,7 C 94 % 1029,1 hPa 0,0 mm 0,6 km/h (0 Bft) N-NO 26 0 min 0,000 mm 0,0 UV-I 0 W/m 6,8 C 3,2 km/h (1 Bft)
04.10.2016 19:39 7,8 C 7,8 C 94 % 1029,1 hPa 0,0 mm 1,9 km/h (1 Bft) N-NO 27 0 min 0,000 mm 0,0 UV-I 0 W/m 6,9 C 3,2 km/h (1 Bft)
04.10.2016 19:40 7,8 C 7,8 C 95 % 1029,1 hPa 0,2 mm 2,5 km/h (1 Bft) N-NO 26 0 min 0,000 mm 0,0 UV-I 0 W/m 7,0 C 3,2 km/h (1 Bft)
04.10.2016 19:41 7,8 C 7,8 C 95 % 1029,1 hPa 0,0 mm 1,9 km/h (1 Bft) N-NO 26 0 min 0,000 mm 0,0 UV-I 0 W/m 7,0 C 3,2 km/h (1 Bft)
04.10.2016 19:42 7,8 C 7,8 C 95 % 1029,1 hPa 0,0 mm 2,7 km/h (1 Bft) N-NO 26 0 min 0,000 mm 0,0 UV-I 0 W/m 7,0 C 3,2 km/h (1 Bft)
04.10.2016 19:43 7,8 C 7,8 C 95 % 1029,1 hPa 0,0 mm 2,9 km/h (1 Bft) N-NO 26 0 min 0,000 mm 0,0 UV-I 0 W/m 7,0 C 4,8 km/h (1 Bft)
04.10.2016 19:44 7,8 C 7,8 C 95 % 1029,1 hPa 0,0 mm 2,1 km/h (1 Bft) N-NO 19 0 min 0,000 mm 0,0 UV-I 0 W/m 7,0 C 3,2 km/h (1 Bft)
04.10.2016 19:45 7,8 C 7,8 C 95 % 1029,1 hPa 0,0 mm 2,7 km/h (1 Bft) N 5 0 min 0,000 mm 0,0 UV-I 0 W/m 7,0 C 4,8 km/h (1 Bft)
04.10.2016 19:46 7,8 C 7,8 C 95 % 1029,1 hPa 0,2 mm 3,5 km/h (1 Bft) N 360 0 min 0,000 mm 0,0 UV-I 0 W/m 7,0 C 4,8 km/h (1 Bft)
04.10.2016 19:47 7,8 C 7,8 C 95 % 1029,1 hPa 0,0 mm 1,7 km/h (1 Bft) N 360 0 min 0,000 mm 0,0 UV-I 0 W/m 7,0 C 3,2 km/h (1 Bft)
04.10.2016 19:48 7,8 C 7,8 C 95 % 1029,1 hPa 0,0 mm 0,0 km/h (0 Bft) N 360 0 min 0,000 mm 0,0 UV-I 0 W/m 7,0 C 0,0 km/h (0 Bft)
04.10.2016 19:49 7,7 C 7,8 C 95 % 1029,0 hPa 0,0 mm 0,6 km/h (0 Bft) N 360 0 min 0,000 mm 0,0 UV-I 0 W/m 7,0 C 1,6 km/h (1 Bft)
04.10.2016 19:50 7,7 C 7,7 C 95 % 1029,0 hPa 0,0 mm 0,1 km/h (0 Bft) N 360 0 min 0,000 mm 0,0 UV-I 0 W/m 7,0 C 1,6 km/h (1 Bft)
04.10.2016 19:51 7,7 C 7,8 C 95 % 1029,0 hPa 0,0 mm 0,0 km/h (0 Bft) N 360 0 min 0,000 mm 0,0 UV-I 0 W/m 7,0 C 0,0 km/h (0 Bft)
04.10.2016 19:52 7,7 C 7,7 C 95 % 1029,1 hPa 0,0 mm 0,1 km/h (0 Bft) N 360 0 min 0,000 mm 0,0 UV-I 0 W/m 7,0 C 1,6 km/h (1 Bft)
04.10.2016 19:53 7,7 C 7,7 C 95 % 1029,1 hPa 0,0 mm 0,1 km/h (0 Bft) N 360 0 min 0,000 mm 0,0 UV-I 0 W/m 7,0 C 1,6 km/h (1 Bft)
04.10.2016 19:54 7,7 C 7,7 C 95 % 1029,0 hPa 0,0 mm 0,0 km/h (0 Bft) N 360 0 min 0,000 mm 0,0 UV-I 0 W/m 7,0 C 0,0 km/h (0 Bft)
04.10.2016 19:55 7,7 C 7,7 C 95 % 1029,0 hPa 0,0 mm 0,1 km/h (0 Bft) N 360 0 min 0,000 mm 0,0 UV-I 0 W/m 7,0 C 1,6 km/h (1 Bft)
04.10.2016 19:56 7,7 C 7,7 C 95 % 1029,0 hPa 0,0 mm 1,0 km/h (0 Bft) N 360 0 min 0,000 mm 0,0 UV-I 0 W/m 7,0 C 1,6 km/h (1 Bft)
04.10.2016 19:57 7,7 C 7,7 C 95 % 1029,0 hPa 0,0 mm 0,1 km/h (0 Bft) N 360 0 min 0,000 mm 0,0 UV-I 0 W/m 7,0 C 1,6 km/h (1 Bft)
04.10.2016 19:58 7,7 C 7,7 C 95 % 1029,0 hPa 0,0 mm 0,0 km/h (0 Bft) N 360 0 min 0,000 mm 0,0 UV-I 0 W/m 7,0 C 0,0 km/h (0 Bft)
04.10.2016 19:59 7,7 C 7,7 C 95 % 1029,0 hPa 0,0 mm 0,0 km/h (0 Bft) N 360 0 min 0,000 mm 0,0 UV-I 0 W/m 7,0 C 0,0 km/h (0 Bft)
04.10.2016 20:00 7,7 C 7,7 C 95 % 1029,0 hPa 0,0 mm 0,0 km/h (0 Bft) N 360 0 min 0,000 mm 0,0 UV-I 0 W/m 7,0 C 0,0 km/h (0 Bft)
04.10.2016 20:01 7,7 C 7,7 C 95 % 1029,0 hPa 0,0 mm 0,0 km/h (0 Bft) N 360 0 min 0,000 mm 0,0 UV-I 0 W/m 7,0 C 0,0 km/h (0 Bft)
04.10.2016 20:02 7,7 C 7,7 C 95 % 1029,0 hPa 0,0 mm 0,0 km/h (0 Bft) N 360 0 min 0,000 mm 0,0 UV-I 0 W/m 7,0 C 0,0 km/h (0 Bft)
04.10.2016 20:03 7,7 C 7,7 C 95 % 1029,1 hPa 0,0 mm 0,7 km/h (0 Bft) N 360 0 min 0,000 mm 0,0 UV-I 0 W/m 7,0 C 1,6 km/h (1 Bft)
04.10.2016 20:04 7,7 C 7,7 C 95 % 1029,0 hPa 0,0 mm 0,5 km/h (0 Bft) N 360 0 min 0,000 mm 0,0 UV-I 0 W/m 7,0 C 1,6 km/h (1 Bft)
04.10.2016 20:05 7,7 C 7,7 C 95 % 1029,0 hPa 0,0 mm 0,4 km/h (0 Bft) N 360 0 min 0,000 mm 0,0 UV-I 0 W/m 7,0 C 1,6 km/h (1 Bft)
04.10.2016 20:06 7,7 C 7,7 C 95 % 1029,0 hPa 0,0 mm 0,1 km/h (0 Bft) N 360 0 min 0,000 mm 0,0 UV-I 0 W/m 7,0 C 1,6 km/h (1 Bft)
04.10.2016 20:07 7,7 C 7,7 C 95 % 1029,0 hPa 0,2 mm 0,0 km/h (0 Bft) N 360 0 min 0,000 mm 0,0 UV-I 0 W/m 7,0 C 0,0 km/h (0 Bft)
04.10.2016 20:08 7,7 C 7,7 C 95 % 1029,0 hPa 0,0 mm 0,1 km/h (0 Bft) N 360 0 min 0,000 mm 0,0 UV-I 0 W/m 7,0 C 1,6 km/h (1 Bft)
04.10.2016 20:09 7,7 C 7,7 C 95 % 1029,0 hPa 0,0 mm 0,0 km/h (0 Bft) N 360 0 min 0,000 mm 0,0 UV-I 0 W/m 7,0 C 0,0 km/h (0 Bft)
04.10.2016 20:10 7,7 C 7,7 C 95 % 1029,0 hPa 0,0 mm 0,0 km/h (0 Bft) N 360 0 min 0,000 mm 0,0 UV-I 0 W/m 7,0 C 0,0 km/h (0 Bft)
04.10.2016 20:11 7,7 C 7,7 C 95 % 1029,0 hPa 0,0 mm 0,0 km/h (0 Bft) N 360 0 min 0,000 mm 0,0 UV-I 0 W/m 7,0 C 0,0 km/h (0 Bft)
04.10.2016 20:12 7,7 C 7,7 C 95 % 1029,0 hPa 0,0 mm 0,0 km/h (0 Bft) N 360 0 min 0,000 mm 0,0 UV-I 0 W/m 7,0 C 0,0 km/h (0 Bft)
04.10.2016 20:13 7,7 C 7,7 C 95 % 1029,0 hPa 0,0 mm 0,8 km/h (0 Bft) N 360 0 min 0,000 mm 0,0 UV-I 0 W/m 7,0 C 1,6 km/h (1 Bft)
04.10.2016 20:14 7,7 C 7,7 C 95 % 1029,0 hPa 0,0 mm 0,2 km/h (0 Bft) N 360 0 min 0,000 mm 0,0 UV-I 0 W/m 7,0 C 1,6 km/h (1 Bft)
04.10.2016 20:15 7,7 C 7,7 C 95 % 1029,0 hPa 0,0 mm 0,1 km/h (0 Bft) N 360 0 min 0,000 mm 0,0 UV-I 0 W/m 7,0 C 1,6 km/h (1 Bft)
04.10.2016 20:16 7,7 C 7,7 C 95 % 1029,0 hPa 0,0 mm 1,3 km/h (1 Bft) N 360 0 min 0,000 mm 0,0 UV-I 0 W/m 7,0 C 1,6 km/h (1 Bft)
04.10.2016 20:17 7,7 C 7,7 C 95 % 1029,0 hPa 0,0 mm 1,0 km/h (0 Bft) N 360 0 min 0,000 mm 0,0 UV-I 0 W/m 7,0 C 1,6 km/h (1 Bft)
04.10.2016 20:18 7,7 C 7,7 C 95 % 1029,0 hPa 0,0 mm 1,3 km/h (1 Bft) N 360 0 min 0,000 mm 0,0 UV-I 0 W/m 7,0 C 1,6 km/h (1 Bft)
04.10.2016 20:19 7,7 C 7,7 C 95 % 1029,1 hPa 0,0 mm 0,2 km/h (0 Bft) N 360 0 min 0,000 mm 0,0 UV-I 0 W/m 7,0 C 1,6 km/h (1 Bft)
04.10.2016 20:20 7,7 C 7,8 C 95 % 1029,0 hPa 0,0 mm 0,0 km/h (0 Bft) N 360 0 min 0,000 mm 0,0 UV-I 0 W/m 7,0 C 0,0 km/h (0 Bft)
04.10.2016 20:21 7,7 C 7,7 C 95 % 1029,0 hPa 0,0 mm 0,0 km/h (0 Bft) N 360 0 min 0,000 mm 0,0 UV-I 0 W/m 7,0 C 0,0 km/h (0 Bft)
04.10.2016 20:22 7,8 C 7,8 C 95 % 1029,1 hPa 0,0 mm 0,0 km/h (0 Bft) N 360 0 min 0,000 mm 0,0 UV-I 0 W/m 7,0 C 0,0 km/h (0 Bft)
04.10.2016 20:23 7,8 C 7,8 C 95 % 1029,0 hPa 0,0 mm 0,0 km/h (0 Bft) N 360 0 min 0,000 mm 0,0 UV-I 0 W/m 7,0 C 0,0 km/h (0 Bft)
04.10.2016 20:24 7,8 C 7,8 C 95 % 1029,1 hPa 0,0 mm 0,0 km/h (0 Bft) N 360 0 min 0,000 mm 0,0 UV-I 0 W/m 7,0 C 0,0 km/h (0 Bft)
04.10.2016 20:25 7,8 C 7,8 C 95 % 1029,0 hPa 0,0 mm 0,3 km/h (0 Bft) N 360 0 min 0,000 mm 0,0 UV-I 0 W/m 7,0 C 1,6 km/h (1 Bft)
04.10.2016 20:26 7,8 C 7,8 C 95 % 1029,0 hPa 0,0 mm 0,0 km/h (0 Bft) N 360 0 min 0,000 mm 0,0 UV-I 0 W/m 7,0 C 0,0 km/h (0 Bft)
04.10.2016 20:27 7,8 C 7,8 C 95 % 1029,1 hPa 0,0 mm 0,0 km/h (0 Bft) N 360 0 min 0,000 mm 0,0 UV-I 0 W/m 7,0 C 0,0 km/h (0 Bft)
04.10.2016 20:28 7,8 C 7,8 C 95 % 1029,0 hPa 0,0 mm 0,0 km/h (0 Bft) N 360 0 min 0,000 mm 0,0 UV-I 0 W/m 7,0 C 0,0 km/h (0 Bft)
04.10.2016 20:29 7,8 C 7,8 C 95 % 1029,0 hPa 0,0 mm 0,0 km/h (0 Bft) N 360 0 min 0,000 mm 0,0 UV-I 0 W/m 7,0 C 0,0 km/h (0 Bft)
04.10.2016 20:30 7,8 C 7,8 C 95 % 1029,1 hPa 0,0 mm 1,5 km/h (1 Bft) NO 35 0 min 0,000 mm 0,0 UV-I 0 W/m 7,0 C 3,2 km/h (1 Bft)
04.10.2016 20:31 7,8 C 7,8 C 95 % 1029,0 hPa 0,0 mm 0,5 km/h (0 Bft) NO 35 0 min 0,000 mm 0,0 UV-I 0 W/m 7,0 C 1,6 km/h (1 Bft)
04.10.2016 20:32 7,8 C 7,8 C 95 % 1029,0 hPa 0,0 mm 0,1 km/h (0 Bft) NO 35 0 min 0,000 mm 0,0 UV-I 0 W/m 7,0 C 1,6 km/h (1 Bft)
04.10.2016 20:33 7,8 C 7,8 C 95 % 1029,0 hPa 0,0 mm 0,1 km/h (0 Bft) NO 35 0 min 0,000 mm 0,0 UV-I 0 W/m 7,0 C 1,6 km/h (1 Bft)
04.10.2016 20:34 7,9 C 7,9 C 95 % 1029,0 hPa 0,0 mm 1,1 km/h (1 Bft) NO 49 0 min 0,000 mm 0,0 UV-I 0 W/m 7,1 C 4,8 km/h (1 Bft)
04.10.2016 20:35 7,9 C 7,9 C 95 % 1029,0 hPa 0,0 mm 2,0 km/h (1 Bft) NO 49 0 min 0,000 mm 0,0 UV-I 0 W/m 7,1 C 4,8 km/h (1 Bft)
04.10.2016 20:36 7,9 C 7,9 C 95 % 1029,0 hPa 0,0 mm 2,5 km/h (1 Bft) NO 49 0 min 0,000 mm 0,0 UV-I 0 W/m 7,1 C 3,2 km/h (1 Bft)
04.10.2016 20:37 7,9 C 7,9 C 95 % 1029,0 hPa 0,0 mm 0,7 km/h (0 Bft) NO 49 0 min 0,000 mm 0,0 UV-I 0 W/m 7,1 C 3,2 km/h (1 Bft)
04.10.2016 20:38 7,9 C 7,9 C 95 % 1028,9 hPa 0,0 mm 0,7 km/h (0 Bft) NO 49 0 min 0,000 mm 0,0 UV-I 0 W/m 7,1 C 3,2 km/h (1 Bft)
04.10.2016 20:39 7,9 C 7,9 C 95 % 1029,0 hPa 0,0 mm 1,5 km/h (1 Bft) NO 49 0 min 0,000 mm 0,0 UV-I 0 W/m 7,1 C 3,2 km/h (1 Bft)
04.10.2016 20:40 7,9 C 7,9 C 95 % 1028,9 hPa 0,0 mm 0,4 km/h (0 Bft) NO 50 0 min 0,000 mm 0,0 UV-I 0 W/m 7,1 C 1,6 km/h (1 Bft)
04.10.2016 20:41 7,9 C 7,9 C 95 % 1029,0 hPa 0,0 mm 0,0 km/h (0 Bft) NO 49 0 min 0,000 mm 0,0 UV-I 0 W/m 7,1 C 0,0 km/h (0 Bft)
04.10.2016 20:42 7,9 C 7,9 C 95 % 1029,0 hPa 0,0 mm 0,0 km/h (0 Bft) NO 49 0 min 0,000 mm 0,0 UV-I 0 W/m 7,1 C 0,0 km/h (0 Bft)
04.10.2016 20:43 7,9 C 7,9 C 95 % 1029,0 hPa 0,0 mm 0,0 km/h (0 Bft) NO 49 0 min 0,000 mm 0,0 UV-I 0 W/m 7,1 C 0,0 km/h (0 Bft)
04.10.2016 20:44 7,8 C 7,9 C 95 % 1029,0 hPa 0,0 mm 0,0 km/h (0 Bft) NO 49 0 min 0,000 mm 0,0 UV-I 0 W/m 7,0 C 0,0 km/h (0 Bft)
04.10.2016 20:45 7,8 C 7,9 C 95 % 1029,0 hPa 0,0 mm 0,2 km/h (0 Bft) NO 49 0 min 0,000 mm 0,0 UV-I 0 W/m 7,0 C 1,6 km/h (1 Bft)
04.10.2016 20:46 7,8 C 7,8 C 95 % 1028,9 hPa 0,0 mm 0,3 km/h (0 Bft) NO 49 0 min 0,000 mm 0,0 UV-I 0 W/m 7,0 C 1,6 km/h (1 Bft)
04.10.2016 20:47 7,8 C 7,9 C 95 % 1028,9 hPa 0,0 mm 1,2 km/h (1 Bft) NO 49 0 min 0,000 mm 0,0 UV-I 0 W/m 7,0 C 3,2 km/h (1 Bft)
04.10.2016 20:48 7,8 C 7,8 C 95 % 1028,9 hPa 0,0 mm 0,7 km/h (0 Bft) NO 50 0 min 0,000 mm 0,0 UV-I 0 W/m 7,0 C 1,6 km/h (1 Bft)
04.10.2016 20:49 7,8 C 7,8 C 95 % 1028,9 hPa 0,0 mm 0,0 km/h (0 Bft) NO 49 0 min 0,000 mm 0,0 UV-I 0 W/m 7,0 C 0,0 km/h (0 Bft)
04.10.2016 20:50 7,8 C 7,8 C 95 % 1028,9 hPa 0,0 mm 0,3 km/h (0 Bft) NO 49 0 min 0,000 mm 0,0 UV-I 0 W/m 7,0 C 1,6 km/h (1 Bft)
04.10.2016 20:51 7,8 C 7,8 C 95 % 1028,9 hPa 0,0 mm 2,4 km/h (1 Bft) NO 49 0 min 0,000 mm 0,0 UV-I 0 W/m 7,0 C 4,8 km/h (1 Bft)
04.10.2016 20:52 7,9 C 7,9 C 95 % 1028,9 hPa 0,0 mm 0,8 km/h (0 Bft) NO 49 0 min 0,000 mm 0,0 UV-I 0 W/m 7,1 C 1,6 km/h (1 Bft)
04.10.2016 20:53 7,8 C 7,9 C 95 % 1028,9 hPa 0,0 mm 0,2 km/h (0 Bft) NO 49 0 min 0,000 mm 0,0 UV-I 0 W/m 7,0 C 1,6 km/h (1 Bft)
04.10.2016 20:54 7,8 C 7,8 C 95 % 1028,9 hPa 0,0 mm 0,0 km/h (0 Bft) NO 49 0 min 0,000 mm 0,0 UV-I 0 W/m 7,0 C 0,0 km/h (0 Bft)
04.10.2016 20:55 7,9 C 7,9 C 95 % 1028,9 hPa 0,0 mm 0,0 km/h (0 Bft) NO 49 0 min 0,000 mm 0,0 UV-I 0 W/m 7,1 C 0,0 km/h (0 Bft)
04.10.2016 20:56 7,8 C 7,9 C 95 % 1028,9 hPa 0,0 mm 0,0 km/h (0 Bft) NO 50 0 min 0,000 mm 0,0 UV-I 0 W/m 7,0 C 0,0 km/h (0 Bft)
04.10.2016 20:57 7,8 C 7,8 C 95 % 1028,9 hPa 0,0 mm 0,0 km/h (0 Bft) NO 49 0 min 0,000 mm 0,0 UV-I 0 W/m 7,0 C 0,0 km/h (0 Bft)
04.10.2016 20:58 7,8 C 7,9 C 95 % 1028,9 hPa 0,0 mm 0,0 km/h (0 Bft) NO 49 0 min 0,000 mm 0,0 UV-I 0 W/m 7,0 C 0,0 km/h (0 Bft)
04.10.2016 20:59 7,8 C 7,8 C 95 % 1028,9 hPa 0,0 mm 0,0 km/h (0 Bft) NO 50 0 min 0,000 mm 0,0 UV-I 0 W/m 7,0 C 0,0 km/h (0 Bft)
04.10.2016 21:00 7,8 C 7,9 C 95 % 1028,9 hPa 0,0 mm 0,0 km/h (0 Bft) NO 49 0 min 0,000 mm 0,0 UV-I 0 W/m 7,0 C 0,0 km/h (0 Bft)
04.10.2016 21:01 7,8 C 7,8 C 95 % 1028,9 hPa 0,0 mm 0,0 km/h (0 Bft) NO 49 0 min 0,000 mm 0,0 UV-I 0 W/m 7,0 C 0,0 km/h (0 Bft)
04.10.2016 21:02 7,9 C 7,9 C 95 % 1028,9 hPa 0,0 mm 0,0 km/h (0 Bft) NO 49 0 min 0,000 mm 0,0 UV-I 0 W/m 7,1 C 0,0 km/h (0 Bft)
04.10.2016 21:03 7,8 C 7,9 C 95 % 1028,9 hPa 0,0 mm 0,0 km/h (0 Bft) NO 50 0 min 0,000 mm 0,0 UV-I 0 W/m 7,0 C 0,0 km/h (0 Bft)
04.10.2016 21:04 7,9 C 7,9 C 95 % 1028,9 hPa 0,0 mm 0,0 km/h (0 Bft) NO 49 0 min 0,000 mm 0,0 UV-I 0 W/m 7,1 C 0,0 km/h (0 Bft)
04.10.2016 21:05 7,9 C 7,9 C 95 % 1028,9 hPa 0,0 mm 0,0 km/h (0 Bft) NO 50 0 min 0,000 mm 0,0 UV-I 0 W/m 7,1 C 0,0 km/h (0 Bft)
04.10.2016 21:06 7,9 C 7,9 C 95 % 1028,9 hPa 0,0 mm 0,0 km/h (0 Bft) NO 50 0 min 0,000 mm 0,0 UV-I 0 W/m 7,1 C 0,0 km/h (0 Bft)
04.10.2016 21:07 7,9 C 7,9 C 95 % 1028,9 hPa 0,0 mm 0,1 km/h (0 Bft) NO 49 0 min 0,000 mm 0,0 UV-I 0 W/m 7,1 C 1,6 km/h (1 Bft)
04.10.2016 21:08 7,9 C 7,9 C 95 % 1028,9 hPa 0,0 mm 0,0 km/h (0 Bft) NO 49 0 min 0,000 mm 0,0 UV-I 0 W/m 7,1 C 0,0 km/h (0 Bft)
04.10.2016 21:09 7,9 C 7,9 C 95 % 1029,0 hPa 0,0 mm 1,2 km/h (1 Bft) NO 49 0 min 0,000 mm 0,0 UV-I 0 W/m 7,1 C 3,2 km/h (1 Bft)
04.10.2016 21:10 7,9 C 7,9 C 95 % 1028,9 hPa 0,0 mm 2,8 km/h (1 Bft) NO 50 0 min 0,000 mm 0,0 UV-I 0 W/m 7,1 C 4,8 km/h (1 Bft)
04.10.2016 21:11 7,9 C 7,9 C 95 % 1029,0 hPa 0,0 mm 2,5 km/h (1 Bft) N-NO 32 0 min 0,000 mm 0,0 UV-I 0 W/m 7,1 C 3,2 km/h (1 Bft)
04.10.2016 21:12 7,9 C 7,9 C 95 % 1029,0 hPa 0,0 mm 1,9 km/h (1 Bft) NO 40 0 min 0,000 mm 0,0 UV-I 0 W/m 7,1 C 3,2 km/h (1 Bft)
04.10.2016 21:13 7,9 C 7,9 C 95 % 1029,0 hPa 0,0 mm 2,5 km/h (1 Bft) NO 34 0 min 0,000 mm 0,0 UV-I 0 W/m 7,1 C 3,2 km/h (1 Bft)
04.10.2016 21:14 7,9 C 7,9 C 95 % 1029,0 hPa 0,2 mm 1,7 km/h (1 Bft) NO 34 0 min 0,000 mm 0,0 UV-I 0 W/m 7,1 C 3,2 km/h (1 Bft)
04.10.2016 21:15 7,9 C 7,9 C 95 % 1029,0 hPa 0,0 mm 0,5 km/h (0 Bft) NO 34 0 min 0,000 mm 0,0 UV-I 0 W/m 7,1 C 3,2 km/h (1 Bft)
04.10.2016 21:16 7,9 C 7,9 C 95 % 1029,1 hPa 0,0 mm 2,7 km/h (1 Bft) N-NO 15 0 min 0,000 mm 0,0 UV-I 0 W/m 7,1 C 6,4 km/h (2 Bft)
04.10.2016 21:17 7,9 C 7,9 C 95 % 1029,1 hPa 0,2 mm 7,8 km/h (2 Bft) NW 316 0 min 0,000 mm 0,0 UV-I 0 W/m 7,1 C 16,1 km/h (3 Bft)
04.10.2016 21:18 7,9 C 7,9 C 95 % 1029,1 hPa 0,0 mm 12,7 km/h (3 Bft) N-NW 346 0 min 0,000 mm 0,0 UV-I 0 W/m 7,1 C 17,7 km/h (3 Bft)
04.10.2016 21:19 7,8 C 7,9 C 95 % 1029,1 hPa 0,0 mm 8,3 km/h (2 Bft) N 355 0 min 0,000 mm 0,0 UV-I 0 W/m 7,0 C 14,5 km/h (3 Bft)
04.10.2016 21:20 7,7 C 7,8 C 94 % 1029,1 hPa 0,0 mm 10,5 km/h (2 Bft) N-NW 348 0 min 0,000 mm 0,0 UV-I 0 W/m 6,8 C 17,7 km/h (3 Bft)
04.10.2016 21:21 7,7 C 7,7 C 94 % 1029,1 hPa 0,2 mm 8,1 km/h (2 Bft) N 350 0 min 0,000 mm 0,0 UV-I 0 W/m 6,8 C 14,5 km/h (3 Bft)
04.10.2016 21:22 7,6 C 7,7 C 94 % 1029,1 hPa 0,0 mm 7,0 km/h (2 Bft) N-NW 335 0 min 0,000 mm 0,0 UV-I 0 W/m 6,7 C 9,7 km/h (2 Bft)
04.10.2016 21:23 7,5 C 7,6 C 94 % 1029,1 hPa 0,0 mm 6,0 km/h (2 Bft) N-NO 26 0 min 0,000 mm 0,0 UV-I 0 W/m 6,6 C 9,7 km/h (2 Bft)
04.10.2016 21:24 7,4 C 7,5 C 94 % 1029,1 hPa 0,0 mm 9,3 km/h (2 Bft) N 360 0 min 0,000 mm 0,0 UV-I 0 W/m 6,5 C 17,7 km/h (3 Bft)
04.10.2016 21:25 7,4 C 7,4 C 94 % 1029,1 hPa 0,0 mm 7,6 km/h (2 Bft) N-NO 33 0 min 0,000 mm 0,0 UV-I 0 W/m 6,5 C 14,5 km/h (3 Bft)
04.10.2016 21:26 7,4 C 7,4 C 94 % 1029,1 hPa 0,0 mm 5,4 km/h (1 Bft) O-NO 59 0 min 0,000 mm 0,0 UV-I 0 W/m 6,5 C 12,9 km/h (3 Bft)
04.10.2016 21:27 7,4 C 7,4 C 94 % 1029,2 hPa 0,2 mm 2,9 km/h (1 Bft) O 91 0 min 0,000 mm 0,0 UV-I 0 W/m 6,5 C 11,3 km/h (2 Bft)
04.10.2016 21:28 7,4 C 7,4 C 94 % 1029,2 hPa 0,0 mm 6,2 km/h (2 Bft) N-NO 32 0 min 0,000 mm 0,0 UV-I 0 W/m 6,5 C 9,7 km/h (2 Bft)
04.10.2016 21:29 7,3 C 7,4 C 94 % 1029,2 hPa 0,0 mm 8,5 km/h (2 Bft) O 88 0 min 0,000 mm 0,0 UV-I 0 W/m 6,4 C 14,5 km/h (3 Bft)
04.10.2016 21:30 7,3 C 7,3 C 94 % 1029,3 hPa 0,0 mm 10,3 km/h (2 Bft) N-NO 22 0 min 0,000 mm 0,0 UV-I 0 W/m 6,4 C 17,7 km/h (3 Bft)
04.10.2016 21:31 7,2 C 7,3 C 93 % 1029,3 hPa 0,0 mm 10,1 km/h (2 Bft) O 80 0 min 0,000 mm 0,0 UV-I 0 W/m 6,1 C 20,9 km/h (4 Bft)
04.10.2016 21:32 7,1 C 7,2 C 93 % 1029,3 hPa 0,0 mm 10,6 km/h (2 Bft) O-SO 105 0 min 0,000 mm 0,0 UV-I 0 W/m 6,0 C 20,9 km/h (4 Bft)
04.10.2016 21:33 7,0 C 7,1 C 93 % 1029,3 hPa 0,0 mm 5,0 km/h (1 Bft) O-NO 65 0 min 0,000 mm 0,0 UV-I 0 W/m 5,9 C 8,0 km/h (2 Bft)
04.10.2016 21:34 6,9 C 7,0 C 93 % 1029,3 hPa 0,0 mm 10,4 km/h (2 Bft) O-NO 78 0 min 0,000 mm 0,0 UV-I 0 W/m 5,8 C 16,1 km/h (3 Bft)
04.10.2016 21:35 6,9 C 6,9 C 93 % 1029,3 hPa 0,0 mm 9,5 km/h (2 Bft) O 94 0 min 0,000 mm 0,0 UV-I 0 W/m 5,8 C 14,5 km/h (3 Bft)
04.10.2016 21:36 6,8 C 6,9 C 93 % 1029,3 hPa 0,0 mm 8,7 km/h (2 Bft) NO 51 0 min 0,000 mm 0,0 UV-I 0 W/m 5,7 C 14,5 km/h (3 Bft)
04.10.2016 21:37 6,8 C 6,8 C 93 % 1029,3 hPa 0,0 mm 12,7 km/h (3 Bft) O 87 0 min 0,000 mm 0,0 UV-I 0 W/m 5,7 C 17,7 km/h (3 Bft)
04.10.2016 21:38 6,8 C 6,8 C 93 % 1029,3 hPa 0,0 mm 8,8 km/h (2 Bft) O-SO 117 0 min 0,000 mm 0,0 UV-I 0 W/m 5,7 C 12,9 km/h (3 Bft)
04.10.2016 21:39 6,8 C 6,8 C 93 % 1029,3 hPa 0,0 mm 9,0 km/h (2 Bft) O 88 0 min 0,000 mm 0,0 UV-I 0 W/m 5,7 C 16,1 km/h (3 Bft)
04.10.2016 21:40 6,7 C 6,8 C 93 % 1029,3 hPa 0,0 mm 8,7 km/h (2 Bft) O-NO 66 0 min 0,000 mm 0,0 UV-I 0 W/m 5,6 C 14,5 km/h (3 Bft)
04.10.2016 21:41 6,7 C 6,7 C 93 % 1029,3 hPa 0,0 mm 5,0 km/h (1 Bft) SO 140 0 min 0,000 mm 0,0 UV-I 0 W/m 5,6 C 9,7 km/h (2 Bft)
04.10.2016 21:42 6,7 C 6,7 C 93 % 1029,2 hPa 0,0 mm 4,5 km/h (1 Bft) NO 40 0 min 0,000 mm 0,0 UV-I 0 W/m 5,6 C 8,0 km/h (2 Bft)
04.10.2016 21:43 6,7 C 6,7 C 93 % 1029,2 hPa 0,0 mm 8,6 km/h (2 Bft) NO 51 0 min 0,000 mm 0,0 UV-I 0 W/m 5,6 C 14,5 km/h (3 Bft)
04.10.2016 21:44 6,7 C 6,7 C 94 % 1029,2 hPa 0,0 mm 7,8 km/h (2 Bft) O-NO 78 0 min 0,000 mm 0,0 UV-I 0 W/m 5,8 C 14,5 km/h (3 Bft)
04.10.2016 21:45 6,6 C 6,7 C 94 % 1029,2 hPa 0,0 mm 6,0 km/h (2 Bft) NO 44 0 min 0,000 mm 0,0 UV-I 0 W/m 5,7 C 14,5 km/h (3 Bft)
04.10.2016 21:46 6,6 C 6,7 C 94 % 1029,2 hPa 0,0 mm 3,5 km/h (1 Bft) NO 46 0 min 0,000 mm 0,0 UV-I 0 W/m 5,7 C 6,4 km/h (2 Bft)
04.10.2016 21:47 6,6 C 6,6 C 94 % 1029,2 hPa 0,0 mm 5,0 km/h (1 Bft) O 83 0 min 0,000 mm 0,0 UV-I 0 W/m 5,7 C 9,7 km/h (2 Bft)
04.10.2016 21:48 6,6 C 6,6 C 94 % 1029,2 hPa 0,0 mm 2,0 km/h (1 Bft) O-NO 67 0 min 0,000 mm 0,0 UV-I 0 W/m 5,7 C 4,8 km/h (1 Bft)
04.10.2016 21:49 6,6 C 6,6 C 94 % 1029,2 hPa 0,0 mm 4,5 km/h (1 Bft) O-NO 65 0 min 0,000 mm 0,0 UV-I 0 W/m 5,7 C 8,0 km/h (2 Bft)
04.10.2016 21:50 6,6 C 6,6 C 94 % 1029,2 hPa 0,0 mm 4,8 km/h (1 Bft) O 87 0 min 0,000 mm 0,0 UV-I 0 W/m 5,7 C 8,0 km/h (2 Bft)
04.10.2016 21:51 6,6 C 6,6 C 94 % 1029,2 hPa 0,0 mm 2,0 km/h (1 Bft) N-NO 13 0 min 0,000 mm 0,0 UV-I 0 W/m 5,7 C 4,8 km/h (1 Bft)
04.10.2016 21:52 6,6 C 6,6 C 94 % 1029,2 hPa 0,0 mm 5,9 km/h (2 Bft) NO 34 0 min 0,000 mm 0,0 UV-I 0 W/m 5,7 C 8,0 km/h (2 Bft)
04.10.2016 21:53 6,6 C 6,6 C 94 % 1029,2 hPa 0,0 mm 4,5 km/h (1 Bft) O-NO 78 0 min 0,000 mm 0,0 UV-I 0 W/m 5,7 C 8,0 km/h (2 Bft)
04.10.2016 21:54 6,6 C 6,6 C 94 % 1029,2 hPa 0,0 mm 4,0 km/h (1 Bft) O-NO 61 0 min 0,000 mm 0,0 UV-I 0 W/m 5,7 C 12,9 km/h (3 Bft)
04.10.2016 21:55 6,6 C 6,6 C 94 % 1029,2 hPa 0,0 mm 6,8 km/h (2 Bft) NO 51 0 min 0,000 mm 0,0 UV-I 0 W/m 5,7 C 9,7 km/h (2 Bft)
04.10.2016 21:56 6,6 C 6,6 C 94 % 1029,2 hPa 0,0 mm 4,2 km/h (1 Bft) NO 45 0 min 0,000 mm 0,0 UV-I 0 W/m 5,7 C 6,4 km/h (2 Bft)
04.10.2016 21:57 6,6 C 6,6 C 94 % 1029,2 hPa 0,0 mm 5,5 km/h (1 Bft) O-NO 71 0 min 0,000 mm 0,0 UV-I 0 W/m 5,7 C 11,3 km/h (2 Bft)
04.10.2016 21:58 6,6 C 6,6 C 94 % 1029,2 hPa 0,0 mm 7,8 km/h (2 Bft) O-NO 69 0 min 0,000 mm 0,0 UV-I 0 W/m 5,7 C 9,7 km/h (2 Bft)
04.10.2016 21:59 6,6 C 6,6 C 94 % 1029,2 hPa 0,0 mm 3,2 km/h (1 Bft) O 80 0 min 0,000 mm 0,0 UV-I 0 W/m 5,7 C 8,0 km/h (2 Bft)
04.10.2016 22:00 6,6 C 6,6 C 94 % 1029,3 hPa 0,0 mm 6,0 km/h (2 Bft) NO 42 0 min 0,000 mm 0,0 UV-I 0 W/m 5,7 C 9,7 km/h (2 Bft)
04.10.2016 22:01 6,6 C 6,6 C 94 % 1029,3 hPa 0,0 mm 5,7 km/h (1 Bft) S-SO 167 0 min 0,000 mm 0,0 UV-I 0 W/m 5,7 C 8,0 km/h (2 Bft)
04.10.2016 22:02 6,5 C 6,6 C 93 % 1029,3 hPa 0,0 mm 5,2 km/h (1 Bft) NO 38 0 min 0,000 mm 0,0 UV-I 0 W/m 5,5 C 8,0 km/h (2 Bft)
04.10.2016 22:03 6,5 C 6,6 C 93 % 1029,2 hPa 0,0 mm 6,4 km/h (2 Bft) O-SO 103 0 min 0,000 mm 0,0 UV-I 0 W/m 5,5 C 11,3 km/h (2 Bft)
04.10.2016 22:04 6,6 C 6,6 C 93 % 1029,3 hPa 0,0 mm 3,7 km/h (1 Bft) O-NO 58 0 min 0,000 mm 0,0 UV-I 0 W/m 5,6 C 6,4 km/h (2 Bft)
04.10.2016 22:05 6,5 C 6,6 C 93 % 1029,3 hPa 0,0 mm 5,8 km/h (2 Bft) O-NO 77 0 min 0,000 mm 0,0 UV-I 0 W/m 5,5 C 6,4 km/h (2 Bft)
04.10.2016 22:06 6,6 C 6,6 C 94 % 1029,3 hPa 0,0 mm 4,4 km/h (1 Bft) O-NO 61 0 min 0,000 mm 0,0 UV-I 0 W/m 5,7 C 6,4 km/h (2 Bft)
04.10.2016 22:07 6,6 C 6,6 C 94 % 1029,3 hPa 0,0 mm 7,2 km/h (2 Bft) O-SO 110 0 min 0,000 mm 0,0 UV-I 0 W/m 5,7 C 12,9 km/h (3 Bft)
04.10.2016 22:08 6,6 C 6,6 C 94 % 1029,3 hPa 0,0 mm 6,6 km/h (2 Bft) N-NO 26 0 min 0,000 mm 0,0 UV-I 0 W/m 5,7 C 11,3 km/h (2 Bft)
04.10.2016 22:09 6,6 C 6,6 C 93 % 1029,2 hPa 0,0 mm 2,5 km/h (1 Bft) O-NO 61 0 min 0,000 mm 0,0 UV-I 0 W/m 5,6 C 4,8 km/h (1 Bft)
04.10.2016 22:10 6,6 C 6,6 C 93 % 1029,3 hPa 0,0 mm 6,4 km/h (2 Bft) SO 144 0 min 0,000 mm 0,0 UV-I 0 W/m 5,6 C 11,3 km/h (2 Bft)
04.10.2016 22:11 6,6 C 6,6 C 94 % 1029,3 hPa 0,0 mm 2,7 km/h (1 Bft) O-SO 105 0 min 0,000 mm 0,0 UV-I 0 W/m 5,7 C 4,8 km/h (1 Bft)
04.10.2016 22:12 6,6 C 6,6 C 94 % 1029,3 hPa 0,0 mm 1,5 km/h (1 Bft) O-SO 103 0 min 0,000 mm 0,0 UV-I 0 W/m 5,7 C 6,4 km/h (2 Bft)
04.10.2016 22:13 6,6 C 6,6 C 94 % 1029,3 hPa 0,0 mm 7,7 km/h (2 Bft) SO 131 0 min 0,000 mm 0,0 UV-I 0 W/m 5,7 C 14,5 km/h (3 Bft)
04.10.2016 22:14 6,6 C 6,6 C 93 % 1029,3 hPa 0,0 mm 5,2 km/h (1 Bft) O-NO 65 0 min 0,000 mm 0,0 UV-I 0 W/m 5,6 C 6,4 km/h (2 Bft)
04.10.2016 22:15 6,6 C 6,6 C 93 % 1029,3 hPa 0,0 mm 6,2 km/h (2 Bft) O-NO 67 0 min 0,000 mm 0,0 UV-I 0 W/m 5,6 C 8,0 km/h (2 Bft)
04.10.2016 22:16 6,6 C 6,6 C 93 % 1029,3 hPa 0,0 mm 2,3 km/h (1 Bft) O-NO 67 0 min 0,000 mm 0,0 UV-I 0 W/m 5,6 C 6,4 km/h (2 Bft)
04.10.2016 22:17 6,6 C 6,6 C 94 % 1029,3 hPa 0,0 mm 5,5 km/h (1 Bft) O-NO 64 0 min 0,000 mm 0,0 UV-I 0 W/m 5,7 C 6,4 km/h (2 Bft)
04.10.2016 22:18 6,6 C 6,6 C 94 % 1029,3 hPa 0,0 mm 4,0 km/h (1 Bft) O 84 0 min 0,000 mm 0,0 UV-I 0 W/m 5,7 C 4,8 km/h (1 Bft)
04.10.2016 22:19 6,6 C 6,6 C 94 % 1029,3 hPa 0,0 mm 1,6 km/h (1 Bft) NO 56 0 min 0,000 mm 0,0 UV-I 0 W/m 5,7 C 4,8 km/h (1 Bft)
04.10.2016 22:20 6,6 C 6,6 C 94 % 1029,3 hPa 0,0 mm 1,7 km/h (1 Bft) O-NO 57 0 min 0,000 mm 0,0 UV-I 0 W/m 5,7 C 3,2 km/h (1 Bft)
04.10.2016 22:21 6,6 C 6,6 C 94 % 1029,3 hPa 0,0 mm 2,8 km/h (1 Bft) NO 43 0 min 0,000 mm 0,0 UV-I 0 W/m 5,7 C 6,4 km/h (2 Bft)
04.10.2016 22:22 6,6 C 6,6 C 94 % 1029,3 hPa 0,0 mm 5,3 km/h (1 Bft) N-NO 21 0 min 0,000 mm 0,0 UV-I 0 W/m 5,7 C 6,4 km/h (2 Bft)
04.10.2016 22:23 6,6 C 6,6 C 94 % 1029,3 hPa 0,0 mm 7,3 km/h (2 Bft) O-NO 70 0 min 0,000 mm 0,0 UV-I 0 W/m 5,7 C 12,9 km/h (3 Bft)
04.10.2016 22:24 6,6 C 6,6 C 94 % 1029,3 hPa 0,0 mm 5,3 km/h (1 Bft) N-NO 22 0 min 0,000 mm 0,0 UV-I 0 W/m 5,7 C 8,0 km/h (2 Bft)
04.10.2016 22:25 6,6 C 6,6 C 94 % 1029,2 hPa 0,0 mm 6,0 km/h (2 Bft) O 84 0 min 0,000 mm 0,0 UV-I 0 W/m 5,7 C 11,3 km/h (2 Bft)
04.10.2016 22:26 6,6 C 6,6 C 94 % 1029,2 hPa 0,0 mm 4,1 km/h (1 Bft) NO 49 0 min 0,000 mm 0,0 UV-I 0 W/m 5,7 C 8,0 km/h (2 Bft)
04.10.2016 22:27 6,6 C 6,6 C 94 % 1029,3 hPa 0,0 mm 5,1 km/h (1 Bft) N-NO 26 0 min 0,000 mm 0,0 UV-I 0 W/m 5,7 C 8,0 km/h (2 Bft)
04.10.2016 22:28 6,6 C 6,6 C 94 % 1029,3 hPa 0,0 mm 5,4 km/h (1 Bft) N-NO 17 0 min 0,000 mm 0,0 UV-I 0 W/m 5,7 C 8,0 km/h (2 Bft)
04.10.2016 22:29 6,6 C 6,6 C 94 % 1029,2 hPa 0,0 mm 4,8 km/h (1 Bft) O-NO 68 0 min 0,000 mm 0,0 UV-I 0 W/m 5,7 C 6,4 km/h (2 Bft)
04.10.2016 22:30 6,6 C 6,6 C 94 % 1029,2 hPa 0,0 mm 5,2 km/h (1 Bft) O 80 0 min 0,000 mm 0,0 UV-I 0 W/m 5,7 C 8,0 km/h (2 Bft)
04.10.2016 22:31 6,6 C 6,6 C 94 % 1029,3 hPa 0,0 mm 3,3 km/h (1 Bft) N-NO 25 0 min 0,000 mm 0,0 UV-I 0 W/m 5,7 C 6,4 km/h (2 Bft)
04.10.2016 22:32 6,6 C 6,6 C 94 % 1029,3 hPa 0,0 mm 4,2 km/h (1 Bft) NO 40 0 min 0,000 mm 0,0 UV-I 0 W/m 5,7 C 6,4 km/h (2 Bft)
04.10.2016 22:33 6,6 C 6,6 C 94 % 1029,3 hPa 0,0 mm 2,7 km/h (1 Bft) NO 38 0 min 0,000 mm 0,0 UV-I 0 W/m 5,7 C 4,8 km/h (1 Bft)
04.10.2016 22:34 6,6 C 6,6 C 94 % 1029,3 hPa 0,0 mm 5,3 km/h (1 Bft) O 94 0 min 0,000 mm 0,0 UV-I 0 W/m 5,7 C 8,0 km/h (2 Bft)
04.10.2016 22:35 6,6 C 6,6 C 94 % 1029,2 hPa 0,0 mm 4,6 km/h (1 Bft) NO 37 0 min 0,000 mm 0,0 UV-I 0 W/m 5,7 C 8,0 km/h (2 Bft)
04.10.2016 22:36 6,6 C 6,6 C 94 % 1029,3 hPa 0,0 mm 4,4 km/h (1 Bft) NO 51 0 min 0,000 mm 0,0 UV-I 0 W/m 5,7 C 6,4 km/h (2 Bft)
04.10.2016 22:37 6,6 C 6,6 C 94 % 1029,2 hPa 0,0 mm 3,1 km/h (1 Bft) NO 40 0 min 0,000 mm 0,0 UV-I 0 W/m 5,7 C 8,0 km/h (2 Bft)
04.10.2016 22:38 6,6 C 6,7 C 94 % 1029,2 hPa 0,0 mm 7,5 km/h (2 Bft) N-NO 28 0 min 0,000 mm 0,0 UV-I 0 W/m 5,7 C 12,9 km/h (3 Bft)
04.10.2016 22:39 6,6 C 6,6 C 94 % 1029,2 hPa 0,0 mm 3,6 km/h (1 Bft) NO 45 0 min 0,000 mm 0,0 UV-I 0 W/m 5,7 C 6,4 km/h (2 Bft)
04.10.2016 22:40 6,6 C 6,6 C 94 % 1029,3 hPa 0,0 mm 8,6 km/h (2 Bft) N 11 0 min 0,000 mm 0,0 UV-I 0 W/m 5,7 C 14,5 km/h (3 Bft)
04.10.2016 22:41 6,6 C 6,6 C 94 % 1029,3 hPa 0,0 mm 6,2 km/h (2 Bft) N-NO 24 0 min 0,000 mm 0,0 UV-I 0 W/m 5,7 C 8,0 km/h (2 Bft)
04.10.2016 22:42 6,6 C 6,6 C 94 % 1029,3 hPa 0,0 mm 5,9 km/h (2 Bft) O-NO 58 0 min 0,000 mm 0,0 UV-I 0 W/m 5,7 C 6,4 km/h (2 Bft)
04.10.2016 22:43 6,6 C 6,6 C 94 % 1029,2 hPa 0,0 mm 8,2 km/h (2 Bft) N 11 0 min 0,000 mm 0,0 UV-I 0 W/m 5,7 C 11,3 km/h (2 Bft)
04.10.2016 22:44 6,6 C 6,6 C 94 % 1029,3 hPa 0,0 mm 6,6 km/h (2 Bft) NO 48 0 min 0,000 mm 0,0 UV-I 0 W/m 5,7 C 11,3 km/h (2 Bft)
04.10.2016 22:45 6,7 C 6,7 C 94 % 1029,3 hPa 0,0 mm 4,1 km/h (1 Bft) N-NO 19 0 min 0,000 mm 0,0 UV-I 0 W/m 5,8 C 6,4 km/h (2 Bft)
04.10.2016 22:46 6,7 C 6,7 C 94 % 1029,3 hPa 0,0 mm 2,5 km/h (1 Bft) N-NO 29 0 min 0,000 mm 0,0 UV-I 0 W/m 5,8 C 4,8 km/h (1 Bft)
04.10.2016 22:47 6,6 C 6,7 C 94 % 1029,3 hPa 0,0 mm 2,3 km/h (1 Bft) NO 55 0 min 0,000 mm 0,0 UV-I 0 W/m 5,7 C 4,8 km/h (1 Bft)
04.10.2016 22:48 6,6 C 6,6 C 94 % 1029,3 hPa 0,0 mm 5,5 km/h (1 Bft) O 101 0 min 0,000 mm 0,0 UV-I 0 W/m 5,7 C 12,9 km/h (3 Bft)
04.10.2016 22:49 6,6 C 6,6 C 94 % 1029,3 hPa 0,0 mm 4,2 km/h (1 Bft) O-NO 64 0 min 0,000 mm 0,0 UV-I 0 W/m 5,7 C 8,0 km/h (2 Bft)
04.10.2016 22:50 6,6 C 6,6 C 94 % 1029,2 hPa 0,0 mm 3,0 km/h (1 Bft) NO 55 0 min 0,000 mm 0,0 UV-I 0 W/m 5,7 C 6,4 km/h (2 Bft)
04.10.2016 22:51 6,6 C 6,6 C 94 % 1029,3 hPa 0,0 mm 3,0 km/h (1 Bft) O 83 0 min 0,000 mm 0,0 UV-I 0 W/m 5,7 C 6,4 km/h (2 Bft)
04.10.2016 22:52 6,6 C 6,6 C 94 % 1029,3 hPa 0,0 mm 4,4 km/h (1 Bft) O-NO 70 0 min 0,000 mm 0,0 UV-I 0 W/m 5,7 C 8,0 km/h (2 Bft)
04.10.2016 22:53 6,6 C 6,6 C 94 % 1029,2 hPa 0,0 mm 5,0 km/h (1 Bft) NO 54 0 min 0,000 mm 0,0 UV-I 0 W/m 5,7 C 6,4 km/h (2 Bft)
04.10.2016 22:54 6,6 C 6,6 C 94 % 1029,3 hPa 0,0 mm 4,0 km/h (1 Bft) N-NO 32 0 min 0,000 mm 0,0 UV-I 0 W/m 5,7 C 6,4 km/h (2 Bft)
04.10.2016 22:55 6,6 C 6,6 C 94 % 1029,2 hPa 0,0 mm 2,9 km/h (1 Bft) NO 54 0 min 0,000 mm 0,0 UV-I 0 W/m 5,7 C 4,8 km/h (1 Bft)
04.10.2016 22:56 6,6 C 6,6 C 94 % 1029,2 hPa 0,0 mm 4,3 km/h (1 Bft) NO 38 0 min 0,000 mm 0,0 UV-I 0 W/m 5,7 C 6,4 km/h (2 Bft)
04.10.2016 22:57 6,6 C 6,6 C 94 % 1029,2 hPa 0,0 mm 4,2 km/h (1 Bft) O 88 0 min 0,000 mm 0,0 UV-I 0 W/m 5,7 C 6,4 km/h (2 Bft)
04.10.2016 22:58 6,6 C 6,6 C 94 % 1029,2 hPa 0,0 mm 0,6 km/h (0 Bft) O 90 0 min 0,000 mm 0,0 UV-I 0 W/m 5,7 C 1,6 km/h (1 Bft)
04.10.2016 22:59 6,6 C 6,6 C 94 % 1029,2 hPa 0,0 mm 4,2 km/h (1 Bft) O 84 0 min 0,000 mm 0,0 UV-I 0 W/m 5,7 C 11,3 km/h (2 Bft)
04.10.2016 23:00 6,6 C 6,6 C 94 % 1029,2 hPa 0,0 mm 6,6 km/h (2 Bft) O-NO 69 0 min 0,000 mm 0,0 UV-I 0 W/m 5,7 C 8,0 km/h (2 Bft)
04.10.2016 23:01 6,6 C 6,6 C 94 % 1029,3 hPa 0,0 mm 5,9 km/h (2 Bft) O-NO 76 0 min 0,000 mm 0,0 UV-I 0 W/m 5,7 C 8,0 km/h (2 Bft)
04.10.2016 23:02 6,6 C 6,6 C 94 % 1029,2 hPa 0,0 mm 7,8 km/h (2 Bft) O 84 0 min 0,000 mm 0,0 UV-I 0 W/m 5,7 C 11,3 km/h (2 Bft)
04.10.2016 23:03 6,6 C 6,6 C 94 % 1029,2 hPa 0,0 mm 2,9 km/h (1 Bft) NO 51 0 min 0,000 mm 0,0 UV-I 0 W/m 5,7 C 6,4 km/h (2 Bft)
04.10.2016 23:04 6,6 C 6,6 C 94 % 1029,2 hPa 0,0 mm 3,4 km/h (1 Bft) O-NO 70 0 min 0,000 mm 0,0 UV-I 0 W/m 5,7 C 6,4 km/h (2 Bft)
04.10.2016 23:05 6,6 C 6,6 C 94 % 1029,2 hPa 0,0 mm 3,5 km/h (1 Bft) N-NO 28 0 min 0,000 mm 0,0 UV-I 0 W/m 5,7 C 4,8 km/h (1 Bft)
04.10.2016 23:06 6,6 C 6,6 C 94 % 1029,2 hPa 0,0 mm 4,1 km/h (1 Bft) O-NO 63 0 min 0,000 mm 0,0 UV-I 0 W/m 5,7 C 6,4 km/h (2 Bft)
04.10.2016 23:07 6,6 C 6,6 C 94 % 1029,2 hPa 0,0 mm 5,4 km/h (1 Bft) NO 51 0 min 0,000 mm 0,0 UV-I 0 W/m 5,7 C 8,0 km/h (2 Bft)
04.10.2016 23:08 6,6 C 6,6 C 94 % 1029,2 hPa 0,0 mm 4,2 km/h (1 Bft) NO 55 0 min 0,000 mm 0,0 UV-I 0 W/m 5,7 C 8,0 km/h (2 Bft)
04.10.2016 23:09 6,5 C 6,6 C 94 % 1029,2 hPa 0,0 mm 0,5 km/h (0 Bft) NO 55 0 min 0,000 mm 0,0 UV-I 0 W/m 5,6 C 3,2 km/h (1 Bft)
04.10.2016 23:10 6,5 C 6,6 C 94 % 1029,1 hPa 0,0 mm 1,5 km/h (1 Bft) NO 55 0 min 0,000 mm 0,0 UV-I 0 W/m 5,6 C 3,2 km/h (1 Bft)
04.10.2016 23:11 6,5 C 6,6 C 94 % 1029,1 hPa 0,0 mm 2,7 km/h (1 Bft) O-NO 73 0 min 0,000 mm 0,0 UV-I 0 W/m 5,6 C 4,8 km/h (1 Bft)
04.10.2016 23:12 6,5 C 6,6 C 94 % 1029,1 hPa 0,0 mm 3,4 km/h (1 Bft) O-NO 70 0 min 0,000 mm 0,0 UV-I 0 W/m 5,6 C 6,4 km/h (2 Bft)
04.10.2016 23:13 6,5 C 6,6 C 94 % 1029,2 hPa 0,0 mm 3,4 km/h (1 Bft) SO 138 0 min 0,000 mm 0,0 UV-I 0 W/m 5,6 C 4,8 km/h (1 Bft)
04.10.2016 23:14 6,5 C 6,6 C 94 % 1029,2 hPa 0,0 mm 3,2 km/h (1 Bft) O-NO 70 0 min 0,000 mm 0,0 UV-I 0 W/m 5,6 C 4,8 km/h (1 Bft)
04.10.2016 23:15 6,5 C 6,6 C 94 % 1029,2 hPa 0,0 mm 3,0 km/h (1 Bft) NO 49 0 min 0,000 mm 0,0 UV-I 0 W/m 5,6 C 4,8 km/h (1 Bft)
04.10.2016 23:16 6,5 C 6,6 C 94 % 1029,2 hPa 0,0 mm 1,3 km/h (1 Bft) NO 49 0 min 0,000 mm 0,0 UV-I 0 W/m 5,6 C 4,8 km/h (1 Bft)
04.10.2016 23:17 6,5 C 6,5 C 94 % 1029,1 hPa 0,0 mm 1,2 km/h (1 Bft) O-NO 76 0 min 0,000 mm 0,0 UV-I 0 W/m 5,6 C 3,2 km/h (1 Bft)
04.10.2016 23:18 6,5 C 6,5 C 94 % 1029,1 hPa 0,0 mm 2,1 km/h (1 Bft) NO 42 0 min 0,000 mm 0,0 UV-I 0 W/m 5,6 C 6,4 km/h (2 Bft)
04.10.2016 23:19 6,5 C 6,5 C 94 % 1029,1 hPa 0,0 mm 2,9 km/h (1 Bft) NO 41 0 min 0,000 mm 0,0 UV-I 0 W/m 5,6 C 4,8 km/h (1 Bft)
04.10.2016 23:20 6,5 C 6,5 C 94 % 1029,2 hPa 0,0 mm 1,9 km/h (1 Bft) NO 41 0 min 0,000 mm 0,0 UV-I 0 W/m 5,6 C 3,2 km/h (1 Bft)
04.10.2016 23:21 6,5 C 6,5 C 94 % 1029,2 hPa 0,0 mm 1,1 km/h (1 Bft) NO 41 0 min 0,000 mm 0,0 UV-I 0 W/m 5,6 C 1,6 km/h (1 Bft)
04.10.2016 23:22 6,6 C 6,6 C 94 % 1029,1 hPa 0,0 mm 0,2 km/h (0 Bft) NO 41 0 min 0,000 mm 0,0 UV-I 0 W/m 5,7 C 1,6 km/h (1 Bft)
04.10.2016 23:23 6,5 C 6,6 C 94 % 1029,2 hPa 0,0 mm 0,1 km/h (0 Bft) NO 41 0 min 0,000 mm 0,0 UV-I 0 W/m 5,6 C 1,6 km/h (1 Bft)
04.10.2016 23:24 6,5 C 6,6 C 94 % 1029,1 hPa 0,0 mm 0,3 km/h (0 Bft) NO 41 0 min 0,000 mm 0,0 UV-I 0 W/m 5,6 C 1,6 km/h (1 Bft)
04.10.2016 23:25 6,5 C 6,5 C 94 % 1029,1 hPa 0,0 mm 0,5 km/h (0 Bft) NO 41 0 min 0,000 mm 0,0 UV-I 0 W/m 5,6 C 1,6 km/h (1 Bft)
04.10.2016 23:26 6,5 C 6,5 C 94 % 1029,1 hPa 0,0 mm 1,1 km/h (1 Bft) O-NO 77 0 min 0,000 mm 0,0 UV-I 0 W/m 5,6 C 3,2 km/h (1 Bft)
04.10.2016 23:27 6,5 C 6,5 C 94 % 1029,1 hPa 0,0 mm 1,1 km/h (1 Bft) O-NO 77 0 min 0,000 mm 0,0 UV-I 0 W/m 5,6 C 3,2 km/h (1 Bft)
04.10.2016 23:28 6,5 C 6,5 C 94 % 1029,1 hPa 0,0 mm 2,7 km/h (1 Bft) N 11 0 min 0,000 mm 0,0 UV-I 0 W/m 5,6 C 4,8 km/h (1 Bft)
04.10.2016 23:29 6,5 C 6,5 C 94 % 1029,1 hPa 0,0 mm 2,8 km/h (1 Bft) N-NO 30 0 min 0,000 mm 0,0 UV-I 0 W/m 5,6 C 4,8 km/h (1 Bft)
04.10.2016 23:30 6,5 C 6,5 C 94 % 1029,1 hPa 0,0 mm 4,0 km/h (1 Bft) NO 44 0 min 0,000 mm 0,0 UV-I 0 W/m 5,6 C 4,8 km/h (1 Bft)
04.10.2016 23:31 6,5 C 6,5 C 94 % 1029,0 hPa 0,0 mm 3,6 km/h (1 Bft) NO 42 0 min 0,000 mm 0,0 UV-I 0 W/m 5,6 C 4,8 km/h (1 Bft)
04.10.2016 23:32 6,5 C 6,5 C 94 % 1029,1 hPa 0,0 mm 1,5 km/h (1 Bft) NO 44 0 min 0,000 mm 0,0 UV-I 0 W/m 5,6 C 3,2 km/h (1 Bft)
04.10.2016 23:33 6,5 C 6,5 C 94 % 1029,0 hPa 0,0 mm 2,9 km/h (1 Bft) NO 44 0 min 0,000 mm 0,0 UV-I 0 W/m 5,6 C 4,8 km/h (1 Bft)
04.10.2016 23:34 6,4 C 6,5 C 94 % 1029,0 hPa 0,0 mm 2,3 km/h (1 Bft) NO 44 0 min 0,000 mm 0,0 UV-I 0 W/m 5,5 C 3,2 km/h (1 Bft)
04.10.2016 23:35 6,4 C 6,5 C 94 % 1029,0 hPa 0,0 mm 1,2 km/h (1 Bft) N-NO 26 0 min 0,000 mm 0,0 UV-I 0 W/m 5,5 C 1,6 km/h (1 Bft)
04.10.2016 23:36 6,4 C 6,5 C 94 % 1029,0 hPa 0,0 mm 2,5 km/h (1 Bft) N-NO 28 0 min 0,000 mm 0,0 UV-I 0 W/m 5,5 C 4,8 km/h (1 Bft)
04.10.2016 23:37 6,4 C 6,5 C 94 % 1029,0 hPa 0,0 mm 1,5 km/h (1 Bft) N-NO 28 0 min 0,000 mm 0,0 UV-I 0 W/m 5,5 C 3,2 km/h (1 Bft)
04.10.2016 23:38 6,4 C 6,5 C 94 % 1029,0 hPa 0,0 mm 2,8 km/h (1 Bft) NO 42 0 min 0,000 mm 0,0 UV-I 0 W/m 5,5 C 6,4 km/h (2 Bft)
04.10.2016 23:39 6,4 C 6,4 C 94 % 1029,0 hPa 0,0 mm 4,0 km/h (1 Bft) O-NO 61 0 min 0,000 mm 0,0 UV-I 0 W/m 5,5 C 4,8 km/h (1 Bft)
04.10.2016 23:40 6,4 C 6,4 C 94 % 1029,0 hPa 0,0 mm 2,7 km/h (1 Bft) O-NO 58 0 min 0,000 mm 0,0 UV-I 0 W/m 5,5 C 3,2 km/h (1 Bft)
04.10.2016 23:41 6,4 C 6,4 C 94 % 1028,9 hPa 0,0 mm 2,3 km/h (1 Bft) O-NO 58 0 min 0,000 mm 0,0 UV-I 0 W/m 5,5 C 3,2 km/h (1 Bft)
04.10.2016 23:42 6,4 C 6,4 C 94 % 1029,0 hPa 0,0 mm 2,9 km/h (1 Bft) NO 40 0 min 0,000 mm 0,0 UV-I 0 W/m 5,5 C 4,8 km/h (1 Bft)
04.10.2016 23:43 6,4 C 6,4 C 94 % 1028,9 hPa 0,0 mm 4,4 km/h (1 Bft) NO 44 0 min 0,000 mm 0,0 UV-I 0 W/m 5,5 C 8,0 km/h (2 Bft)
04.10.2016 23:44 6,4 C 6,4 C 94 % 1028,9 hPa 0,0 mm 2,1 km/h (1 Bft) NO 44 0 min 0,000 mm 0,0 UV-I 0 W/m 5,5 C 3,2 km/h (1 Bft)
04.10.2016 23:45 6,4 C 6,4 C 94 % 1028,9 hPa 0,0 mm 3,4 km/h (1 Bft) N-NO 27 0 min 0,000 mm 0,0 UV-I 0 W/m 5,5 C 4,8 km/h (1 Bft)
04.10.2016 23:46 6,4 C 6,4 C 94 % 1028,9 hPa 0,0 mm 0,6 km/h (0 Bft) NO 41 0 min 0,000 mm 0,0 UV-I 0 W/m 5,5 C 3,2 km/h (1 Bft)
04.10.2016 23:47 6,4 C 6,4 C 94 % 1028,9 hPa 0,0 mm 3,5 km/h (1 Bft) O-SO 121 0 min 0,000 mm 0,0 UV-I 0 W/m 5,5 C 4,8 km/h (1 Bft)
04.10.2016 23:48 6,4 C 6,4 C 94 % 1028,9 hPa 0,0 mm 4,8 km/h (1 Bft) O 79 0 min 0,000 mm 0,0 UV-I 0 W/m 5,5 C 6,4 km/h (2 Bft)
04.10.2016 23:49 6,4 C 6,4 C 94 % 1028,9 hPa 0,0 mm 4,0 km/h (1 Bft) N-NO 32 0 min 0,000 mm 0,0 UV-I 0 W/m 5,5 C 6,4 km/h (2 Bft)
04.10.2016 23:50 6,4 C 6,4 C 94 % 1028,9 hPa 0,0 mm 4,3 km/h (1 Bft) NO 43 0 min 0,000 mm 0,0 UV-I 0 W/m 5,5 C 6,4 km/h (2 Bft)
04.10.2016 23:51 6,4 C 6,4 C 94 % 1028,9 hPa 0,0 mm 2,3 km/h (1 Bft) NO 49 0 min 0,000 mm 0,0 UV-I 0 W/m 5,5 C 4,8 km/h (1 Bft)
04.10.2016 23:52 6,4 C 6,4 C 94 % 1028,9 hPa 0,0 mm 2,2 km/h (1 Bft) NO 49 0 min 0,000 mm 0,0 UV-I 0 W/m 5,5 C 4,8 km/h (1 Bft)
04.10.2016 23:53 6,4 C 6,4 C 94 % 1028,9 hPa 0,0 mm 3,4 km/h (1 Bft) NO 53 0 min 0,000 mm 0,0 UV-I 0 W/m 5,5 C 6,4 km/h (2 Bft)
04.10.2016 23:54 6,4 C 6,4 C 94 % 1028,9 hPa 0,0 mm 4,7 km/h (1 Bft) NO 46 0 min 0,000 mm 0,0 UV-I 0 W/m 5,5 C 6,4 km/h (2 Bft)
04.10.2016 23:55 6,4 C 6,4 C 94 % 1028,9 hPa 0,0 mm 3,6 km/h (1 Bft) NO 46 0 min 0,000 mm 0,0 UV-I 0 W/m 5,5 C 4,8 km/h (1 Bft)
04.10.2016 23:56 6,4 C 6,4 C 94 % 1028,9 hPa 0,0 mm 3,8 km/h (1 Bft) O-NO 69 0 min 0,000 mm 0,0 UV-I 0 W/m 5,5 C 8,0 km/h (2 Bft)
04.10.2016 23:57 6,4 C 6,4 C 94 % 1028,9 hPa 0,0 mm 4,8 km/h (1 Bft) O 91 0 min 0,000 mm 0,0 UV-I 0 W/m 5,5 C 4,8 km/h (1 Bft)
04.10.2016 23:58 6,4 C 6,4 C 94 % 1028,9 hPa 0,0 mm 1,3 km/h (1 Bft) O 97 0 min 0,000 mm 0,0 UV-I 0 W/m 5,5 C 1,6 km/h (1 Bft)
04.10.2016 23:59 6,4 C 6,4 C 94 % 1028,9 hPa 0,0 mm 2,2 km/h (1 Bft) O-NO 57 0 min 0,000 mm 0,0 UV-I 0 W/m 5,5 C 3,2 km/h (1 Bft)
_ Min-Zeit 08:04 08:08 14:17 04:03 - 21:08 - - - - - - 08:03 21:08
Minimum _ 5,0 C 5,1 C 79 % 1026,1 hPa - 0,0 km/h (0 Bft) - - - - - - 4,2 C 0,0 km/h (0 Bft)
_ Max-Zeit 14:09 14:09 08:33 23:01 21:27 21:37 - - 16:07 14:01 11:05 16:05 16:41 21:32
Maximum _ 10,3 C 10,3 C 96 % 1029,3 hPa 0,2 mm 12,7 km/h
O (3 Bft)
- - 1 min 0,102 mm 2,4 UV-I 341 W/m 7,8 C 20,9 km/h
O (4 Bft)
Durchschnitt _ 7,8 C 7,8 C 91 % 1027,8 hPa #4,4 mm 1,7 km/h (1 Bft) NW - #6 min. #0,584 mm 1,0 UV-I 51 W/m 6,4 C 3,0 km/h (1 Bft)